GFSSW_925_spd_000.txt.gz
Wind_Speed
24 24 24 25 26 26 26 26 27 24 18 15 16 15 13 10 8 5 10 6 9 12 9 10 10 10 8 6 4 4 5 7 8 8 10 12 12 8 8 12 5 3 12 25 27
23 25 25 25 26 27 28 27 29 25 17 14 15 15 10 8 6 16 11 11 11 16 12 13 11 10 8 4 3 7 5 9 6 7 11 7 8 10 9 11 11 13 19 28 28
24 25 26 26 27 28 30 30 31 24 16 13 14 13 5 4 8 8 13 14 13 18 8 9 5 9 6 5 4 1 11 6 6 6 11 12 10 6 6 8 10 16 22 23 25
25 26 27 27 27 29 30 34 29 19 13 11 12 7 3 2 5 4 4 23 16 15 8 9 8 9 6 8 4 7 8 10 10 10 11 13 13 15 15 12 15 19 20 20 18
27 25 28 29 29 29 31 34 24 17 10 9 7 4 3 8 9 1 3 22 17 13 12 11 9 7 8 9 8 13 12 11 10 10 13 14 15 13 16 16 19 19 17 15 13
30 27 27 30 30 30 32 30 19 10 4 4 3 7 4 11 2 2 9 20 18 17 12 9 5 5 8 10 4 10 14 14 12 13 15 16 12 12 12 15 16 15 15 13 12
30 31 27 29 31 31 32 22 12 4 4 2 7 5 6 1 1 4 15 20 17 15 11 5 5 8 10 12 12 16 16 11 12 8 15 15 14 15 13 13 14 14 12 11 11
30 32 28 28 32 31 30 14 6 4 2 6 6 1 4 3 3 11 12 13 14 9 5 6 3 5 3 15 10 12 14 11 10 13 7 8 12 11 13 12 12 13 11 10 10
29 31 30 27 31 31 24 8 4 2 1 4 1 4 6 5 8 13 14 16 15 10 8 4 6 5 9 14 12 13 12 11 13 13 2 9 14 13 12 11 12 11 11 10 10
30 30 31 27 28 31 14 4 2 2 0 4 7 5 5 10 11 12 11 14 14 12 8 9 8 10 12 14 13 15 11 12 12 14 8 5 12 14 13 13 13 11 10 10 10
31 30 32 26 28 29 6 3 4 5 8 9 2 3 8 11 14 12 14 16 13 15 13 12 12 15 17 17 11 13 16 12 10 5 10 6 12 14 14 12 12 13 12 11 11
32 30 33 27 30 20 3 7 3 5 10 10 12 8 6 12 13 15 17 15 16 17 16 10 17 17 12 7 11 12 12 11 6 6 11 8 11 12 12 14 12 12 13 12 12
32 32 33 29 26 4 7 13 3 2 6 4 10 9 14 13 18 20 19 13 19 20 17 16 19 12 12 13 15 14 15 12 13 9 11 8 10 12 13 11 11 11 11 11 12
31 33 33 32 5 8 7 3 10 7 5 11 10 9 11 16 13 21 24 14 10 18 20 13 11 14 16 16 14 14 10 13 15 14 12 16 10 18 17 16 16 16 14 13 13
32 33 32 23 13 7 1 4 4 6 5 10 13 13 20 22 20 17 22 10 19 13 10 12 15 14 14 14 10 6 8 9 12 17 7 13 9 3 16 18 20 18 18 16 15
33 34 34 8 7 15 11 7 4 7 7 8 10 15 20 18 21 22 15 11 2 13 14 12 6 11 8 6 6 13 13 7 8 7 10 12 12 12 10 18 19 19 19 18 16
35 30 26 11 4 3 6 5 7 9 4 8 14 21 23 15 19 20 21 18 11 14 14 10 14 9 17 14 11 13 15 8 9 8 10 5 7 13 2 5 13 19 21 20 18
37 30 16 17 6 11 9 7 9 6 9 3 7 20 21 19 18 23 20 18 14 14 17 16 13 14 14 12 12 17 15 6 7 9 6 3 7 6 2 4 11 11 18 20 19
32 9 8 7 13 5 8 9 9 6 3 3 10 15 18 18 11 18 20 20 18 15 8 14 12 12 14 8 10 11 10 5 1 3 8 7 6 9 8 8 9 11 13 21 19
16 8 9 5 9 10 9 13 8 4 6 3 9 17 21 20 15 19 20 21 18 16 14 9 11 14 8 9 4 8 11 9 9 6 9 6 6 3 5 7 8 13 15 18 19
5 5 4 5 14 7 12 15 12 10 7 4 4 9 17 19 21 22 20 12 19 18 14 13 12 10 10 12 15 8 11 8 5 5 7 6 3 6 2 2 4 9 14 17 21
5 5 3 10 8 10 13 11 3 9 6 8 5 8 11 17 20 19 21 18 13 11 14 18 11 12 16 5 6 15 18 16 10 11 6 7 8 4 4 3 3 4 11 16 20
5 4 1 8 8 10 11 10 9 7 6 4 5 3 2 12 14 19 17 7 11 14 11 13 11 14 12 9 5 11 11 13 16 10 7 8 3 6 3 4 4 7 10 13 17
4 3 4 6 4 6 10 12 10 3 5 5 8 6 6 8 5 12 12 8 10 13 7 8 15 18 16 18 14 18 15 17 16 13 11 11 13 10 5 7 7 8 10 13 16
2 3 4 3 6 3 4 2 10 7 2 2 6 6 6 7 9 8 10 13 10 7 8 11 12 15 20 17 14 15 18 19 20 17 15 12 7 11 8 11 10 10 8 14 17
5 4 2 1 2 6 3 3 3 2 2 4 4 3 6 8 5 5 5 5 7 9 10 6 9 9 15 12 15 14 17 17 18 12 9 9 11 8 7 11 13 14 12 13 17
6 3 5 3 1 5 2 0 2 4 3 2 6 7 6 4 9 9 7 7 5 4 9 8 7 8 14 11 10 15 14 16 12 10 10 9 8 10 13 13 14 14 13 12 14

GFSSW_925_spd_003.txt.gz
Wind_Speed
24 24 23 25 26 26 27 29 28 29 25 18 16 17 17 15 11 8 12 8 11 9 8 7 12 12 12 15 11 10 12 8 17 15 16 12 14 11 14 13 7 2 19 23 26
24 26 25 25 26 28 29 30 31 31 24 17 15 14 14 10 10 20 16 12 11 13 10 12 11 11 12 12 5 12 1 15 12 12 14 10 16 14 13 12 11 16 25 26 25
26 26 27 27 27 29 32 31 33 28 21 16 13 10 8 5 12 28 19 21 15 17 15 13 16 10 17 8 8 8 16 9 4 13 14 13 10 5 11 20 15 19 22 23 23
28 27 28 28 27 29 32 32 32 26 19 14 10 6 5 4 7 8 13 23 15 18 15 13 14 14 15 11 4 7 5 13 10 6 13 17 14 11 15 17 18 21 21 20 19
28 29 27 30 29 30 32 32 28 20 13 9 4 5 3 9 17 6 6 22 16 18 17 14 16 15 11 8 8 13 8 12 8 12 12 16 16 15 15 18 21 20 18 17 15
29 30 28 29 30 31 31 34 22 13 11 9 2 8 6 16 6 5 9 22 19 20 18 17 13 12 10 9 8 14 10 12 11 13 12 15 16 14 16 19 19 17 17 15 13
29 31 30 28 31 31 30 35 17 9 9 6 4 4 11 10 2 8 14 25 22 21 16 17 10 8 8 7 6 14 12 11 10 12 13 14 15 15 17 16 17 16 15 14 13
29 31 31 28 32 30 30 32 13 8 5 1 4 5 9 14 4 9 18 22 19 20 17 12 9 13 15 10 11 17 15 15 13 11 19 30 11 15 17 17 16 15 13 12 12
29 31 31 31 31 31 32 23 10 7 3 3 5 9 10 9 12 15 20 23 20 17 12 3 13 13 6 14 12 17 12 14 12 12 20 17 13 15 15 16 16 15 14 13 12
29 31 32 32 29 34 29 16 10 6 3 7 13 8 10 12 16 18 20 21 20 17 12 14 11 12 13 14 14 16 17 15 13 13 7 17 13 17 14 16 16 15 15 13 14
30 32 33 32 28 35 24 7 5 6 12 15 5 12 7 16 16 17 18 21 21 18 16 19 14 16 18 18 16 13 14 14 7 13 12 6 16 15 14 14 15 16 16 14 13
31 32 33 32 29 32 9 7 9 13 12 15 18 14 8 14 16 19 24 18 20 20 22 18 20 18 16 12 15 9 13 11 11 9 7 6 14 14 15 14 15 16 16 17 16
32 33 33 32 30 14 10 20 13 11 9 15 17 19 17 17 18 21 24 22 20 23 22 19 22 19 15 14 12 15 16 14 8 11 13 12 13 16 16 16 14 16 16 17 18
33 33 34 35 11 13 15 1 6 8 7 15 18 16 19 19 19 23 27 22 14 22 21 16 16 19 16 16 16 18 15 12 10 9 13 17 12 18 17 17 19 18 19 17 17
34 34 33 20 19 11 8 9 10 4 6 19 21 15 17 23 17 25 29 22 19 20 16 20 17 15 18 18 19 6 13 9 15 13 16 14 13 17 9 18 21 20 20 19 18
36 35 36 10 11 19 18 13 15 8 11 8 10 16 20 23 24 24 24 23 15 19 20 18 12 18 18 17 14 11 8 8 11 11 13 15 9 12 18 27 23 22 22 21 20
39 33 31 14 10 4 8 7 9 12 14 7 17 20 22 19 20 24 26 23 20 20 19 20 21 23 16 16 12 13 12 9 9 11 13 7 11 7 7 9 7 21 23 23 22
41 32 22 21 13 12 13 9 17 15 24 3 14 21 23 24 22 24 25 22 24 22 19 15 18 20 14 14 11 15 14 11 7 10 11 9 8 12 10 8 7 9 22 20 21
36 17 14 13 15 12 9 12 16 18 9 8 11 22 20 24 21 22 25 25 23 25 18 18 19 20 21 20 19 15 16 17 13 5 10 4 12 9 9 7 4 9 11 21 22
20 16 21 13 10 12 11 18 21 17 6 8 16 16 23 25 21 25 25 26 27 21 23 13 14 26 21 21 14 9 11 10 7 8 10 9 6 5 10 9 9 9 11 13 21
9 6 11 12 12 8 13 20 22 8 8 10 17 16 23 23 23 22 26 24 26 24 21 17 11 17 17 14 15 13 11 12 13 7 6 6 4 14 6 7 4 6 6 11 17
8 8 10 15 9 12 15 22 21 14 12 13 14 16 12 24 25 24 26 26 26 22 21 19 9 14 21 19 21 20 22 17 10 11 8 9 4 6 5 6 4 3 4 9 14
5 10 10 14 10 15 20 19 23 12 18 13 12 15 14 17 20 24 22 23 18 19 20 19 15 13 18 18 13 15 18 20 21 15 17 8 4 8 4 1 2 7 7 10 13
5 6 8 8 13 15 16 19 14 15 20 9 10 7 11 16 18 17 24 13 9 16 7 9 18 16 16 20 17 20 20 18 20 13 12 17 7 14 11 5 3 7 8 10 14
5 4 6 5 13 15 14 15 19 17 13 10 14 16 12 11 15 15 24 16 12 8 8 15 15 17 21 24 21 20 22 22 22 19 18 14 8 10 8 8 7 10 11 8 12
5 5 10 12 3 5 6 15 12 16 2 12 14 13 7 13 11 12 13 14 16 14 16 16 14 17 20 20 22 20 19 23 22 21 18 19 16 5 3 4 8 10 11 13 14
15 12 7 5 10 10 13 13 11 2 2 7 11 9 13 6 9 9 8 8 6 11 17 14 14 14 18 19 21 16 16 19 19 18 16 17 9 7 7 11 10 10 11 12 14

GFSSW_925_spd_006.txt.gz
Wind_Speed
26 28 27 27 28 29 29 30 32 33 30 25 23 21 18 16 16 12 11 12 13 16 9 14 13 16 17 18 22 32 8 8 8 16 20 19 16 18 17 15 16 12 21 24 24
27 27 29 28 28 29 31 31 32 35 31 26 23 18 14 13 12 21 26 22 12 9 10 16 13 12 13 20 8 7 2 14 10 13 21 26 8 16 12 13 14 19 26 27 23
27 29 29 30 29 30 32 31 32 35 29 23 18 13 9 7 10 24 24 26 19 14 17 18 16 16 16 15 5 3 11 7 17 14 25 28 18 11 23 15 17 24 24 22 22
27 29 30 30 30 30 33 33 31 33 24 18 13 8 4 2 5 7 12 27 21 15 15 19 13 17 16 8 1 6 13 13 10 20 12 19 26 20 24 13 19 21 22 20 18
27 29 31 30 30 32 34 33 33 30 19 16 9 4 1 9 20 9 5 20 18 15 19 16 14 18 17 7 3 9 14 8 12 17 19 20 17 21 22 14 20 20 19 18 16
28 29 32 31 31 32 33 35 34 25 16 14 7 4 5 15 11 9 10 17 18 20 20 18 16 20 16 3 6 11 11 10 14 12 12 15 16 17 16 18 19 18 17 16 15
29 30 31 32 32 33 32 36 34 19 12 11 4 1 12 17 7 11 13 21 22 23 18 20 24 14 14 8 12 9 10 9 11 16 13 19 16 15 16 16 17 17 15 14 13
30 31 31 33 32 34 34 34 32 17 9 8 2 4 8 17 12 13 15 20 22 22 24 18 17 16 18 5 6 13 14 11 16 19 5 8 11 14 16 16 16 16 15 14 12
32 32 32 32 33 34 36 35 26 13 7 7 5 8 16 11 16 14 20 22 24 22 23 12 12 16 16 12 11 14 13 14 13 20 12 4 11 15 17 16 14 14 14 14 13
33 34 34 34 32 33 37 33 17 6 4 6 14 10 12 15 18 19 23 24 20 17 16 9 9 16 18 12 15 17 18 20 13 13 15 14 11 14 17 17 14 14 13 14 15
34 34 35 34 32 33 38 12 5 5 9 12 8 13 6 21 21 18 23 26 20 20 19 17 15 18 19 18 18 15 12 17 14 22 25 13 16 18 17 17 15 16 14 15 15
35 35 36 36 32 34 19 7 19 17 15 18 23 24 23 19 12 18 27 20 18 20 20 17 20 21 18 20 20 19 9 11 15 17 11 17 17 17 16 17 18 17 16 16 16
36 36 37 38 35 22 12 22 22 20 15 25 22 23 19 12 16 20 21 22 22 23 23 21 22 23 18 16 16 15 10 10 14 12 4 8 20 11 14 15 18 17 18 17 17
36 36 37 39 17 19 17 15 8 17 10 20 22 26 24 17 17 24 26 22 15 24 22 23 22 21 18 17 17 18 12 18 16 13 11 15 13 18 22 17 16 19 19 19 19
37 36 38 29 22 11 19 22 16 15 6 9 24 18 22 22 19 20 30 23 20 19 18 22 21 24 21 19 16 13 16 17 12 12 14 14 9 15 16 17 17 20 21 20 22
38 38 39 15 12 25 22 20 16 7 11 5 15 18 24 21 23 22 23 25 21 20 21 22 17 19 20 19 16 18 9 14 8 11 14 17 12 6 10 18 18 10 21 20 21
41 39 36 20 10 10 17 11 8 10 16 13 20 21 22 17 24 22 25 26 23 18 21 23 24 16 14 18 20 14 12 8 10 11 13 16 15 11 19 19 20 17 29 20 19
46 38 30 23 24 19 9 8 16 16 25 20 16 21 22 22 25 25 25 23 27 23 15 17 19 21 16 20 16 13 16 10 13 11 13 13 9 16 14 19 23 26 29 21 21
41 20 21 19 20 17 8 13 17 23 22 25 18 15 21 22 21 22 24 25 26 27 21 18 21 22 22 18 17 16 17 18 18 14 7 6 9 10 8 7 4 7 9 17 14
22 16 22 21 23 16 10 20 22 28 30 17 17 16 21 23 27 25 25 25 25 26 27 19 14 21 18 16 16 17 17 13 12 10 11 8 10 10 15 9 10 8 5 6 20
8 6 13 20 17 10 14 22 25 31 25 19 16 17 16 21 25 22 22 22 27 28 27 25 17 21 22 16 21 15 12 9 13 11 9 10 4 13 11 9 7 7 7 4 9
8 6 13 19 10 11 15 25 28 27 27 17 15 19 18 19 24 26 26 26 28 28 28 25 8 13 27 21 24 20 17 11 9 9 8 10 4 13 11 11 9 6 1 6 2
5 11 18 17 13 14 20 25 28 26 23 19 17 22 21 21 18 26 26 26 25 28 25 18 13 10 14 20 20 18 16 20 18 14 13 11 4 8 9 9 7 6 4 5 10
5 5 10 11 14 20 20 23 24 23 26 19 14 18 23 21 19 19 24 21 27 27 8 15 18 13 14 16 17 21 22 22 20 11 14 12 6 9 9 9 9 6 6 6 8
4 6 10 7 13 18 21 21 19 22 19 18 14 22 12 14 15 17 18 24 23 12 15 16 12 17 18 21 20 17 24 21 21 19 16 9 19 4 7 7 3 3 3 5 5
6 6 12 14 20 16 15 23 18 20 17 20 18 19 17 17 7 11 14 11 21 16 12 11 9 12 19 20 19 22 22 23 24 23 23 20 14 22 13 12 7 0 4 6 5
15 14 7 10 17 12 12 11 18 22 15 11 11 8 12 16 13 8 10 10 5 7 16 14 13 13 16 18 20 21 21 22 18 16 14 11 7 14 14 7 2 2 3 5 6

GFSSW_925_spd_009.txt.gz
Wind_Speed
27 28 28 28 28 28 29 31 30 31 35 32 29 26 19 18 18 12 6 13 9 15 14 11 13 17 17 9 8 3 2 9 14 3 3 15 16 11 22 22 19 8 17 19 37
27 28 30 30 29 30 31 31 31 31 34 29 26 23 14 13 13 13 28 17 16 11 8 9 10 10 9 10 11 5 4 13 15 13 17 13 12 6 7 19 20 19 17 31 33
27 29 30 31 30 30 32 31 31 32 33 25 23 19 11 8 4 8 11 24 24 18 15 16 21 17 12 12 8 13 9 21 14 14 15 9 8 6 8 13 22 23 19 17 27
27 28 29 31 32 31 32 33 31 34 31 21 21 17 9 3 4 4 10 20 22 19 10 10 9 10 9 11 4 9 19 17 15 20 8 6 7 5 7 4 22 20 17 7 11
28 29 29 30 32 31 33 35 32 34 29 18 17 13 3 3 11 15 15 13 21 17 15 12 13 9 12 7 6 8 11 19 23 19 17 18 11 6 6 3 20 19 14 10 7
28 30 31 30 32 33 33 34 34 33 26 16 13 7 2 6 14 20 13 14 20 16 14 17 9 11 12 14 6 3 9 19 15 19 19 21 7 8 6 7 19 18 13 11 10
31 31 31 31 32 34 34 34 34 34 22 13 8 1 5 17 6 14 13 19 23 19 10 23 23 8 11 11 10 7 8 13 15 20 20 22 14 11 14 15 15 15 14 12 12
32 33 32 33 32 34 36 35 37 32 16 8 2 1 8 17 15 16 21 15 18 21 25 25 25 12 8 8 5 6 8 6 10 12 13 13 14 15 15 15 14 15 15 13 10
33 34 34 33 33 34 37 38 37 21 9 3 1 3 9 13 12 18 16 17 19 21 27 26 18 10 9 5 3 6 6 14 6 6 6 7 16 19 18 17 17 17 15 13 11
35 34 35 35 33 35 38 39 20 4 1 3 8 4 8 8 17 20 14 19 11 11 13 11 7 6 5 2 7 8 6 16 12 9 7 9 10 19 19 18 17 15 15 14 13
35 35 36 36 34 33 40 13 3 1 6 9 8 8 17 16 20 15 22 16 11 7 9 9 4 7 12 12 12 11 10 10 7 9 8 8 15 17 16 14 9 10 12 14 13
37 36 37 37 35 33 18 4 8 13 16 15 19 23 29 32 10 14 25 12 11 10 9 7 9 13 17 18 12 10 12 12 14 17 9 9 12 12 9 4 16 12 12 14 10
38 38 37 40 36 15 7 17 23 33 6 24 23 22 20 17 13 12 11 14 9 10 12 11 11 19 21 18 12 11 6 13 13 17 13 11 3 4 12 13 16 17 16 11 15
38 38 38 41 11 16 14 18 27 30 4 13 10 21 20 18 9 18 19 13 7 16 15 12 14 22 21 16 11 7 5 5 4 17 9 12 6 7 20 15 17 18 18 14 18
39 37 40 30 21 9 12 26 27 10 4 8 15 11 10 18 10 12 25 13 13 12 10 14 17 19 20 16 7 7 8 6 8 5 5 11 5 9 18 13 10 13 19 17 21
41 41 40 17 11 28 23 29 11 2 8 7 10 15 18 17 15 10 19 13 11 13 16 13 15 15 16 12 9 6 4 5 7 1 2 7 8 6 15 19 17 14 18 20 23
44 44 38 21 9 6 21 9 1 5 7 6 17 21 20 10 19 19 21 19 17 12 12 16 20 16 12 9 9 5 4 2 3 1 7 8 7 8 20 19 21 13 14 11 24
51 43 30 27 27 15 3 2 7 12 24 17 17 13 17 17 15 19 18 17 20 17 6 9 14 17 16 10 11 8 9 6 7 4 10 12 8 6 22 22 20 16 16 15 10
43 20 15 27 14 14 1 6 6 14 17 20 20 16 10 18 11 18 14 19 19 20 14 10 12 12 11 6 11 10 6 10 3 4 3 4 6 6 13 15 17 17 13 16 16
26 11 15 20 23 16 3 8 10 23 23 22 23 19 19 20 19 21 19 21 19 21 18 10 7 15 11 10 14 11 8 4 3 2 6 6 2 3 6 10 10 14 14 14 14
8 5 17 16 28 5 8 9 15 23 21 21 25 28 25 8 18 16 21 17 23 22 23 19 7 13 13 10 10 2 5 4 7 6 5 2 3 4 9 10 10 9 14 15 16
9 4 8 38 6 5 10 7 14 19 20 24 23 25 24 8 8 20 16 22 22 22 23 23 6 11 16 10 13 9 9 10 5 6 2 5 5 12 11 9 10 8 9 8 11
6 5 14 13 7 10 10 22 25 22 23 26 26 25 23 9 7 9 15 20 21 24 24 15 13 10 7 12 14 15 11 9 6 4 5 4 3 2 8 8 8 10 8 8 8
4 4 3 2 6 11 14 17 20 22 24 26 26 15 16 11 13 12 14 9 25 24 27 13 7 8 8 10 11 12 15 8 8 5 6 6 6 6 9 8 5 9 8 8 8
4 4 7 6 7 17 15 16 24 23 19 20 18 7 16 8 12 9 9 8 15 25 21 14 9 8 8 7 5 8 8 8 8 8 7 5 11 11 12 10 10 8 6 4 4
4 4 5 9 12 13 13 17 21 24 14 8 16 14 21 6 4 6 10 6 4 5 21 14 6 7 4 3 6 6 10 17 17 11 8 7 7 16 15 7 8 8 8 6 5
11 12 3 7 8 9 10 24 19 22 5 7 19 8 9 6 7 5 7 13 8 3 3 10 7 4 5 2 4 6 5 5 7 13 11 10 8 9 8 7 7 8 8 5 3

GFSSW_925_spd_012.txt.gz
Wind_Speed
24 27 27 28 28 27 27 28 28 28 30 31 24 23 23 16 14 12 7 15 5 7 11 6 6 9 3 3 3 4 5 4 4 2 1 9 22 12 11 20 10 6 12 22 31
25 26 27 28 29 29 28 29 29 29 30 31 23 21 19 15 11 13 32 27 18 12 8 7 5 2 2 3 5 4 4 8 3 4 4 11 21 15 13 17 15 16 19 30 32
27 27 28 28 29 30 30 29 30 29 30 31 22 19 15 12 4 9 10 13 25 20 13 11 9 4 7 6 5 7 3 9 4 6 7 9 11 5 20 15 24 24 27 26 28
28 29 29 29 29 30 31 31 30 29 31 29 21 18 10 4 5 5 7 5 25 21 14 5 2 4 4 6 8 6 1 9 9 8 6 9 6 4 10 13 19 24 25 24 20
29 30 30 30 30 30 31 32 31 30 31 26 19 14 3 2 11 21 19 9 19 23 17 5 1 3 3 1 7 8 13 15 15 10 8 8 6 8 12 18 18 24 22 22 18
31 30 30 32 31 32 32 34 33 33 32 23 14 7 1 4 10 7 14 7 17 24 13 8 5 4 5 4 4 15 20 20 16 9 6 13 6 8 15 19 18 16 17 16 16
31 32 32 32 33 33 34 35 35 36 31 17 7 1 2 15 4 8 10 13 23 24 5 13 16 1 5 9 7 24 16 14 13 13 10 17 9 12 16 19 18 13 9 8 14
33 32 33 34 34 36 37 36 36 34 21 7 3 3 7 11 16 15 14 16 17 21 19 19 12 3 4 5 5 10 15 8 7 18 10 10 6 9 18 18 15 15 14 11 8
33 34 34 35 36 37 39 37 35 16 4 5 3 3 10 15 4 17 17 13 16 18 18 12 5 6 4 0 5 5 9 16 8 6 10 6 9 14 16 18 17 17 16 15 12
35 34 36 37 36 39 40 38 12 3 5 2 2 2 6 4 7 13 15 21 5 3 3 5 4 3 4 4 5 5 9 17 14 11 3 11 9 20 17 16 18 17 15 13 13
35 37 36 39 38 40 40 12 4 2 3 6 8 8 17 11 18 11 16 7 5 5 6 4 3 7 10 8 7 4 11 13 13 11 10 18 13 20 19 17 18 17 15 14 15
36 37 39 39 38 36 13 1 3 5 10 14 19 20 28 14 9 10 21 7 6 7 5 4 7 11 7 5 5 4 7 13 3 12 7 13 17 20 20 22 19 18 17 17 12
38 38 39 41 38 6 14 12 18 20 4 9 11 12 14 10 14 19 12 8 5 7 7 7 8 6 5 7 4 5 10 13 9 7 7 12 1 6 13 16 10 18 21 20 19
38 39 42 42 7 21 12 10 24 17 3 9 6 10 7 11 8 12 17 10 5 14 6 7 12 9 8 8 6 8 11 18 9 15 7 8 7 7 14 15 9 13 18 18 20
40 41 41 31 20 8 10 23 31 1 4 6 6 5 10 11 2 8 23 5 11 7 8 9 10 14 10 16 8 12 9 11 12 16 7 5 4 18 7 14 14 12 20 19 22
42 42 37 17 12 28 24 25 5 5 8 7 4 6 7 7 6 5 10 5 6 6 5 10 7 8 12 18 10 14 4 7 5 5 2 11 12 4 10 26 18 12 19 19 21
48 38 34 22 7 5 11 6 4 4 5 6 3 5 8 7 6 7 15 11 15 8 6 7 19 10 12 7 8 5 6 1 2 0 7 8 10 14 21 24 23 22 23 21 23
46 40 31 30 24 14 8 4 5 10 19 4 12 14 4 4 9 7 9 14 13 4 6 6 16 17 7 13 11 8 10 6 7 3 6 7 6 10 17 26 25 20 26 23 24
44 26 20 22 17 15 4 3 9 7 3 3 6 6 4 4 2 9 10 16 16 12 12 7 9 7 12 11 9 9 4 9 7 1 3 4 8 8 6 17 19 17 21 22 24
31 13 13 12 22 14 3 8 7 5 7 8 0 4 5 6 7 6 12 14 16 11 9 8 3 8 13 5 7 13 7 3 3 6 4 5 5 6 5 13 14 16 18 17 22
8 5 5 14 24 4 4 8 6 12 11 3 2 6 10 12 9 16 17 13 24 19 13 12 5 11 1 7 12 1 3 3 6 5 6 3 6 7 9 16 18 16 18 14 19
8 4 13 31 3 3 3 5 2 10 11 8 8 16 15 16 18 17 18 17 22 24 13 10 7 14 20 14 11 9 10 8 6 5 2 5 6 4 11 16 16 12 12 9 15
5 4 9 9 2 3 5 7 10 9 11 8 11 15 15 16 14 20 12 9 15 27 21 10 6 9 10 7 3 7 6 7 5 4 7 6 6 4 5 9 7 10 8 9 12
3 4 4 3 3 2 6 6 8 7 13 15 20 20 17 17 11 6 7 5 11 27 30 12 6 10 15 9 5 5 8 7 8 5 6 6 4 5 8 12 9 11 11 10 15
3 4 1 4 4 11 4 6 10 11 7 8 11 10 11 14 8 4 5 6 5 21 25 14 10 7 9 19 12 14 16 9 6 8 9 8 11 10 14 16 15 12 10 11 10
2 3 5 4 7 5 6 3 12 17 7 9 5 7 7 5 4 5 1 3 3 7 6 6 8 10 16 17 8 7 9 11 9 6 1 6 8 9 14 6 9 14 11 10 8
8 9 1 5 5 5 3 11 19 20 7 6 4 3 7 5 10 9 7 5 7 4 3 11 7 6 11 6 7 2 5 3 3 4 5 7 10 11 5 7 9 9 9 11 10

GFSSW_925_spd_015.txt.gz
Wind_Speed
24 25 25 25 25 26 27 27 26 27 27 28 27 21 21 21 19 14 6 13 5 16 10 9 13 2 5 4 4 3 5 3 6 7 6 10 5 7 7 12 5 5 7 18 27
26 26 27 27 26 26 27 27 27 27 27 29 26 19 19 18 15 12 28 22 19 12 7 9 4 2 4 5 5 5 3 6 8 6 12 10 15 10 8 12 8 15 16 25 28
28 28 27 27 28 28 28 28 28 28 28 29 27 18 17 13 4 9 4 3 22 20 11 8 1 2 3 2 2 4 6 6 7 7 16 16 12 4 17 7 20 22 21 23 24
29 30 29 29 29 29 29 30 31 30 28 29 26 15 13 4 6 3 6 13 16 23 14 6 3 3 2 2 5 4 5 7 7 8 8 15 9 7 10 6 17 22 22 22 18
30 30 30 30 31 31 31 31 32 31 31 28 23 11 4 2 11 23 19 21 15 24 16 6 5 6 5 6 3 7 6 8 8 10 10 7 4 6 6 14 16 19 20 21 17
33 31 30 32 33 34 34 34 34 33 34 27 16 2 1 5 7 8 11 7 18 23 12 8 8 7 4 7 5 7 3 8 7 8 4 11 8 7 10 17 19 20 20 18 18
33 34 33 32 33 35 37 36 34 36 32 21 6 3 2 17 6 8 8 6 11 26 7 16 5 3 2 4 4 12 5 7 4 3 6 13 4 8 18 20 20 20 18 18 16
32 33 35 35 35 36 37 38 35 34 19 8 7 5 7 10 12 15 8 7 4 12 17 9 10 4 2 5 5 9 5 6 4 6 8 6 5 12 16 21 20 18 17 16 16
33 33 35 37 37 38 38 35 33 12 5 6 5 5 9 10 8 7 14 7 8 9 9 2 6 6 3 3 5 5 13 5 6 8 4 2 5 15 16 17 17 17 19 16 16
35 34 35 37 39 39 39 32 8 3 4 1 3 2 6 2 6 12 12 15 4 6 3 4 3 4 4 5 6 11 8 8 11 16 6 6 6 18 18 17 17 15 13 13 14
36 36 36 38 38 40 34 4 4 3 2 6 7 7 17 17 15 7 5 7 5 4 6 4 4 7 11 9 7 10 8 17 10 8 5 8 8 20 20 17 16 15 14 14 14
36 37 39 39 41 26 9 3 3 2 10 11 19 17 28 1 6 14 6 5 6 6 5 3 8 12 6 7 9 8 9 13 2 9 5 7 8 18 20 21 20 20 17 18 14
37 37 42 40 31 2 19 8 4 16 4 8 10 10 10 14 11 16 9 5 4 7 7 7 6 8 7 6 8 5 8 10 8 10 5 9 4 12 13 10 15 16 18 16 17
39 37 42 43 2 19 12 5 19 5 3 8 5 7 8 11 7 10 12 7 3 12 7 6 7 7 5 6 7 5 8 8 10 17 8 8 5 8 13 15 14 16 17 17 16
40 38 38 26 20 7 5 22 21 5 5 5 5 2 3 12 8 9 11 5 11 5 7 8 7 7 5 7 8 9 9 9 9 15 5 5 4 6 13 10 21 20 19 19 18
42 40 37 16 8 22 16 20 1 4 8 6 4 2 4 3 6 4 6 4 7 5 3 10 4 7 10 6 9 2 4 8 6 5 5 12 8 5 10 27 26 17 18 21 20
47 43 38 18 7 6 11 5 2 5 4 5 3 5 3 3 9 5 6 8 10 10 5 4 8 4 3 4 4 5 7 2 3 2 6 9 7 11 18 24 28 26 21 21 21
51 43 29 24 22 21 5 4 6 6 13 5 7 9 3 3 4 6 7 8 5 5 4 7 9 9 3 8 8 7 10 6 7 5 6 7 7 12 18 20 24 20 20 16 19
46 26 19 10 13 16 4 3 7 6 4 3 5 3 4 4 5 4 5 12 16 10 8 7 8 3 6 6 11 4 4 9 5 1 3 5 6 8 7 11 19 23 15 18 19
31 14 11 8 12 12 4 5 7 6 4 2 0 2 2 4 6 7 2 6 8 12 8 8 3 7 13 5 6 13 7 1 2 6 5 4 3 5 6 6 12 15 17 20 20
9 5 7 3 17 3 4 8 7 8 6 3 2 5 4 4 5 2 7 9 11 11 14 8 6 6 4 8 12 3 3 3 5 4 7 4 7 9 8 8 14 18 22 21 19
7 4 7 20 2 1 3 7 5 5 3 5 5 6 6 2 6 5 8 8 8 10 11 10 7 12 14 5 3 7 10 9 7 6 1 4 7 3 9 9 14 16 16 14 16
6 4 3 6 1 3 6 5 4 3 7 5 7 8 5 5 5 8 6 14 18 14 16 9 4 7 8 4 1 4 5 6 3 4 9 6 6 1 4 7 10 10 10 13 15
3 4 4 3 1 2 4 5 4 6 8 7 8 8 9 8 11 6 11 13 18 11 26 16 6 15 16 9 5 5 6 8 8 5 6 7 7 4 7 9 9 10 11 15 17
2 3 1 3 3 6 2 4 4 4 4 6 4 13 11 6 7 5 10 19 9 6 10 15 9 8 19 16 6 7 9 7 9 12 10 11 10 10 12 12 15 16 10 12 15
3 3 5 4 3 5 2 3 4 4 4 7 8 10 11 8 11 5 8 6 7 7 0 4 7 10 8 11 15 11 14 13 17 2 3 6 7 7 11 4 7 12 12 11 11
4 5 1 4 4 4 2 4 8 12 8 14 8 4 5 8 6 8 13 10 6 6 3 6 11 6 17 6 6 4 11 6 6 5 7 5 10 7 4 7 12 10 11 15 10

GFSSW_925_spd_021.txt.gz
Wind_Speed
22 21 22 23 23 21 21 21 20 21 22 23 23 24 24 25 25 14 7 10 6 14 14 21 12 14 17 6 5 4 2 5 7 9 6 12 7 7 5 12 4 5 8 14 23
24 25 23 22 23 24 24 24 24 23 21 21 22 23 22 23 19 12 9 11 16 15 19 20 15 18 6 5 6 5 3 11 9 9 9 12 10 10 5 14 6 7 14 25 24
26 25 26 26 24 24 25 27 27 27 24 21 20 21 20 16 6 4 1 14 18 12 15 15 8 12 8 5 6 4 3 6 9 12 15 14 10 8 9 13 10 12 20 24 23
26 27 26 26 28 28 26 26 26 27 27 23 22 19 12 5 7 2 3 14 9 18 8 11 8 9 7 9 7 5 4 7 9 13 16 17 13 8 14 2 11 18 23 22 19
26 27 27 28 29 31 29 28 27 26 26 27 22 14 3 2 11 18 14 8 6 21 18 12 12 8 10 7 6 4 4 5 4 14 15 16 14 8 13 4 14 21 23 21 19
28 29 30 31 32 32 31 31 30 28 26 25 17 4 3 9 8 8 6 6 4 18 17 12 10 6 6 5 7 5 5 8 9 14 16 16 10 11 10 12 18 22 21 19 19
29 30 31 32 34 33 32 32 31 29 27 15 8 7 4 17 10 10 9 6 6 17 18 13 4 6 7 7 6 12 9 10 11 14 8 15 9 13 13 16 18 20 19 18 19
31 32 33 34 37 36 34 31 32 25 11 4 9 5 7 5 7 10 14 7 6 10 15 9 2 4 0 7 6 5 6 7 8 13 9 16 13 13 17 19 19 19 18 18 18
32 33 35 36 37 39 35 31 18 2 6 11 4 3 8 3 4 2 9 6 9 6 4 4 3 1 4 9 6 3 7 10 10 11 9 14 6 13 18 18 18 19 19 17 17
34 35 36 38 39 36 29 14 2 3 3 1 3 3 6 3 1 2 7 14 5 8 4 3 3 6 4 10 13 12 8 8 8 13 9 13 9 6 15 19 19 19 19 18 18
35 37 38 40 41 28 20 4 2 2 3 7 2 4 3 3 5 5 6 6 6 5 9 4 9 15 17 15 12 15 15 16 9 10 11 14 12 7 14 17 18 18 19 19 20
36 38 41 41 36 8 16 2 5 1 10 13 20 15 18 4 5 7 7 7 7 9 7 6 15 14 14 13 9 15 15 14 7 11 12 11 14 10 15 21 20 20 20 20 20
37 39 44 40 23 5 8 6 5 6 4 9 6 6 5 15 12 13 14 8 11 11 13 13 8 10 13 12 12 12 17 14 14 12 4 6 15 15 13 18 18 20 20 20 21
37 39 42 43 4 21 4 7 10 2 3 6 4 5 6 8 7 16 19 9 4 16 12 10 9 17 13 18 15 17 15 16 16 12 13 12 11 11 16 18 21 22 21 22 21
35 38 40 24 17 7 2 11 12 4 5 1 3 3 5 7 1 8 20 7 12 9 7 9 11 14 21 20 15 12 12 18 17 18 9 9 7 14 8 16 23 25 25 25 23
37 39 40 13 9 15 12 9 3 3 8 3 2 5 4 7 2 5 10 8 9 12 4 14 3 14 15 17 18 10 12 6 5 9 9 17 14 13 9 15 22 22 25 25 24
42 42 33 13 5 1 8 3 4 6 1 4 5 3 8 5 6 8 15 16 13 17 15 12 14 7 10 18 15 14 16 7 8 7 9 12 12 17 12 19 22 19 25 27 26
43 42 20 16 7 12 6 4 11 5 12 1 1 6 5 2 5 12 14 19 18 18 13 16 14 17 14 18 15 21 20 11 17 10 10 4 11 13 17 23 13 16 14 20 24
39 23 12 2 6 11 4 10 9 9 4 5 7 10 8 3 4 11 12 20 21 22 15 15 17 4 12 9 18 15 13 17 9 1 7 7 6 10 13 15 16 21 16 19 23
24 10 6 9 7 8 5 13 8 7 4 4 8 5 4 3 3 8 9 8 14 21 22 10 7 15 17 13 9 16 15 10 8 17 15 8 5 7 6 13 16 15 17 20 22
7 5 7 6 10 3 6 8 10 11 8 8 12 12 8 4 3 2 2 2 8 18 21 15 12 6 8 18 21 8 9 5 7 9 15 15 13 8 13 13 12 16 17 19 19
6 4 3 3 3 2 4 5 3 5 13 13 5 14 13 8 8 5 8 5 1 10 13 14 13 14 15 7 9 24 20 18 11 12 6 11 14 5 14 14 11 14 13 10 15
6 4 4 4 4 4 4 6 6 9 8 9 15 12 10 14 8 11 12 11 14 5 7 9 9 11 15 16 9 8 17 21 19 14 18 15 12 4 6 10 14 16 14 7 11
3 4 2 3 2 4 4 6 5 6 12 14 7 7 8 9 10 4 6 5 6 13 5 8 6 12 16 20 16 16 12 17 19 15 15 17 18 10 10 12 15 16 14 11 10
2 3 2 3 2 8 4 5 10 5 4 3 9 18 14 14 17 19 15 16 15 9 5 7 10 16 20 22 23 24 22 21 19 23 19 18 18 17 15 17 17 15 9 10 11
3 3 4 5 9 9 6 4 8 5 3 8 7 4 12 14 15 12 17 15 14 1 12 7 5 8 15 25 23 27 27 23 23 24 20 22 16 13 14 11 12 15 12 13 15
2 4 3 5 4 4 4 4 3 9 7 12 11 10 10 11 8 9 14 14 10 6 9 7 5 5 7 17 20 22 25 24 20 21 21 20 14 11 12 15 16 14 14 16 16

GFSSW_925_spd_024.txt.gz
Wind_Speed
23 23 22 21 20 20 21 21 22 23 22 21 20 20 19 21 22 8 10 5 9 16 20 16 15 14 15 8 8 5 7 4 5 5 10 13 9 8 7 12 8 5 9 22 25
23 24 24 23 22 23 23 23 23 23 22 22 21 21 20 20 14 17 9 12 13 25 24 21 15 16 10 12 6 9 8 3 5 7 13 14 9 11 9 13 11 9 15 25 26
24 25 24 25 25 26 25 24 25 25 23 22 22 21 19 14 12 2 6 6 16 25 18 20 16 16 15 9 10 9 10 4 5 7 16 15 10 10 8 13 13 13 19 24 25
25 25 25 25 26 28 27 27 26 26 25 23 22 21 13 4 5 6 7 4 9 21 14 21 16 18 14 13 11 9 3 1 7 9 14 15 13 9 10 7 12 13 21 23 21
26 26 27 29 29 29 28 28 28 27 24 24 24 16 4 8 14 7 10 4 12 21 23 20 23 20 18 14 10 12 5 4 4 11 11 13 12 10 12 3 12 16 22 22 19
27 28 28 30 31 32 30 31 30 27 26 23 19 4 5 15 6 7 7 5 6 21 24 23 17 21 11 13 15 10 5 2 6 12 12 13 13 11 12 7 16 19 22 21 20
28 30 31 33 34 32 32 32 32 30 24 17 9 6 8 18 5 9 8 9 8 16 16 27 18 18 14 12 6 7 9 6 8 12 10 12 13 13 15 13 16 19 19 19 19
30 32 33 34 35 37 34 32 28 20 10 6 6 7 8 5 8 13 13 13 11 14 19 23 15 16 11 7 10 13 11 10 11 14 9 15 14 16 17 16 17 19 18 18 19
31 33 35 37 35 37 36 25 13 4 6 11 6 6 8 5 10 8 13 10 12 11 15 17 15 15 12 16 14 13 14 15 11 15 10 15 7 16 16 17 17 18 19 18 17
31 34 38 38 38 36 27 17 3 1 2 4 4 5 8 7 8 3 10 14 11 14 15 16 13 13 15 17 17 17 18 16 13 16 12 16 9 4 15 18 17 18 18 18 19
33 35 38 39 42 29 23 4 5 7 10 10 2 8 3 4 4 8 14 14 13 18 17 21 17 22 24 22 20 15 15 15 14 14 16 15 14 11 11 16 17 18 19 20 20
33 35 39 38 36 12 12 5 5 5 12 16 22 21 22 7 7 13 18 13 16 19 18 15 22 22 20 22 23 18 18 17 13 9 15 13 15 13 13 16 18 19 20 20 20
34 35 40 38 20 7 10 3 4 10 7 11 13 13 13 20 19 19 18 19 18 20 20 19 20 20 21 20 23 21 20 18 14 12 15 9 14 15 16 17 16 20 20 22 21
35 35 39 42 5 17 3 2 9 8 5 6 7 7 10 9 10 24 25 19 15 22 20 20 18 22 19 24 22 23 21 18 16 14 13 14 11 13 16 18 19 20 21 22 23
37 35 39 21 18 6 5 8 12 5 6 7 7 9 12 11 3 16 26 22 20 18 18 20 21 20 24 24 23 23 17 17 18 18 17 14 9 13 5 14 18 22 23 23 23
38 38 40 12 11 14 12 9 4 7 9 6 8 11 10 13 8 6 23 22 17 20 16 22 15 19 23 21 23 20 12 15 18 16 19 21 14 14 13 15 16 16 22 24 25
41 41 32 15 5 2 8 5 6 9 4 9 10 14 9 10 14 13 22 26 22 21 22 22 21 17 17 23 24 21 18 12 15 15 15 20 16 16 9 12 14 14 19 23 23
44 36 14 14 8 10 8 7 14 4 17 4 7 13 14 9 10 17 19 24 28 24 16 21 22 26 18 26 26 28 26 15 25 16 14 18 16 19 19 20 20 15 11 17 23
41 18 14 6 10 9 8 15 11 16 12 13 12 13 18 14 7 14 20 24 29 27 24 20 27 27 25 19 26 28 27 25 23 20 17 18 15 22 14 17 18 16 14 15 20
23 19 11 6 8 11 10 25 21 16 10 13 21 15 18 19 13 13 16 14 25 30 25 14 15 21 24 21 27 28 23 24 21 25 23 21 21 13 17 19 19 17 14 17 18
13 6 5 4 11 7 14 22 22 24 16 18 21 19 15 12 14 15 14 11 17 25 25 24 15 18 20 26 25 21 20 25 23 22 18 18 18 16 14 13 12 12 13 13 14
7 6 4 4 7 9 14 18 6 16 22 21 18 21 21 19 16 15 13 11 2 17 28 27 15 17 25 26 27 25 25 27 18 25 20 21 17 18 20 18 21 21 15 10 10
5 8 5 9 7 13 15 15 15 20 20 22 26 22 21 22 20 20 18 12 7 8 17 22 21 15 19 19 24 29 27 28 26 21 27 20 19 16 11 12 12 14 13 10 7
4 5 5 7 10 11 15 13 20 15 19 22 21 22 23 23 21 15 17 14 13 16 7 7 19 23 18 24 21 21 27 29 28 20 22 25 22 23 22 18 18 13 13 14 10
4 3 2 5 5 9 12 15 15 14 16 15 19 24 22 23 23 24 20 14 10 9 9 15 18 17 25 23 24 25 25 26 29 29 27 24 29 22 23 18 20 18 16 15 10
4 3 3 11 16 14 13 13 15 15 13 16 18 12 26 22 20 18 19 20 17 14 16 14 14 18 21 24 24 21 25 27 28 28 29 31 30 22 23 25 21 21 19 18 15
5 8 6 7 9 8 11 13 8 10 11 16 15 11 10 8 9 9 12 9 16 16 17 17 14 16 19 21 23 25 27 27 29 28 28 28 25 24 28 24 25 21 22 19 19

GFSSW_925_spd_027.txt.gz
Wind_Speed
23 23 22 22 22 24 24 23 23 23 22 21 22 22 22 24 23 9 12 10 13 12 14 15 16 16 15 15 17 10 4 12 6 10 15 10 11 7 10 12 10 6 19 23 26
24 23 24 24 25 25 25 25 24 24 23 23 22 22 21 23 21 23 20 15 14 16 18 20 17 15 14 15 14 13 4 8 6 13 16 10 11 11 12 14 13 10 22 26 25
24 23 23 24 25 25 26 26 26 26 25 23 22 22 20 18 19 5 7 13 19 21 20 19 16 15 16 16 15 15 8 10 8 7 14 11 13 10 13 12 16 17 22 23 25
25 25 26 28 29 28 27 27 27 27 26 24 22 21 17 9 7 11 6 7 7 22 21 19 17 18 17 16 14 16 13 7 9 6 11 12 14 10 10 12 16 17 22 22 20
25 27 28 29 30 30 30 30 29 28 25 25 23 18 7 10 19 12 10 5 14 20 23 19 21 20 20 17 17 14 8 4 6 8 12 14 11 13 9 8 16 17 22 22 19
28 29 31 32 32 31 31 32 31 29 27 23 21 8 7 19 16 15 10 12 16 23 24 23 18 20 18 20 17 11 12 1 4 12 9 10 14 12 13 9 17 18 22 21 21
28 29 31 33 33 34 35 31 31 27 24 18 13 7 12 19 6 9 14 15 14 21 21 27 28 20 20 19 18 16 5 8 8 13 12 11 15 14 17 13 17 18 19 20 20
32 32 34 35 33 35 38 35 25 23 14 9 5 8 9 9 14 21 18 18 16 17 21 20 27 22 20 20 16 15 15 14 15 13 12 18 18 18 18 16 18 19 18 18 19
32 32 34 36 35 39 38 25 21 9 1 6 8 10 17 7 14 18 20 21 20 18 19 21 21 23 18 19 15 17 16 19 15 15 13 18 12 19 19 16 17 17 18 18 18
34 35 35 36 35 41 30 19 12 3 3 7 12 7 13 14 11 10 14 19 17 16 15 19 16 19 19 19 17 21 21 20 19 17 12 14 7 18 16 18 17 17 18 18 19
36 36 36 37 36 30 26 6 5 7 15 15 7 14 9 8 7 12 13 19 17 18 19 22 19 25 28 26 22 22 20 11 15 23 18 17 13 13 16 15 17 19 19 20 20
37 37 38 38 35 11 13 9 6 8 13 20 25 25 26 8 10 15 18 17 19 19 23 19 25 26 26 26 26 27 22 18 14 20 19 18 18 15 20 15 16 18 21 20 21
36 37 40 37 23 7 15 9 5 15 9 16 25 25 26 23 22 17 20 22 21 23 26 24 25 27 28 26 26 26 25 17 17 20 17 18 19 18 17 18 17 17 18 22 22
36 37 38 41 12 20 7 5 9 12 7 12 10 11 20 19 22 26 25 23 18 24 24 26 22 27 28 30 27 25 25 19 19 16 13 19 15 21 20 21 20 19 19 20 23
35 37 37 27 20 11 8 11 11 7 7 12 12 15 17 20 7 26 32 25 25 22 19 25 23 28 30 29 28 25 25 22 22 18 23 23 17 12 21 24 19 20 21 21 22
35 36 40 15 14 18 16 10 8 7 12 10 11 14 19 23 13 11 27 27 22 23 23 25 23 28 24 27 25 23 24 24 23 19 16 19 18 19 17 19 20 23 21 21 21
35 38 33 21 12 3 9 9 7 11 4 12 16 20 22 21 21 15 26 27 25 24 23 23 28 24 20 22 26 29 25 16 17 17 19 26 20 20 16 15 18 19 19 21 20
37 34 22 16 15 12 12 9 17 11 29 2 16 20 23 21 22 21 24 24 29 26 18 22 22 30 22 29 28 31 28 20 26 18 20 25 23 21 18 9 16 12 14 21 21
37 22 19 16 12 15 9 17 14 22 17 19 15 19 23 22 17 24 26 25 28 28 25 21 26 22 28 27 28 30 29 27 27 24 20 20 23 19 7 19 16 16 15 14 20
26 25 22 12 8 14 12 29 22 32 15 15 26 19 23 25 21 21 24 24 27 30 29 23 18 24 26 24 28 34 24 27 23 28 26 25 23 16 20 17 18 16 16 16 16
18 6 6 4 9 9 16 24 27 35 30 23 25 25 26 24 27 25 25 20 23 26 28 27 20 16 25 31 31 22 28 25 26 24 21 19 19 19 19 18 22 22 20 18 19
13 7 8 5 8 9 18 27 25 30 27 28 26 28 25 27 27 27 29 22 19 19 30 27 18 18 21 23 28 28 29 31 18 28 20 22 19 14 17 15 13 17 15 11 16
7 11 19 13 11 14 23 28 27 27 28 27 26 30 27 28 24 23 17 22 9 10 21 23 24 18 21 22 27 30 33 32 32 22 27 22 21 17 4 17 21 19 16 17 4
7 7 8 9 13 17 20 21 21 20 23 21 27 26 27 29 26 22 24 24 16 12 9 9 22 27 20 24 18 28 30 32 30 24 21 26 26 23 23 14 11 10 10 11 10
5 10 4 10 9 11 18 15 14 17 23 21 25 28 26 27 27 28 27 23 25 17 19 16 21 26 30 27 23 24 30 30 34 29 28 25 31 28 24 23 19 20 17 19 15
4 6 8 13 18 20 18 18 18 20 15 20 24 22 23 27 23 26 27 28 19 20 19 22 19 21 24 26 27 25 25 26 28 30 30 31 30 24 28 23 17 17 20 17 15
10 16 8 9 16 12 13 23 18 13 8 16 11 15 19 21 20 18 21 22 22 22 23 24 19 19 22 22 21 25 26 27 28 28 28 29 27 23 25 25 23 20 21 20 20

GFSSW_925_spd_030.txt.gz
Wind_Speed
24 24 25 25 25 24 24 23 23 23 23 23 23 22 22 24 26 12 13 18 25 19 10 11 19 23 23 18 19 7 5 7 9 17 16 9 12 19 16 15 17 15 21 28 29
26 26 27 27 27 26 26 26 26 25 24 23 23 23 22 24 22 24 30 29 16 19 14 20 17 20 16 17 13 10 5 6 18 12 15 12 11 13 12 14 16 22 24 29 31
25 26 27 28 29 28 28 28 28 28 27 24 23 22 21 19 14 14 9 19 22 20 19 23 21 17 19 16 19 5 5 24 29 17 16 13 14 11 17 14 12 25 24 22 27
26 27 28 30 30 29 29 29 31 30 29 27 23 22 19 7 7 7 13 9 13 20 20 24 19 20 19 18 7 13 19 23 2 8 16 15 15 9 11 16 19 21 22 21 19
28 29 31 32 32 31 30 32 33 31 29 28 24 19 7 9 20 15 11 8 7 15 24 22 20 20 20 18 18 16 24 29 9 5 11 19 13 11 9 20 21 23 23 22 19
31 31 31 32 33 33 32 35 34 31 28 25 22 11 6 17 16 16 17 12 14 18 24 23 19 19 21 19 20 18 21 18 6 10 11 14 16 13 11 19 21 23 23 21 21
34 33 32 34 35 35 35 38 33 29 23 20 14 6 12 23 13 23 17 19 18 21 19 25 23 18 19 22 20 21 19 14 7 10 9 7 14 12 18 14 19 22 21 21 20
36 36 35 36 37 36 39 38 29 24 19 13 8 8 10 18 23 24 14 19 20 23 22 22 24 21 22 18 22 22 20 14 16 14 11 15 4 8 19 16 19 21 20 19 20
36 38 38 37 38 37 42 32 27 22 8 5 6 10 13 9 22 24 26 21 21 21 19 21 21 20 21 21 18 20 16 17 9 13 16 11 13 19 11 17 19 19 20 19 18
35 38 39 38 38 39 37 30 16 6 5 7 15 10 17 16 18 21 22 23 17 17 17 17 15 17 19 17 17 22 19 20 17 18 18 21 13 17 27 17 19 19 19 18 19
37 39 42 39 37 35 35 12 4 6 12 15 10 14 17 20 19 13 22 25 21 18 20 22 16 21 26 25 24 24 20 24 14 18 19 19 17 16 29 21 19 20 18 20 20
37 38 42 41 38 25 18 8 7 9 15 20 29 27 32 19 13 15 19 18 21 20 22 20 25 26 24 26 26 28 26 24 22 26 27 17 25 32 33 21 20 21 20 19 20
37 38 39 40 35 13 16 20 11 15 10 18 30 29 31 25 21 18 22 21 23 23 24 25 24 25 26 26 28 27 26 22 10 24 23 16 18 22 23 22 19 20 23 21 20
37 36 37 41 14 25 13 8 13 14 7 11 14 23 26 28 30 24 25 21 18 24 24 25 25 26 27 29 28 26 26 26 14 17 13 20 14 17 21 23 22 20 19 23 22
36 35 36 31 22 11 16 16 15 11 7 4 15 5 18 30 8 31 34 25 25 24 17 24 25 28 29 31 30 25 26 24 22 17 18 18 13 14 18 20 24 22 21 20 24
36 36 37 19 11 22 22 18 13 6 11 7 11 11 18 27 30 15 32 27 23 24 24 24 23 28 27 27 29 26 25 25 22 18 14 16 13 25 19 19 7 22 22 21 21
37 40 41 24 10 15 15 10 6 10 9 14 17 15 20 21 27 18 27 30 26 24 24 25 27 25 25 24 27 28 25 15 17 17 17 23 22 14 12 15 5 12 20 23 22
40 42 28 21 19 18 13 7 16 11 28 12 12 19 22 22 25 28 23 25 31 25 18 22 21 29 24 29 25 25 26 16 20 18 19 23 20 14 23 19 12 24 26 24 22
39 27 26 21 22 16 9 15 11 20 16 19 23 20 23 25 23 27 28 26 31 32 25 21 25 20 30 23 27 26 26 26 25 23 17 18 17 21 17 16 27 31 9 6 10
27 30 22 20 14 13 12 28 19 27 26 25 25 22 26 24 27 28 28 27 28 32 29 24 18 23 24 27 29 28 18 24 20 26 25 20 20 12 19 20 15 17 18 19 20
17 8 27 5 10 9 16 23 26 32 32 30 29 29 29 26 27 28 28 26 29 28 29 27 22 20 24 27 27 20 23 24 21 21 17 17 16 16 18 22 19 22 18 19 13
14 9 12 8 10 10 17 27 26 31 31 31 29 30 31 30 28 29 31 27 22 28 29 27 18 20 27 26 29 30 29 28 18 22 18 19 16 16 7 21 20 18 16 14 14
8 12 27 29 16 14 22 29 29 28 28 31 31 31 28 30 28 30 29 25 25 26 26 22 22 17 24 25 25 30 28 27 27 23 21 19 17 22 8 12 16 14 16 17 13
5 7 11 11 17 20 14 19 25 25 28 29 24 23 30 30 28 29 28 29 27 30 8 18 21 28 19 20 19 24 29 29 27 19 22 20 20 26 10 20 18 11 14 8 7
4 7 16 9 14 9 9 14 22 26 21 22 17 20 15 14 26 28 30 31 31 14 12 15 16 20 28 31 27 27 29 28 28 26 22 23 21 24 23 12 13 4 7 7 5
3 8 10 15 21 22 15 20 18 26 20 24 17 19 20 18 14 17 28 25 24 21 20 19 18 17 24 28 30 28 27 27 30 29 29 26 25 20 24 20 10 17 14 11 10
7 11 6 10 18 17 16 13 14 20 13 16 11 14 19 19 22 26 26 28 30 25 17 20 16 16 21 23 24 26 30 24 24 26 23 24 23 17 16 13 14 14 14 14 17

GFSSW_925_spd_036.txt.gz
Wind_Speed
24 24 25 25 26 26 25 25 25 25 26 28 26 23 23 24 25 19 9 27 18 24 9 24 12 20 22 3 4 7 4 4 7 3 11 21 15 14 9 18 8 4 12 25 33
26 27 28 27 27 27 26 26 27 27 28 29 27 24 22 22 21 16 37 33 27 19 21 21 12 18 4 8 5 5 3 6 9 5 8 21 26 17 12 18 7 17 19 29 31
28 29 30 30 30 30 30 29 29 28 30 29 27 24 19 14 5 9 10 10 19 26 22 25 20 14 7 6 7 4 6 5 11 3 5 19 23 16 25 15 23 25 23 23 26
30 33 34 33 32 32 33 33 33 32 33 32 26 21 13 3 6 2 5 6 16 25 19 13 10 8 8 11 7 5 8 9 9 15 3 13 18 18 23 14 25 27 28 24 20
34 35 36 35 34 34 34 35 36 34 36 30 22 15 3 3 14 18 2 4 13 21 18 10 9 7 8 8 9 6 6 15 16 13 8 8 19 20 15 24 21 25 25 24 22
37 37 38 38 35 35 37 38 37 37 36 30 18 7 2 9 15 18 14 16 11 20 14 12 7 9 5 7 14 8 9 15 20 15 7 11 14 9 19 24 24 27 26 22 24
36 39 41 40 37 38 39 39 39 38 37 23 10 4 5 21 6 6 6 22 22 21 7 21 23 4 1 1 11 13 7 15 14 19 8 10 6 16 25 28 27 27 24 21 22
37 40 42 41 38 40 40 40 40 38 23 13 7 7 9 12 15 27 16 26 22 25 21 14 24 6 4 5 4 3 2 4 14 15 4 6 11 21 27 27 27 27 22 20 21
40 42 44 44 41 43 45 40 36 9 7 7 9 6 11 10 7 27 23 13 25 24 24 18 7 8 4 2 5 2 4 7 5 12 6 4 5 22 25 24 23 22 21 16 16
41 43 45 45 45 45 45 32 10 7 7 4 2 2 8 6 5 8 21 23 5 9 4 5 3 5 1 4 7 6 3 2 4 17 29 11 5 22 22 23 24 22 21 18 15
40 42 44 48 46 48 33 9 5 3 2 9 7 7 13 6 11 9 21 13 6 5 10 6 5 13 11 7 7 5 7 7 4 7 18 17 14 23 23 19 21 21 21 20 21
41 42 45 49 50 22 11 4 1 13 13 15 24 26 38 7 7 9 22 9 7 8 5 5 12 9 9 7 10 12 14 13 5 3 2 11 16 19 17 24 25 22 20 21 20
40 42 45 50 36 6 25 7 25 30 5 8 15 16 13 17 15 19 9 9 8 7 10 13 7 11 9 10 11 13 17 8 6 3 4 7 2 6 6 3 10 18 22 21 23
41 42 44 53 8 34 13 25 30 23 4 8 6 9 9 8 10 21 12 15 6 18 7 10 14 13 17 14 14 14 15 9 7 5 9 8 5 8 15 12 14 18 20 21 23
39 41 42 42 18 10 19 29 35 2 6 4 5 6 9 12 7 12 24 6 17 9 9 9 18 19 17 18 17 14 10 9 9 6 3 3 3 6 10 19 13 18 21 24 24
37 39 42 27 16 20 21 36 8 4 8 7 5 6 7 5 3 2 11 6 6 13 9 19 9 15 19 14 17 11 8 6 4 4 10 13 13 6 9 10 20 18 22 23 22
37 39 41 29 7 16 23 7 3 5 5 2 6 8 6 7 7 3 19 17 15 12 17 10 17 9 8 10 10 11 6 5 5 6 10 11 11 12 19 13 21 25 24 21 24
37 40 39 35 31 18 9 3 6 5 9 9 12 9 5 3 7 6 5 20 17 4 7 11 9 16 11 18 14 10 16 9 8 4 5 6 9 10 12 15 25 27 27 22 26
35 34 28 30 14 12 3 4 7 6 6 14 12 5 6 5 12 6 15 11 19 17 10 8 10 4 15 14 19 10 11 11 7 3 2 4 7 8 12 8 18 26 22 24 27
29 14 19 19 6 13 3 4 5 3 13 10 3 4 9 14 11 17 5 10 13 14 10 7 3 11 22 9 17 19 7 5 1 12 15 5 7 6 8 14 17 24 24 26 26
10 4 16 16 21 3 7 7 5 19 11 8 15 15 15 12 7 9 11 15 5 10 20 20 9 10 4 13 16 8 11 3 6 9 13 8 15 8 10 12 14 21 29 26 22
6 4 9 36 4 2 7 7 12 18 19 13 11 16 10 10 14 10 12 10 18 19 13 9 12 16 26 9 12 21 16 13 11 8 5 16 19 3 10 10 16 19 22 22 17
3 4 14 7 4 6 9 10 9 10 9 6 5 5 5 4 7 7 12 9 19 14 7 8 10 11 8 12 12 8 12 18 6 4 20 7 2 9 6 5 8 9 6 8 10
2 4 4 3 3 10 11 6 11 14 7 9 6 4 8 3 4 9 11 12 22 17 20 10 6 12 21 11 6 7 17 13 17 12 11 21 5 6 1 7 9 15 13 12 10
1 4 2 4 5 9 8 5 11 8 8 4 5 6 6 4 5 4 7 16 12 8 14 6 6 5 10 16 19 11 11 22 22 21 20 8 10 10 9 9 8 12 11 19 20
2 3 4 3 5 5 5 3 7 8 5 6 7 9 5 3 7 12 14 9 5 8 10 4 5 7 7 12 23 22 19 21 17 21 19 8 8 10 12 9 8 10 16 18 12
5 10 3 5 3 3 3 8 14 11 8 10 12 8 10 13 9 14 15 17 11 6 6 4 3 7 6 6 18 17 33 16 12 9 10 11 8 9 8 8 10 10 10 11 15

GFSSW_925_spd_039.txt.gz
Wind_Speed
25 26 26 27 25 25 25 25 25 23 23 25 25 23 21 22 23 13 9 22 20 19 25 25 11 20 12 4 5 1 3 4 5 8 4 14 7 9 4 12 4 4 8 19 29
25 26 26 27 27 26 26 25 26 26 25 25 27 23 20 19 19 14 32 24 22 29 31 23 16 21 4 5 3 3 4 8 5 4 12 17 14 13 6 10 3 10 17 28 30
27 29 29 29 28 27 26 26 27 28 26 25 24 21 16 12 5 8 8 2 28 38 33 28 28 13 4 3 7 5 5 3 4 7 13 17 11 5 17 8 9 22 22 22 26
29 30 32 32 30 29 29 29 31 29 27 26 22 17 10 0 6 1 7 2 31 38 31 21 16 6 7 7 6 4 11 7 2 2 17 17 10 7 17 6 18 24 27 22 21
33 35 36 37 36 34 34 34 33 32 31 25 19 9 2 3 12 14 6 9 33 35 26 11 18 6 7 7 5 5 12 6 8 1 8 15 17 12 19 11 17 18 21 23 21
36 38 40 40 41 41 39 37 39 37 31 26 14 3 3 8 12 11 10 16 31 31 19 11 10 13 4 4 13 7 18 15 9 8 8 17 18 11 17 18 19 22 22 21 22
39 40 42 42 44 44 42 42 41 35 32 18 11 9 3 17 5 6 9 22 24 31 9 22 15 13 5 3 7 15 3 9 13 7 8 12 7 17 14 20 22 23 21 21 22
40 41 42 44 47 47 46 42 37 30 10 6 14 10 8 10 9 29 22 14 14 25 17 28 28 4 4 3 5 3 5 4 11 15 11 11 9 16 21 22 22 22 19 19 20
41 42 44 47 50 52 46 37 22 5 6 16 12 6 9 3 6 18 22 14 24 20 20 4 9 6 2 3 4 5 4 6 2 10 7 11 6 9 23 22 21 20 20 19 17
40 43 46 49 50 49 32 17 6 10 8 4 3 1 6 4 5 5 16 23 6 8 4 6 5 6 3 5 9 5 3 2 5 5 13 7 5 19 22 21 23 22 20 19 18
41 43 46 50 52 25 37 4 5 3 3 7 5 5 7 8 8 5 11 11 5 6 8 6 7 12 9 7 5 6 3 4 4 8 1 13 6 21 22 18 19 20 19 20 21
40 43 47 51 44 11 28 5 7 5 12 16 23 22 33 2 5 5 17 9 7 8 6 2 14 8 8 8 8 6 6 6 5 6 9 10 9 19 23 26 24 23 22 23 18
38 41 44 49 30 14 17 5 20 22 5 8 8 9 7 20 13 13 10 7 6 9 9 11 6 11 9 6 9 6 10 5 7 0 2 5 3 12 17 5 13 17 20 22 23
38 40 42 50 8 29 12 26 32 10 4 8 5 7 6 8 7 18 15 12 5 19 8 6 8 10 7 10 10 10 5 6 8 5 5 6 5 14 17 18 16 17 19 19 20
38 40 39 39 18 11 14 32 32 4 6 3 3 6 5 11 2 11 19 5 14 9 9 10 14 17 13 14 8 9 6 7 6 5 1 5 2 7 18 16 21 21 24 22 22
39 40 40 25 19 21 24 35 6 3 9 5 3 4 3 4 5 5 10 2 6 5 4 15 5 14 17 9 13 5 3 2 0 3 7 12 8 9 10 26 23 20 24 27 25
39 40 41 21 8 21 23 8 3 5 6 5 5 7 3 3 4 4 18 12 11 8 15 5 18 4 7 8 6 6 7 4 3 4 11 10 7 15 9 15 21 24 25 26 26
39 39 36 22 20 19 6 4 6 3 4 5 6 10 1 10 4 6 12 18 13 4 9 9 5 17 7 11 11 10 14 6 8 4 7 5 10 13 16 13 19 18 23 24 25
35 34 20 19 19 2 4 3 6 4 4 10 8 4 6 7 10 10 7 15 17 11 8 9 9 4 12 7 17 8 12 12 3 2 3 5 8 6 9 11 12 13 13 19 24
28 15 13 14 22 3 4 4 4 3 9 5 4 6 6 9 8 11 6 4 9 12 5 7 2 8 10 10 10 14 8 4 2 11 14 5 7 6 10 17 12 11 16 19 22
11 4 6 26 14 3 3 6 6 12 7 7 5 4 2 5 7 5 5 7 14 11 7 1 4 4 7 8 19 3 9 4 7 6 10 2 10 9 9 11 13 15 18 22 22
4 3 15 23 4 2 3 12 6 12 15 7 4 5 2 5 3 2 6 3 15 10 6 7 2 15 18 5 14 19 14 12 5 10 6 11 10 3 17 14 10 11 13 19 23
3 3 9 8 4 6 8 9 12 11 8 6 4 5 5 3 4 3 5 7 16 11 7 8 4 2 6 3 3 8 10 16 13 1 21 7 6 8 7 7 9 11 10 8 15
3 5 4 3 3 3 4 5 10 8 9 6 3 4 5 3 3 5 9 4 12 9 14 3 3 5 11 4 5 8 10 15 16 11 14 20 4 4 7 11 9 9 10 9 14
1 2 1 4 3 5 6 4 7 9 7 7 4 6 3 2 2 3 3 9 7 7 6 4 4 4 7 11 15 15 15 25 19 24 16 14 14 13 10 10 10 10 6 8 9
2 1 1 5 6 4 4 3 3 6 5 4 6 10 4 4 4 4 4 2 5 6 6 5 4 5 6 10 13 16 19 24 29 23 14 7 8 9 15 9 8 11 9 11 13
5 4 2 3 2 2 3 1 9 14 6 6 14 14 7 8 6 8 9 8 11 5 2 2 2 5 5 6 10 12 31 20 12 13 18 14 8 8 8 10 13 13 10 13 15

GFSSW_925_spd_042.txt.gz
Wind_Speed
25 25 26 26 26 25 24 23 22 22 23 22 21 21 21 20 20 13 9 23 19 12 20 25 14 20 10 3 4 3 2 4 3 5 3 11 4 4 6 10 4 4 5 14 29
26 27 28 28 28 27 26 25 23 24 23 22 21 20 18 17 17 14 33 19 21 26 25 22 14 21 4 4 3 3 3 6 5 5 5 13 8 8 4 10 3 8 18 27 31
28 30 30 30 29 29 29 28 28 25 25 23 22 18 14 12 5 8 6 6 26 34 30 24 23 10 4 4 5 5 5 3 4 5 8 15 8 4 9 5 6 19 23 22 26
30 33 32 31 31 32 32 32 29 30 27 24 20 16 8 3 5 2 8 9 32 39 26 17 12 5 5 6 6 3 10 7 7 3 9 13 10 5 14 4 9 21 26 23 20
32 34 34 34 34 35 35 36 34 31 28 22 18 11 1 2 11 8 5 19 36 30 25 14 17 5 7 6 7 6 5 4 9 6 10 10 15 8 16 6 18 18 21 22 19
34 35 37 39 38 39 38 39 37 33 26 22 14 5 3 5 8 8 11 24 35 28 23 13 14 8 3 4 8 7 7 9 7 6 6 13 8 8 7 14 17 19 19 18 20
35 37 40 43 44 44 46 39 34 29 25 19 13 10 3 15 5 9 15 28 41 35 13 18 7 7 5 3 7 5 7 6 5 5 7 6 3 12 10 17 20 18 16 17 16
37 39 42 46 47 50 38 36 31 19 5 6 15 11 8 6 12 20 16 14 34 34 22 25 13 10 3 3 5 2 4 0 7 6 7 11 13 16 17 19 19 19 16 17 16
40 43 45 48 50 50 33 27 8 10 7 21 13 5 9 3 6 17 27 12 26 27 17 2 5 4 1 3 5 4 4 5 6 7 4 12 7 12 19 20 19 19 17 16 15
39 41 44 48 49 41 40 7 10 11 11 3 6 1 5 5 5 7 23 28 5 8 4 5 3 5 1 5 10 5 4 4 5 3 7 8 11 11 21 21 22 20 18 17 17
39 41 43 47 49 30 29 3 5 2 4 7 3 5 4 4 4 6 13 16 7 7 8 6 5 11 13 8 4 6 4 6 4 3 5 9 5 9 17 16 17 18 18 18 21
40 42 44 47 44 17 14 6 7 4 11 13 19 17 23 4 5 4 24 10 8 7 8 5 19 12 9 8 8 6 3 5 5 7 3 5 9 8 17 22 22 20 20 21 16
40 42 45 48 27 18 11 10 14 8 4 9 7 6 6 13 10 8 17 6 7 9 18 18 6 12 10 6 12 6 12 5 5 6 2 5 4 8 10 5 11 15 17 16 18
39 41 45 50 7 28 11 12 30 3 3 7 4 6 5 8 6 11 18 8 5 20 9 6 7 20 10 12 11 9 7 6 8 1 4 5 5 5 13 19 17 15 19 20 19
38 41 44 33 15 10 11 28 30 4 6 0 2 7 5 6 0 8 11 3 10 8 9 11 14 13 19 15 10 8 7 9 6 5 1 3 1 6 11 13 19 19 20 21 22
39 43 44 21 16 15 27 29 3 4 9 3 3 3 4 5 4 4 6 2 6 6 1 8 4 12 10 8 12 9 6 6 5 4 7 10 8 5 8 20 20 20 22 22 22
39 43 35 17 9 24 22 6 2 5 6 5 4 5 4 5 2 4 9 13 11 8 9 5 11 4 6 8 5 8 6 1 1 2 11 10 7 15 11 18 24 26 27 24 24
40 39 24 11 25 18 7 4 5 2 3 4 5 8 2 8 4 6 8 17 5 5 8 8 6 16 6 10 11 9 10 6 7 5 11 6 10 8 13 12 18 21 24 21 21
39 35 13 10 29 12 4 2 4 3 7 9 8 4 5 5 5 5 4 6 8 4 7 8 9 4 10 6 16 6 9 10 5 2 2 5 6 6 5 12 13 19 17 19 21
30 14 13 14 25 2 4 4 4 5 12 6 4 6 5 7 6 7 6 8 11 7 6 3 2 7 18 6 12 10 11 4 1 6 6 5 4 6 10 12 14 9 17 19 17
11 4 6 30 5 4 2 5 6 9 10 4 5 6 4 4 4 5 5 7 12 10 7 6 3 3 8 11 16 4 5 3 6 6 6 1 6 8 10 15 19 19 17 17 17
4 3 16 22 4 2 3 8 10 11 6 5 3 4 3 5 3 4 5 4 10 8 5 2 1 6 7 2 14 20 14 7 8 7 5 4 8 4 10 11 11 10 13 9 12
3 3 8 9 4 4 6 6 5 7 8 6 4 4 3 4 4 4 5 5 14 9 5 5 2 2 4 8 3 5 10 7 4 2 18 7 6 8 6 7 9 10 10 9 9
3 4 4 4 1 4 5 5 8 11 5 8 9 5 6 5 5 4 4 4 9 5 9 2 1 3 3 3 3 6 8 9 15 11 13 20 3 4 8 10 10 10 10 9 8
2 2 1 4 4 8 4 4 7 7 5 6 4 12 9 3 4 2 4 5 5 8 4 3 0 2 4 11 8 12 16 14 20 21 13 10 15 10 9 10 15 13 7 6 9
2 2 1 4 7 6 4 3 4 6 2 5 4 12 12 3 2 4 4 1 5 5 5 5 3 2 4 10 14 13 14 17 14 12 17 12 9 9 13 9 7 10 9 9 10
2 3 2 4 3 4 2 3 7 8 7 7 5 10 10 6 4 6 7 9 9 1 3 3 2 2 4 6 9 12 13 13 10 10 12 17 11 7 9 10 13 13 10 11 12

GFSSW_925_spd_045.txt.gz
Wind_Speed
26 27 28 27 26 25 25 25 24 24 22 21 19 19 18 18 18 9 10 19 13 14 19 25 19 19 13 6 1 0 2 2 3 4 2 12 6 5 5 14 4 5 8 18 29
27 28 28 28 28 27 27 26 26 25 23 23 21 19 16 16 14 14 31 23 16 24 29 31 20 22 7 8 4 3 2 5 4 4 4 11 11 12 6 14 6 10 15 30 31
28 29 30 30 30 29 29 28 29 27 25 22 20 18 13 12 6 7 3 6 23 28 26 23 27 17 8 6 7 6 4 2 4 7 5 10 10 10 11 12 10 18 23 27 30
29 31 32 33 34 34 32 36 33 29 27 23 18 15 8 3 6 1 6 9 28 26 30 23 19 11 9 9 9 5 11 8 3 2 3 12 9 9 11 3 11 18 26 27 24
30 32 34 36 37 37 38 40 33 29 25 21 14 9 2 4 12 10 2 16 29 27 30 17 23 12 12 9 9 11 5 4 11 11 8 10 13 10 12 5 15 22 25 24 22
30 35 37 39 41 41 44 35 33 32 26 18 10 4 3 8 7 11 9 24 31 30 26 20 16 12 9 6 13 6 12 10 8 11 6 12 9 7 9 15 18 24 26 23 23
33 37 39 41 44 44 44 36 36 30 23 16 11 9 5 15 5 9 15 24 32 35 25 26 10 15 5 5 10 10 9 6 11 10 6 9 8 13 12 17 21 21 23 22 21
36 38 40 44 45 45 38 35 18 12 4 7 14 10 9 5 18 7 14 12 19 22 24 17 10 14 3 3 1 4 5 7 6 12 8 15 12 16 19 20 21 21 20 21 22
37 40 43 47 48 40 35 13 14 17 12 20 11 5 7 2 7 20 17 11 19 18 12 13 11 5 4 11 7 2 7 9 4 14 7 15 13 14 23 20 21 21 21 21 20
38 42 44 47 48 33 27 2 6 8 8 2 5 4 6 3 6 12 19 22 10 16 9 8 10 11 10 12 13 8 8 5 9 6 11 16 17 5 22 23 23 23 21 21 22
40 42 46 47 42 27 24 1 3 3 3 7 3 6 4 4 7 6 25 20 11 17 14 15 12 22 24 17 13 9 7 13 9 6 6 13 16 13 19 21 21 22 22 22 24
39 41 44 45 32 19 13 6 7 8 13 14 22 17 20 5 2 12 28 13 13 16 15 8 25 20 14 17 19 17 17 17 9 6 4 7 11 10 18 24 24 24 23 24 20
38 40 42 44 19 16 6 9 11 5 6 9 8 7 8 13 7 15 26 16 20 21 27 24 6 20 17 15 19 23 23 18 8 4 5 8 12 6 13 15 18 21 21 18 23
39 40 39 38 6 21 3 11 23 2 4 6 5 5 6 7 9 14 29 16 12 26 22 21 19 22 21 23 21 23 20 21 17 9 10 4 13 8 13 18 21 21 22 24 23
40 39 38 19 11 8 12 27 16 4 6 5 4 7 8 10 1 12 33 14 20 18 15 18 24 21 25 29 20 17 14 17 19 14 12 15 9 16 8 15 22 23 25 25 26
41 40 32 12 12 19 28 24 4 4 9 2 3 2 5 10 3 4 16 13 9 11 19 18 8 22 18 20 22 11 10 8 3 9 16 22 14 16 12 19 18 22 24 24 25
41 38 17 8 9 31 24 4 4 6 8 6 4 7 6 2 5 5 18 26 17 16 16 20 13 15 17 17 20 20 17 8 10 11 14 14 13 19 9 17 19 21 25 26 27
40 32 9 9 23 29 9 3 8 5 5 10 9 14 3 6 1 2 13 23 22 19 14 18 15 20 19 19 13 28 23 9 15 16 14 7 15 13 17 20 17 19 21 22 23
38 27 9 17 26 12 3 4 3 6 9 13 13 3 1 3 6 4 2 20 20 12 14 19 18 13 20 18 20 19 25 23 12 1 5 12 15 12 11 17 22 19 18 19 23
27 11 8 32 14 3 2 4 3 10 14 8 5 7 6 10 5 4 3 7 6 3 4 5 7 13 27 17 22 14 19 10 13 14 15 8 10 14 18 20 19 20 20 20 21
8 5 15 30 7 3 3 5 6 9 14 7 7 7 7 6 7 5 6 8 13 6 5 2 6 3 15 23 23 11 20 13 12 12 10 9 11 7 16 19 22 23 22 22 21
5 3 19 22 5 3 4 12 9 9 8 5 6 5 3 5 4 5 3 6 14 10 1 4 3 11 13 12 21 24 19 26 12 12 15 8 8 2 12 11 15 19 19 19 18
3 3 8 9 4 7 8 7 9 9 8 6 5 6 5 4 4 4 5 4 13 12 7 6 3 11 10 9 9 24 22 24 21 14 19 12 7 9 10 8 11 12 12 12 11
3 4 2 3 1 4 8 6 8 8 3 7 6 6 6 1 2 3 5 4 10 8 10 4 1 9 14 9 4 5 14 23 24 17 18 22 17 9 11 9 13 14 15 10 10
2 2 3 4 5 10 5 6 12 8 7 5 2 7 6 2 3 4 6 6 4 9 6 4 2 5 6 8 8 10 13 11 19 25 23 21 24 19 15 13 14 10 9 11 11
2 3 1 5 8 8 6 4 9 9 9 8 4 10 11 3 4 7 8 4 3 5 4 6 2 3 10 10 12 14 15 15 17 19 19 22 25 8 14 19 18 18 18 15 14
2 3 2 2 4 6 4 4 8 15 7 6 9 15 12 11 10 14 12 12 13 9 5 4 2 3 7 8 13 15 21 20 17 16 16 22 18 16 19 13 18 18 16 16 14

GFSSW_925_spd_048.txt.gz
Wind_Speed
25 25 25 25 25 26 25 24 23 23 22 21 20 19 18 17 17 7 17 14 14 14 15 19 19 18 19 12 6 4 6 7 4 4 10 12 10 7 7 12 7 5 9 24 31
26 27 28 28 28 27 27 26 27 26 24 21 19 18 17 16 15 22 23 22 19 23 21 25 21 21 15 13 7 8 8 2 5 1 5 11 8 11 9 13 11 8 17 31 33
28 29 31 32 32 31 29 30 30 27 23 21 19 16 13 11 10 8 5 18 24 23 24 23 23 19 15 9 11 8 5 1 3 3 3 11 9 8 9 11 13 15 23 28 31
30 32 34 35 36 35 34 34 31 25 23 20 15 13 7 4 5 4 5 9 27 27 23 24 21 21 15 12 13 8 10 5 4 5 1 5 8 9 10 6 14 17 25 28 26
31 33 35 36 39 39 37 37 30 29 28 20 12 8 3 9 11 4 4 16 28 27 28 21 22 21 17 14 11 16 8 7 9 8 6 6 9 7 10 6 16 20 24 25 24
32 34 37 40 41 41 39 32 33 29 22 16 10 6 6 13 5 9 9 23 29 28 28 24 20 19 11 8 14 9 14 9 8 8 5 9 8 9 10 9 17 21 24 24 24
34 36 38 40 42 42 35 35 25 20 15 11 13 10 9 17 3 7 15 22 27 29 25 26 16 20 7 11 9 12 10 11 12 11 7 8 11 12 15 15 18 21 21 23 23
35 37 39 41 43 36 34 29 13 16 8 9 16 10 8 5 15 8 16 19 23 25 23 24 11 20 9 3 8 14 15 14 16 14 8 14 11 16 17 17 19 21 21 22 23
36 38 40 41 44 29 33 14 8 10 11 19 10 8 6 3 12 17 19 19 23 22 16 16 14 17 20 12 12 13 14 19 11 16 9 15 9 16 19 19 19 21 22 21 22
37 38 39 41 43 23 27 7 5 2 3 2 2 6 7 4 9 24 19 16 21 18 15 15 13 16 17 17 17 17 18 16 16 15 13 15 15 6 19 19 19 20 21 22 23
37 39 39 40 39 22 20 8 4 7 7 10 1 5 1 1 9 19 24 26 16 21 17 23 19 26 27 24 20 13 12 18 15 9 13 16 15 12 14 18 19 20 21 22 23
38 39 39 39 29 24 13 5 8 7 15 17 22 24 20 2 9 18 29 18 20 23 22 18 28 23 22 22 21 22 17 19 13 7 9 16 15 13 13 19 20 20 21 22 21
38 39 40 37 12 15 12 10 12 13 8 12 13 14 13 21 12 21 30 24 26 28 30 24 14 24 24 23 23 23 23 18 15 11 14 13 15 15 11 15 18 20 21 20 22
36 38 38 29 4 16 4 18 17 8 6 7 7 6 12 13 13 19 33 27 19 29 28 24 15 26 22 26 25 25 24 18 16 12 13 15 15 19 20 17 18 20 20 23 24
37 37 31 13 11 9 19 21 14 5 7 7 6 8 9 17 6 25 30 28 22 18 28 21 25 23 27 25 24 21 17 18 21 18 17 21 10 16 12 18 19 20 22 23 25
37 35 20 9 8 14 22 19 4 6 9 3 5 6 8 16 9 13 22 28 22 23 24 26 15 23 23 19 23 11 18 15 15 17 19 24 20 17 17 18 18 20 21 23 23
36 23 9 10 13 23 22 7 7 9 6 5 7 5 10 10 18 13 26 31 21 23 28 24 28 19 17 23 20 23 20 11 14 17 20 19 21 20 9 17 20 19 21 23 23
36 15 8 8 21 19 15 7 13 4 8 17 13 18 12 4 12 17 20 26 31 26 17 20 21 29 27 25 23 29 25 13 20 15 18 18 17 22 22 21 7 18 18 20 22
28 11 6 17 19 12 7 8 10 13 14 15 19 11 10 5 6 9 21 23 31 29 26 21 27 26 21 22 24 25 27 25 17 9 9 15 19 16 13 18 23 20 17 20 20
17 7 10 22 14 10 6 5 8 11 15 17 16 5 8 5 8 7 15 6 15 34 7 17 17 20 26 26 26 19 24 22 17 22 20 13 18 13 18 23 19 22 23 19 20
10 4 13 22 10 6 5 8 14 15 12 10 15 14 14 12 9 6 1 7 8 1 6 16 14 22 21 26 26 22 18 23 17 17 13 14 13 16 17 17 22 21 20 21 21
10 4 15 17 3 4 7 10 11 14 14 13 15 17 14 12 11 4 3 9 10 8 12 12 10 13 26 24 25 27 24 27 14 23 20 15 10 8 5 12 18 18 19 20 18
7 4 8 14 5 6 9 12 11 10 10 10 8 15 14 14 6 3 1 5 11 10 2 1 13 15 14 18 24 26 27 24 25 16 21 18 5 8 7 4 3 8 8 10 14
5 5 2 2 0 10 11 10 11 9 5 8 5 11 14 17 12 5 3 3 9 9 11 7 11 21 19 16 18 26 27 29 28 20 19 19 15 13 8 4 7 7 7 6 7
2 4 4 6 7 10 9 12 11 8 9 9 2 6 9 7 10 13 6 10 4 6 6 7 12 7 15 3 5 11 29 30 29 27 26 19 20 19 11 10 7 7 6 3 4
5 4 2 9 6 10 8 8 10 11 12 11 9 12 11 8 12 9 11 7 5 5 5 5 3 6 15 11 9 11 14 16 21 28 27 26 24 13 11 12 19 16 15 14 14
3 7 3 5 8 6 7 8 12 14 8 5 13 15 11 9 12 15 14 14 15 11 8 5 5 7 15 12 11 16 22 21 19 20 18 23 17 16 20 16 15 15 13 14 15

GFSSW_925_spd_051.txt.gz
Wind_Speed
24 25 26 27 26 26 26 24 24 24 24 22 20 19 17 17 18 12 16 14 17 18 12 17 23 23 21 16 16 10 11 8 7 13 7 11 13 9 12 13 8 3 20 28 32
26 27 28 29 29 28 28 27 26 26 24 21 19 18 17 14 18 26 31 24 25 19 18 22 23 22 17 19 12 14 11 12 12 21 8 12 15 11 11 12 11 14 26 33 31
28 29 31 31 33 32 31 30 30 26 22 20 19 18 14 9 15 12 6 41 28 23 24 22 22 21 22 16 19 18 6 27 10 1 21 13 17 10 14 11 13 18 25 28 31
30 31 33 34 35 34 36 33 29 27 27 23 20 16 9 8 6 9 3 14 34 26 26 25 21 23 22 22 18 18 11 9 5 6 5 10 16 14 5 14 15 19 25 26 27
32 33 35 36 37 38 38 31 33 30 26 20 15 10 4 10 21 12 5 11 20 30 32 24 25 24 23 19 15 18 16 12 5 8 7 3 10 10 12 9 17 20 24 26 24
33 34 36 38 39 40 36 33 33 23 20 14 12 9 9 18 8 11 9 13 21 32 32 27 22 23 22 18 18 13 17 11 13 13 11 13 11 14 17 13 18 20 23 23 24
34 36 37 38 40 43 31 34 27 17 20 12 13 14 14 19 4 7 15 19 22 30 21 28 23 20 19 18 13 16 13 16 15 12 12 17 18 18 20 17 19 21 21 22 23
35 37 39 39 41 43 26 32 18 14 19 6 14 12 9 4 20 16 15 21 21 25 24 24 24 20 24 16 6 17 18 17 20 19 16 17 14 16 20 19 20 21 21 21 23
35 38 40 40 40 33 31 22 11 11 7 11 10 14 11 6 15 22 22 24 24 23 23 21 19 15 23 18 14 17 17 21 19 21 17 18 9 20 21 19 19 20 20 21 22
35 37 40 40 40 27 31 23 11 6 2 7 10 7 9 11 15 21 25 25 23 19 18 17 15 18 18 20 19 22 22 20 20 21 20 17 10 9 20 19 20 19 20 20 23
37 38 40 38 29 26 30 16 3 7 12 15 6 16 7 7 4 17 25 22 22 22 22 23 19 26 30 28 23 22 22 22 20 13 20 18 14 20 18 19 20 22 21 22 23
36 37 40 35 16 20 20 12 9 10 16 21 28 28 34 9 10 16 27 21 23 26 25 19 28 27 26 26 28 27 22 22 14 18 19 18 18 19 19 20 18 21 22 22 21
37 38 38 30 10 15 9 18 15 14 9 19 26 23 23 26 19 21 29 28 29 30 31 29 19 28 26 25 26 27 25 19 19 17 13 10 16 16 19 17 18 20 21 21 23
35 36 32 29 6 15 10 20 16 11 7 9 8 6 18 19 18 27 34 31 19 32 30 30 24 27 27 29 27 28 26 22 20 19 17 22 15 20 18 17 17 21 22 24 23
35 35 22 11 13 11 18 21 15 6 7 10 9 6 7 21 6 28 36 32 26 23 28 31 24 21 28 27 28 26 23 23 21 18 18 20 18 16 24 23 22 22 24 23 25
35 30 16 8 13 17 21 20 8 7 14 3 5 6 10 20 26 21 27 32 29 24 25 29 20 23 20 26 23 21 21 20 23 19 19 24 20 16 14 19 23 23 22 22 24
35 20 10 12 13 21 20 12 8 9 7 10 15 19 18 13 22 20 30 31 30 30 30 27 32 23 21 23 23 23 20 14 17 18 17 25 23 19 16 20 19 20 23 22 22
35 12 10 8 18 17 15 11 12 15 17 21 21 25 23 21 17 25 24 27 34 30 17 22 24 33 22 28 24 26 25 16 22 19 18 24 25 23 24 20 12 21 21 24 24
29 10 5 14 16 14 9 10 11 14 19 20 26 22 15 15 8 22 26 27 30 34 31 25 31 30 32 26 27 24 27 26 23 23 17 21 21 25 21 24 20 13 20 23 24
24 18 3 16 14 13 9 12 13 14 17 17 20 17 24 22 9 17 20 20 26 34 32 29 19 32 28 26 29 30 22 24 18 24 19 20 15 16 21 16 19 24 17 21 22
16 7 10 18 13 9 9 8 14 13 15 16 19 24 23 16 24 26 20 5 10 12 26 33 24 18 27 28 27 25 24 28 21 19 17 12 11 14 15 19 22 20 23 21 21
11 7 13 17 9 3 8 8 8 14 11 14 15 21 23 19 21 22 23 7 12 14 18 36 12 22 30 28 27 28 30 27 18 24 18 13 8 9 5 9 15 20 18 23 21
9 10 4 13 6 8 10 14 17 11 11 7 6 10 21 18 6 14 10 9 9 12 12 3 16 17 25 26 25 30 28 28 26 20 22 17 10 13 7 1 10 14 16 16 18
7 7 6 8 6 11 12 13 15 7 9 7 6 8 18 17 17 11 9 11 8 10 13 9 17 23 20 24 23 29 31 30 27 19 19 20 17 12 10 8 5 3 5 9 14
5 5 6 7 11 11 12 16 13 12 5 10 0 6 10 8 17 8 10 13 18 4 10 7 15 19 25 19 8 26 29 31 31 23 25 16 21 15 15 10 10 12 8 5 4
4 4 7 11 14 10 13 15 13 9 13 16 8 4 13 11 10 12 15 12 6 13 8 7 13 19 22 21 8 14 19 33 28 28 23 23 17 15 12 8 5 6 6 5 8
3 10 5 8 11 11 10 12 15 18 11 9 10 14 12 9 12 14 15 18 16 13 13 11 10 9 15 17 12 18 19 16 20 26 25 21 19 15 8 6 4 4 6 6 7

GFSSW_925_spd_057.txt.gz
Wind_Speed
27 28 28 28 28 26 25 25 29 24 23 24 22 18 17 18 20 12 11 22 19 17 10 13 18 18 20 9 20 19 8 8 1 2 8 9 6 16 17 24 9 10 23 28 32
29 30 31 31 29 30 29 28 29 23 24 25 22 19 18 17 18 18 39 30 25 14 19 17 14 14 11 16 9 14 5 5 8 8 4 15 8 17 14 20 19 22 24 35 34
32 34 35 35 34 33 33 33 29 23 27 24 19 17 14 10 6 10 4 24 31 28 21 21 20 14 14 14 17 15 10 2 6 10 13 7 7 6 22 20 28 28 28 26 30
34 35 37 38 37 36 37 33 24 25 27 20 15 12 7 1 4 9 5 6 23 30 19 22 17 14 10 14 18 14 7 7 9 9 5 5 2 15 18 17 27 30 26 23 20
35 36 38 38 37 38 36 29 26 27 25 17 13 7 2 5 13 11 16 11 21 32 26 17 16 15 18 15 18 16 13 15 11 11 10 14 2 4 28 29 27 27 24 21 18
36 38 40 40 38 39 33 30 30 30 23 15 9 4 4 8 17 16 11 14 23 33 25 20 10 15 12 19 18 15 18 20 16 11 6 10 10 5 24 28 27 27 24 20 18
39 40 42 42 40 35 33 32 35 35 21 13 9 10 8 18 10 13 26 18 24 35 17 27 26 12 15 11 22 20 16 17 15 16 1 12 5 8 8 26 27 25 24 22 18
39 41 42 42 40 33 33 37 41 24 10 10 7 10 9 19 16 21 19 19 22 28 27 24 29 17 18 10 18 20 19 16 12 23 13 17 5 12 3 6 21 24 23 23 23
41 42 43 43 38 31 34 38 29 17 2 0 9 8 10 16 11 24 21 19 27 24 31 26 21 19 19 16 14 11 13 10 7 11 12 19 12 18 15 11 9 21 21 22 23
41 42 43 44 37 30 33 34 17 4 3 3 9 3 9 6 11 23 26 20 14 13 16 15 11 16 17 12 16 11 8 9 15 18 21 14 15 20 20 18 10 6 5 21 23
44 44 45 42 38 27 35 19 8 2 14 11 17 20 37 21 30 19 23 22 12 12 17 16 12 22 21 18 9 14 17 12 14 17 14 10 19 25 18 18 19 15 11 13 23
44 46 46 44 38 23 22 7 13 16 20 19 25 26 37 21 12 16 21 15 16 19 15 13 25 15 15 17 18 19 20 17 15 18 12 19 23 21 23 13 19 21 14 16 21
44 46 45 42 30 15 26 22 26 27 7 16 8 11 12 12 15 25 9 19 14 20 21 21 9 19 21 19 21 19 19 19 14 13 10 16 9 14 8 7 13 15 20 22 25
46 48 46 40 9 28 12 30 29 25 5 9 5 7 7 7 7 21 25 15 17 20 21 23 20 21 24 22 21 18 21 21 21 11 5 11 8 12 17 17 16 22 24 21 24
47 46 48 24 18 9 21 32 31 17 5 9 15 10 22 8 13 8 29 17 21 19 15 25 24 25 22 24 19 18 11 19 21 15 9 7 6 11 25 23 21 27 27 25 23
51 49 47 16 13 18 26 33 22 2 5 8 11 19 22 18 18 16 9 17 11 20 23 19 16 20 24 21 21 16 15 17 18 14 13 9 11 7 22 24 25 29 29 30 28
54 54 24 12 6 19 26 13 4 4 12 10 16 20 18 14 22 23 21 12 14 15 24 20 25 26 25 20 18 19 12 7 9 9 11 10 6 8 10 11 30 34 34 33 31
56 39 14 15 19 19 18 7 5 10 12 18 17 16 12 22 17 24 24 18 17 23 8 21 22 27 21 22 19 19 20 7 11 6 10 8 8 8 11 2 14 30 37 32 31
53 29 15 15 16 13 5 4 5 9 12 15 19 13 19 21 15 21 20 18 11 25 21 12 28 11 27 18 22 12 19 11 4 6 2 5 8 12 18 10 8 11 29 31 30
38 12 10 4 9 14 3 10 15 8 10 11 10 9 16 17 17 15 11 13 27 26 27 13 22 23 20 24 22 19 11 13 9 9 11 9 9 14 13 17 10 12 20 25 28
17 7 8 34 18 4 7 13 16 13 13 9 13 10 13 16 13 15 11 24 10 25 26 20 6 26 18 23 27 12 12 15 6 5 6 5 11 11 17 21 18 16 12 21 19
9 5 22 32 6 5 6 12 17 15 10 8 7 9 10 12 11 14 18 16 21 20 21 18 8 7 28 20 15 18 19 11 11 13 4 4 10 5 10 26 22 14 13 15 19
6 6 16 24 6 8 12 18 19 14 13 12 10 8 4 12 8 9 13 14 15 17 10 15 6 6 12 12 20 21 22 20 6 6 10 8 11 4 11 18 21 12 11 13 14
4 5 5 5 8 11 12 11 18 21 18 4 4 6 8 16 10 9 6 7 16 18 26 20 12 15 11 13 6 8 20 22 17 8 8 12 6 9 7 9 8 9 10 9 10
2 3 5 5 9 15 12 13 15 12 14 12 3 5 4 8 11 7 6 16 9 12 13 12 13 14 20 21 15 15 21 22 20 18 13 9 8 9 5 8 9 8 8 9 10
4 2 3 6 10 15 10 8 16 12 15 13 14 11 4 4 6 18 9 7 3 8 13 18 10 17 11 11 11 11 15 29 21 21 14 10 11 9 8 8 10 10 11 11 11
2 4 2 3 6 8 5 9 15 19 10 17 18 18 11 16 14 23 10 11 10 9 11 19 12 10 5 6 5 6 11 8 19 19 20 15 9 6 8 11 11 12 10 10 10

GFSSW_925_spd_060.txt.gz
Wind_Speed
27 28 29 29 28 27 27 27 27 24 20 21 22 20 18 16 18 10 11 20 25 10 8 20 17 15 15 4 10 3 3 5 5 2 4 6 13 10 5 14 4 8 10 31 32
29 30 32 32 31 30 29 29 26 21 21 23 21 18 15 14 14 16 37 29 25 23 16 20 10 12 4 6 4 7 4 7 7 8 4 9 12 9 8 9 10 15 24 31 31
33 35 36 35 34 33 33 29 25 22 23 23 18 14 11 5 4 10 3 13 31 25 25 20 16 7 7 4 8 9 6 6 7 11 6 4 9 10 17 7 21 28 29 23 26
35 36 36 36 37 35 33 31 28 26 26 22 15 11 5 1 4 3 6 4 22 31 24 13 4 7 7 11 10 6 9 15 9 7 5 5 3 11 12 8 19 30 31 25 22
37 38 39 39 37 36 33 32 31 32 32 20 10 6 1 1 12 9 4 2 27 30 24 13 9 7 8 8 13 12 17 10 11 6 4 3 7 14 8 20 21 24 25 25 20
38 39 41 40 38 37 34 33 35 39 29 13 4 4 3 5 9 5 15 10 33 30 21 14 10 11 4 11 8 5 16 12 5 7 2 9 5 6 13 22 25 26 22 22 23
39 40 43 42 41 38 34 34 36 37 27 8 7 7 4 17 5 1 11 20 28 40 13 27 21 8 9 4 22 17 15 10 12 10 3 13 7 8 18 19 26 23 20 17 16
39 41 43 43 41 39 34 33 38 27 13 4 8 8 9 13 15 20 9 14 22 37 22 27 24 3 3 6 7 6 11 13 16 10 10 7 1 9 20 22 23 24 20 18 18
42 43 44 44 41 40 32 33 28 12 9 9 10 7 10 16 5 13 16 12 24 27 25 13 8 6 2 3 5 2 7 7 14 19 14 7 12 11 18 20 21 22 23 21 18
43 46 46 46 41 38 29 25 24 4 5 3 3 4 7 4 14 27 14 20 8 11 3 8 5 5 6 4 9 5 4 6 10 5 18 8 13 13 13 20 21 21 21 23 21
44 48 50 49 40 28 26 15 8 5 2 9 17 11 29 21 22 10 8 16 6 6 8 9 9 16 18 10 8 6 7 10 8 16 25 23 22 20 19 11 20 22 21 22 25
45 48 50 49 37 15 21 4 8 12 13 12 15 19 35 14 8 14 9 8 7 11 7 4 20 12 8 9 14 13 14 16 14 10 10 20 23 25 23 22 17 23 23 25 22
49 53 53 46 25 12 16 10 27 26 2 10 5 4 7 6 6 10 0 5 6 7 12 17 8 17 13 17 17 16 16 14 13 6 7 14 5 11 12 9 11 17 19 20 22
50 52 54 37 5 21 11 27 33 21 4 7 4 6 10 5 2 9 9 8 6 15 8 15 17 14 20 17 18 16 16 15 16 5 4 12 5 12 16 21 17 16 17 18 20
53 53 47 13 10 8 18 32 37 2 4 5 7 8 9 8 8 20 22 4 12 12 9 18 18 20 18 27 17 15 10 12 13 5 4 11 1 7 18 20 23 23 21 19 19
55 54 32 5 11 13 25 35 5 5 3 7 6 11 14 15 9 16 13 14 5 11 16 13 14 18 24 13 18 11 9 11 3 4 8 10 9 5 15 29 25 21 22 21 21
56 50 17 9 5 20 27 9 5 3 8 6 6 8 5 14 8 15 13 16 13 10 8 6 23 16 17 16 17 15 6 6 4 6 9 10 6 14 24 29 25 29 24 23 21
56 42 14 9 14 20 15 5 3 7 4 2 4 3 5 15 4 14 7 6 17 8 5 6 17 19 12 20 13 12 17 9 12 5 9 4 9 12 13 26 26 26 27 25 25
54 34 13 25 25 17 5 4 3 5 6 8 6 4 5 8 6 9 8 4 9 16 8 8 7 5 18 18 20 9 16 14 4 2 1 4 7 7 9 12 14 26 26 25 29
36 14 8 35 25 1 4 5 4 5 6 6 5 3 5 6 6 9 4 8 5 14 12 3 9 16 19 10 20 24 7 6 3 16 10 5 6 12 9 11 9 16 27 29 28
12 4 8 39 19 5 2 3 5 13 16 4 3 2 5 4 4 5 4 8 17 14 12 4 4 14 12 11 14 15 16 5 6 5 10 4 10 8 10 11 11 15 25 26 28
8 4 18 31 5 3 3 7 10 14 15 5 4 5 3 3 3 3 3 4 13 13 9 8 5 6 12 10 5 7 10 13 9 11 3 5 14 6 12 12 10 14 25 29 28
5 3 12 17 4 4 5 7 7 14 11 11 6 4 3 2 1 3 3 4 7 8 5 6 3 7 11 3 3 5 5 7 5 5 9 11 15 5 7 7 15 21 19 27 28
2 4 4 4 3 2 5 4 10 10 6 12 14 2 2 4 2 3 4 5 3 5 7 6 3 10 10 16 17 11 17 9 9 7 7 12 21 8 14 12 16 11 15 20 29
1 1 1 4 5 9 7 5 8 7 4 4 6 10 3 2 5 4 3 4 9 4 3 3 6 13 20 23 24 24 22 20 14 14 13 11 9 8 10 11 10 7 10 18 23
0 2 3 3 5 8 4 3 9 11 8 10 6 12 4 6 8 6 6 5 7 6 4 3 5 14 21 20 18 19 18 12 11 16 8 7 8 9 9 7 4 7 11 13 22
1 2 1 3 3 3 3 8 17 16 8 5 9 12 12 11 8 12 15 14 8 7 4 3 1 7 7 7 10 2 14 10 3 11 7 16 11 3 3 9 13 6 17 13 9

GFSSW_925_spd_063.txt.gz
Wind_Speed
25 27 28 27 28 27 26 25 23 20 18 20 22 20 17 13 14 12 9 21 28 7 13 26 17 12 11 4 5 2 1 3 3 3 3 1 4 6 5 11 4 4 6 23 34
29 30 31 30 30 29 27 25 23 21 20 22 21 18 14 12 11 15 36 24 18 21 26 24 12 10 4 4 4 3 2 5 6 4 2 2 11 9 5 9 5 12 19 35 33
32 33 35 33 33 31 29 26 25 25 24 24 18 14 10 6 4 9 9 22 28 31 25 23 18 8 5 3 5 5 5 6 4 4 3 4 4 2 14 4 6 26 29 27 26
34 35 36 35 34 33 31 29 28 27 29 21 11 7 7 1 2 3 8 6 32 33 22 18 7 7 6 7 7 4 11 11 6 6 6 3 7 6 14 4 13 28 30 26 23
36 37 38 38 37 34 32 29 29 30 29 16 7 3 1 0 10 2 7 12 29 34 25 10 10 6 7 7 2 12 9 7 11 6 6 5 7 7 10 8 19 26 23 23 20
38 40 41 39 39 35 32 27 30 32 25 13 5 6 3 4 3 8 4 19 28 26 19 10 11 8 7 4 14 4 12 14 12 8 4 8 3 7 6 16 20 25 23 19 20
38 41 43 41 41 37 32 25 30 26 16 10 11 5 2 15 6 3 3 16 30 34 14 23 9 9 7 1 7 9 8 8 8 9 5 8 5 2 13 18 21 22 20 19 18
41 44 46 43 44 37 27 24 29 18 10 6 10 4 8 6 11 9 10 12 22 22 4 22 13 3 3 3 4 3 4 2 7 5 6 5 3 9 14 18 19 19 17 18 17
43 45 46 45 43 34 23 23 19 6 7 10 7 5 10 14 7 8 5 9 18 21 12 18 6 4 1 2 4 2 4 7 3 10 5 5 4 11 13 16 18 18 18 18 16
45 46 48 44 41 25 23 15 11 5 5 0 1 3 7 4 12 24 10 16 6 9 2 4 4 4 1 5 10 5 4 4 6 9 9 12 4 16 18 18 20 19 19 19 19
47 48 52 43 35 15 22 4 5 4 2 6 9 5 16 11 12 3 5 10 6 5 7 6 4 18 22 7 4 2 4 5 4 7 15 18 12 20 21 16 17 19 18 19 20
50 52 56 41 24 12 11 5 6 6 9 7 15 9 15 9 4 4 7 6 6 6 6 5 14 11 8 8 10 7 8 7 5 4 6 14 16 16 21 25 22 22 20 21 18
51 51 52 34 10 11 6 5 12 15 1 8 4 5 6 4 1 6 5 4 5 7 13 7 7 15 11 10 13 11 14 10 4 4 8 10 7 10 14 13 15 20 20 19 22
51 51 44 26 3 14 6 21 28 0 4 6 6 6 8 4 2 4 8 6 3 13 7 9 18 10 14 16 12 12 10 15 9 6 6 7 5 7 20 20 19 20 24 22 22
51 53 30 10 9 6 14 29 25 4 3 5 6 7 8 7 8 12 17 6 4 6 6 13 10 11 14 20 11 11 6 10 5 7 6 8 2 6 12 19 22 23 23 24 24
52 46 19 9 10 11 29 32 3 5 3 6 5 7 7 7 6 9 8 8 3 4 5 8 12 9 20 10 14 4 5 5 2 4 10 10 10 6 7 18 23 23 22 22 23
50 32 16 13 12 28 27 5 4 3 6 4 5 6 4 7 8 10 10 15 6 7 8 9 8 7 7 9 11 12 5 4 3 6 10 9 8 18 11 20 24 23 25 24 22
48 20 15 19 33 22 9 5 3 3 2 2 4 1 4 6 5 8 4 4 12 5 3 4 6 5 2 14 10 12 13 6 6 4 9 7 7 11 13 16 20 24 24 23 25
48 22 6 34 33 13 5 5 0 6 7 5 4 3 4 4 4 4 5 3 4 7 4 4 6 10 14 13 8 8 15 10 2 1 2 3 6 10 7 10 13 19 16 21 22
30 13 7 36 26 4 5 2 1 8 9 5 2 2 3 4 4 3 3 3 3 4 2 1 6 3 8 8 12 16 6 5 1 15 10 4 4 8 9 10 10 12 20 20 22
8 4 21 35 6 6 3 3 4 9 9 6 5 2 2 2 1 2 1 3 2 3 1 2 3 7 6 5 3 1 12 4 6 6 12 4 7 6 9 11 14 14 18 21 23
7 3 26 23 5 3 3 7 6 8 4 6 3 3 2 2 2 2 4 4 6 1 2 1 3 5 9 14 19 9 7 11 8 9 4 3 16 6 10 9 9 11 16 17 21
4 3 13 14 4 3 6 5 4 7 5 5 5 8 3 3 3 2 1 2 6 2 3 1 0 4 9 3 5 6 8 10 8 3 9 9 12 6 7 6 7 10 10 13 18
2 4 4 4 2 3 5 4 5 7 4 5 4 8 8 3 2 2 3 4 2 4 5 4 3 5 5 3 8 12 22 22 4 5 16 17 3 8 8 8 10 9 10 12 17
2 0 1 4 2 2 3 4 7 4 4 3 3 1 4 5 5 4 4 3 3 8 3 2 3 7 8 10 16 21 26 27 15 14 8 14 12 12 10 11 8 8 14 10 20
2 2 2 2 3 7 4 3 7 6 3 4 4 9 7 7 8 10 8 3 5 3 3 1 2 2 5 11 23 21 23 19 22 18 17 13 12 6 7 4 9 10 13 14 20
2 1 1 0 2 3 2 3 5 12 7 6 5 8 9 13 11 9 9 7 6 7 5 4 2 2 6 7 17 10 6 13 12 14 4 8 2 8 9 13 15 15 13 6 17

GFSSW_925_spd_069.txt.gz
Wind_Speed
27 27 27 25 25 24 22 19 17 15 15 14 18 16 14 11 10 4 8 12 21 13 23 21 16 16 10 8 5 3 2 4 2 2 2 5 4 6 8 15 4 9 7 20 30
28 29 29 27 27 25 23 21 17 16 16 18 18 14 8 8 7 12 11 9 14 23 26 27 17 19 6 7 5 5 3 5 2 2 1 7 7 10 8 14 6 7 14 30 32
31 31 31 32 28 27 23 22 19 15 17 17 14 10 4 5 4 3 9 9 21 29 23 19 22 12 8 7 8 6 4 4 3 3 4 6 6 7 11 10 11 19 24 28 32
33 34 33 35 31 29 25 22 18 16 17 15 11 4 2 1 2 3 14 7 28 25 23 18 15 11 8 8 10 6 10 7 2 3 5 5 7 7 14 1 12 20 28 29 24
34 34 35 37 32 30 25 21 17 17 15 11 7 3 2 2 6 15 10 16 26 27 28 18 18 11 12 9 6 13 7 5 8 10 7 4 9 4 11 4 16 21 27 27 25
36 36 39 38 34 28 22 19 19 18 11 6 1 6 2 3 2 11 5 18 23 26 25 18 14 8 8 3 11 4 16 10 8 9 7 8 6 8 4 13 19 23 27 26 25
38 38 40 38 33 26 19 20 22 11 6 5 5 2 1 7 4 9 4 11 19 15 19 13 11 12 6 6 6 9 2 5 10 7 5 6 6 8 12 16 20 22 23 25 24
41 41 41 35 30 21 21 22 10 5 7 7 9 1 4 3 5 1 9 7 12 6 14 4 4 7 3 1 2 6 6 4 3 11 5 10 5 6 15 17 19 21 22 23 24
43 42 41 33 26 18 21 12 8 8 9 9 2 1 3 8 3 5 3 6 15 8 3 10 4 4 4 4 5 5 9 15 5 10 6 11 4 10 14 16 18 20 21 21 22
43 43 39 32 20 16 15 6 7 5 2 4 3 3 2 7 8 4 2 15 7 13 5 8 7 7 8 10 11 11 13 7 14 9 12 13 9 12 16 17 18 19 20 21 22
42 42 39 28 12 15 14 3 4 1 4 3 7 3 6 15 3 2 7 11 9 14 11 8 13 21 21 15 10 7 5 12 7 8 13 16 15 13 16 15 18 19 21 22 24
41 41 36 23 9 10 19 6 8 4 7 1 4 6 7 4 4 9 5 4 8 12 10 6 19 17 15 12 15 12 6 8 9 5 9 12 17 12 18 21 21 21 21 22 21
40 38 32 15 9 10 10 9 8 2 3 5 2 4 3 2 4 9 2 2 10 11 18 12 2 16 16 14 15 18 18 9 6 4 9 5 11 12 15 14 17 19 19 19 22
39 37 26 12 3 11 2 19 22 10 1 4 5 6 5 3 1 6 6 4 6 13 14 12 13 13 18 23 18 19 15 14 11 5 9 10 11 10 15 19 20 20 21 22 23
40 36 16 11 5 3 13 21 3 5 2 5 5 6 8 6 8 4 7 2 5 9 9 9 10 15 16 19 18 13 8 16 18 13 11 12 7 14 13 16 21 22 23 23 23
41 37 8 8 8 13 20 4 3 2 2 2 4 7 5 7 7 9 8 5 1 1 3 12 1 11 13 14 18 11 5 11 12 13 17 19 12 14 13 18 18 20 23 24 25
40 26 3 7 10 21 13 2 2 2 2 4 5 5 3 6 5 8 5 11 5 2 1 2 12 6 6 11 17 16 13 5 8 11 17 16 15 17 8 17 18 19 22 25 25
40 8 11 9 23 13 2 1 3 3 3 3 5 2 1 6 4 6 2 2 8 4 2 3 8 10 4 10 10 21 18 8 12 12 15 16 12 15 23 14 10 14 18 22 24
32 2 8 25 16 2 1 2 2 3 4 6 6 2 1 1 4 2 3 1 4 7 3 2 4 3 3 1 7 11 21 19 9 2 9 14 17 16 7 17 18 17 14 19 23
15 5 9 33 9 2 3 5 3 5 6 2 3 2 3 1 3 2 2 2 3 3 1 2 5 1 3 4 11 9 7 16 13 19 13 8 17 13 20 20 14 11 16 18 20
5 1 18 24 6 6 4 3 3 7 8 4 3 4 2 2 2 3 1 2 2 1 2 1 2 2 4 5 7 8 10 8 9 17 15 10 9 5 17 15 20 23 20 17 18
5 1 24 18 4 3 3 3 5 7 9 4 1 3 2 4 2 3 3 3 2 0 2 1 1 5 5 2 8 6 5 10 11 13 15 16 17 2 8 7 6 9 13 16 17
3 3 15 11 4 4 3 3 3 7 5 5 4 4 4 3 4 2 2 2 2 1 1 2 1 4 6 4 4 2 2 0 2 1 13 13 13 9 18 18 11 12 11 7 13
1 3 5 5 4 6 5 5 5 6 3 4 3 2 2 4 1 4 4 3 5 4 1 2 3 8 8 9 8 5 3 2 4 10 16 16 14 9 10 14 12 9 7 5 5
3 3 2 4 7 7 3 4 8 5 4 3 1 0 1 2 4 5 5 4 3 8 2 2 5 8 15 14 14 16 18 15 12 9 10 15 16 14 12 13 14 9 8 9 8
2 2 2 2 2 4 4 3 3 5 3 2 2 1 7 6 7 9 8 7 6 0 2 1 3 5 15 10 11 17 18 18 17 18 12 16 16 7 12 10 10 9 10 9 11
2 2 0 2 1 2 3 2 1 7 5 8 7 9 10 9 6 9 10 12 11 5 5 3 2 3 8 9 14 11 16 19 13 8 15 13 10 10 9 6 10 13 11 11 12

GFSSW_925_spd_075.txt.gz
Wind_Speed
26 26 26 27 25 22 21 20 16 13 11 13 15 14 14 11 8 8 11 6 16 9 19 17 21 21 19 15 15 10 10 7 5 8 8 11 5 1 15 10 5 5 11 27 35
27 28 29 29 27 25 23 21 17 13 11 11 15 14 13 8 11 17 12 12 13 18 19 25 21 19 15 18 12 14 12 0 6 13 13 15 14 10 8 11 8 9 20 33 36
28 29 30 31 28 26 25 20 14 11 11 12 13 13 8 3 12 5 9 13 14 26 21 21 20 18 18 14 18 17 15 11 24 9 8 5 16 18 9 13 15 17 25 28 33
29 30 31 31 28 25 23 18 15 12 13 13 11 8 3 6 1 9 8 7 15 24 23 22 19 19 18 18 16 17 13 14 13 2 5 8 4 11 10 5 14 22 25 27 28
31 31 32 32 28 24 20 18 18 17 14 10 7 3 2 8 2 5 6 7 17 22 26 21 20 19 18 16 15 18 17 10 12 5 6 6 15 0 14 11 18 23 26 27 25
31 32 33 32 29 23 18 19 17 12 6 6 3 3 7 11 4 6 3 10 20 27 26 23 15 18 13 16 15 10 18 14 10 10 8 10 12 7 15 12 18 22 25 26 26
31 32 33 32 28 19 17 16 13 7 4 4 4 5 9 5 3 3 3 10 16 26 19 22 18 16 9 15 12 16 11 16 17 12 8 11 12 15 17 14 19 20 22 25 25
32 32 33 30 22 18 20 11 7 5 7 3 3 7 2 2 2 3 5 9 13 19 19 18 15 14 18 7 5 16 18 16 20 19 17 15 18 17 18 17 19 20 21 23 24
32 31 32 28 16 18 20 7 6 4 3 3 4 8 6 3 7 2 4 9 15 14 13 13 13 14 17 13 12 14 16 21 18 22 18 17 10 12 18 16 18 19 21 21 22
31 31 30 25 15 15 16 6 9 4 2 7 9 8 3 4 2 3 4 6 14 12 14 11 10 16 17 14 15 18 19 19 20 19 21 19 10 21 29 18 18 19 20 22 23
32 30 28 23 14 11 18 6 6 7 17 5 6 5 3 5 7 6 8 14 16 13 15 18 15 19 23 20 21 15 17 21 18 16 17 22 16 17 15 18 19 19 20 21 24
32 30 28 19 10 10 12 7 6 6 5 5 1 3 1 3 6 4 10 11 12 16 18 14 21 20 19 17 19 20 14 16 20 17 16 19 17 20 17 17 19 19 19 21 22
31 31 27 15 9 10 4 7 7 5 7 10 3 2 0 8 2 5 9 12 11 18 21 21 11 20 20 18 17 18 18 15 16 15 18 16 20 19 8 15 18 18 20 20 23
30 33 22 11 6 4 3 10 7 5 6 12 10 5 6 3 6 1 4 10 10 17 20 21 20 8 22 20 17 18 17 18 16 17 16 20 16 22 27 27 19 17 21 21 23
30 29 13 6 11 4 8 10 3 7 6 2 6 5 2 10 2 9 2 8 14 13 14 21 20 21 16 20 18 18 16 17 18 16 16 19 18 17 24 20 22 21 21 23 23
31 16 3 3 6 5 9 8 6 8 1 7 2 1 8 5 4 0 6 6 6 11 15 18 18 20 25 16 15 18 17 16 16 15 17 23 20 19 17 22 22 23 23 23 24
27 2 2 4 8 12 11 7 7 7 4 7 3 3 5 1 6 6 7 11 9 11 14 17 20 20 17 20 21 16 19 13 14 14 18 23 23 17 18 21 19 27 24 24 24
17 7 6 4 13 9 9 8 7 5 7 4 2 5 9 4 9 7 9 11 11 11 15 14 17 23 20 20 22 21 21 13 21 16 17 23 25 21 20 11 8 19 24 23 24
6 6 4 10 7 5 7 9 7 10 6 6 10 9 9 6 8 1 7 12 8 9 13 11 18 6 23 22 23 24 22 23 23 21 18 18 26 20 27 21 15 14 20 23 24
10 6 6 12 4 8 7 3 4 8 8 6 11 2 6 2 3 5 2 6 2 4 8 8 12 14 10 12 15 21 16 22 17 23 23 18 19 19 23 22 23 14 15 19 25
7 5 9 10 6 7 6 7 5 7 7 5 5 6 6 7 7 10 8 7 3 7 8 13 8 18 10 8 18 17 19 16 17 21 18 15 13 13 23 19 17 22 17 17 18
6 4 14 8 6 3 5 5 3 4 2 2 3 5 5 6 8 12 10 3 7 9 13 10 9 14 20 16 20 24 19 27 15 21 20 16 13 8 14 19 20 19 21 20 19
3 5 12 12 2 6 6 8 6 4 6 4 2 4 4 8 4 7 7 8 7 10 7 11 10 13 17 15 18 17 19 19 24 22 21 18 16 10 5 2 10 20 17 12 7
4 1 5 7 6 6 5 5 4 5 3 4 5 4 6 7 5 6 6 5 7 12 10 9 14 18 15 6 12 12 24 22 19 17 22 19 19 16 12 8 10 11 11 11 8
5 5 5 6 7 7 6 1 3 4 3 2 4 5 6 5 4 6 7 10 6 13 10 12 18 19 19 19 16 14 15 13 16 18 19 18 19 15 10 12 13 6 4 5 5
3 2 4 5 2 4 3 7 6 5 2 6 2 2 6 6 9 14 14 12 10 4 10 14 12 17 19 19 16 19 17 18 19 20 22 22 19 19 15 9 2 2 4 6 6
6 3 3 1 3 3 8 7 6 4 4 3 2 9 7 7 8 13 14 14 14 12 11 6 8 11 17 18 20 22 23 20 21 22 21 21 18 17 11 6 12 11 5 7 9

GFSSW_925_spd_078.txt.gz
Wind_Speed
27 28 29 30 26 24 22 21 18 13 13 13 13 15 15 14 12 8 11 7 15 12 12 12 17 21 20 18 17 14 11 10 9 8 4 2 14 7 3 10 11 4 21 29 38
29 29 30 31 28 26 22 20 15 13 11 12 14 15 14 11 11 19 14 15 10 14 15 20 17 19 15 19 15 14 13 10 8 10 2 16 4 11 6 9 14 14 24 39 38
29 30 31 31 30 28 24 18 15 14 13 12 14 14 10 4 10 4 8 17 15 17 21 21 19 19 17 16 18 17 14 7 8 17 18 16 14 17 5 17 19 22 25 30 32
29 30 31 32 31 28 24 18 17 18 15 15 12 10 6 5 2 8 1 6 16 17 20 24 18 17 17 19 17 18 18 10 14 20 16 11 9 7 22 9 3 24 25 29 28
30 31 31 32 31 27 21 19 19 17 14 10 7 5 2 8 5 5 2 5 12 17 23 20 20 18 17 17 19 17 16 15 15 19 15 13 9 3 2 15 11 24 25 27 26
29 31 32 32 31 23 20 21 18 14 11 7 5 4 6 12 4 1 3 10 13 22 21 24 15 16 15 19 16 16 15 17 15 18 12 17 12 8 21 21 19 23 24 24 26
29 30 31 30 29 21 21 21 14 10 7 7 6 5 11 12 4 5 6 10 16 23 18 24 21 16 16 13 14 15 18 12 16 15 11 10 13 12 20 23 25 23 23 23 20
30 30 30 29 26 21 21 20 9 8 9 2 4 6 8 4 5 6 8 11 14 19 24 19 19 14 16 13 17 13 17 16 16 18 14 9 14 15 16 14 23 24 24 22 21
30 30 29 29 24 21 20 20 11 8 7 4 4 9 5 4 8 2 7 10 12 17 21 18 13 14 13 17 14 13 14 19 19 20 18 15 8 9 18 10 22 21 23 21 19
30 30 29 27 22 19 21 21 14 12 9 9 16 10 7 2 4 2 3 7 12 15 11 12 9 13 14 14 15 16 17 18 17 18 19 18 12 13 20 17 11 22 21 22 21
30 30 29 28 18 16 24 8 4 6 12 12 3 6 3 6 5 7 7 10 13 11 14 17 11 16 19 20 20 20 20 17 17 18 19 16 16 15 9 3 11 15 20 25 23
29 29 29 26 18 16 19 7 8 7 10 8 4 5 3 5 5 5 8 10 11 14 16 14 19 18 18 20 21 21 21 19 17 18 17 18 19 20 12 10 28 29 21 21 25
29 29 30 21 15 12 11 7 9 7 7 12 10 3 2 7 3 8 8 11 12 15 17 19 15 21 21 18 19 18 19 18 17 17 16 16 15 15 9 3 13 25 24 22 23
29 31 25 17 9 8 1 8 9 2 5 13 9 4 8 5 6 3 4 10 11 13 17 19 21 18 20 21 18 19 16 19 18 16 13 17 15 26 20 14 17 10 10 24 22
29 29 16 8 13 7 9 10 7 5 5 9 10 5 0 10 4 8 1 7 12 13 11 17 21 21 19 17 21 18 16 14 16 18 18 22 14 9 26 25 13 15 23 21 25
30 20 11 5 8 8 11 11 6 6 2 5 3 6 10 8 6 3 5 7 10 10 16 16 17 20 22 18 14 16 17 18 17 15 16 20 18 17 17 19 14 22 26 21 26
28 12 7 9 9 14 12 9 6 7 9 8 4 4 4 8 3 4 8 11 9 9 13 16 19 20 17 19 22 18 15 12 14 14 16 19 19 14 15 28 26 25 25 25 23
25 9 11 10 11 12 9 7 7 8 16 6 3 2 5 8 5 5 7 10 11 11 13 14 11 21 17 20 20 18 19 14 18 13 16 20 19 18 23 21 29 31 24 28 26
21 9 12 6 8 6 6 9 6 12 14 6 10 10 12 7 3 5 7 13 6 14 9 10 14 18 13 24 20 20 21 21 23 20 17 17 17 23 21 18 8 9 6 10 16
15 14 5 9 4 9 7 9 7 10 9 8 7 5 12 4 3 6 6 7 5 9 10 10 17 19 15 16 25 21 18 20 15 21 22 19 19 15 19 19 19 16 7 5 16
6 6 7 9 6 7 8 8 8 10 9 7 8 7 7 9 9 8 7 7 7 7 10 13 12 20 19 11 15 13 19 21 14 17 16 15 15 15 23 21 18 21 21 21 24
10 2 10 5 7 3 11 7 3 7 5 5 4 5 7 9 7 6 8 8 12 13 8 16 8 14 18 20 14 14 18 19 12 15 14 16 16 17 13 22 19 13 21 22 19
5 4 8 9 5 8 5 7 9 10 8 7 5 7 8 5 5 4 4 15 14 9 11 12 7 11 15 16 19 15 17 20 20 19 20 15 18 6 10 6 17 16 11 5 23
5 1 4 7 8 7 2 4 6 5 5 3 5 3 6 4 5 3 5 4 3 5 8 8 12 17 16 14 18 15 19 22 20 16 18 19 19 2 6 22 12 15 15 13 12
4 6 4 8 8 9 8 4 3 6 5 7 6 9 6 4 7 2 3 5 5 3 3 8 15 18 22 22 23 21 21 18 18 22 20 18 18 14 20 23 16 10 11 12 10
6 5 5 6 5 1 3 7 6 3 4 5 2 1 5 5 6 10 11 11 11 8 7 3 13 13 20 22 19 24 23 21 19 15 19 19 18 18 3 12 18 16 16 15 14
5 7 2 2 9 6 7 9 3 5 3 3 3 7 10 9 10 12 13 14 15 14 12 9 8 8 12 17 20 20 23 19 19 18 16 18 16 8 10 7 11 17 9 15 17

GFSSW_925_spd_081.txt.gz
Wind_Speed
27 28 28 30 29 27 25 21 17 15 15 14 13 13 16 16 15 8 8 12 11 7 9 6 11 14 17 7 17 15 4 4 5 7 6 11 7 5 6 7 16 7 20 32 35
28 29 29 30 30 29 26 21 17 16 15 16 14 14 15 13 11 15 15 10 10 13 7 10 9 13 8 12 8 10 5 6 7 6 4 5 7 14 7 6 9 16 24 36 32
28 29 29 30 31 30 26 20 17 18 18 16 15 14 12 6 5 6 5 17 17 12 13 15 17 12 10 9 12 11 10 10 6 8 4 8 18 14 6 12 13 27 30 24 27
29 30 30 30 30 29 23 20 20 19 17 16 13 10 6 2 3 4 1 12 19 13 11 13 13 9 9 12 15 12 17 12 15 7 5 3 3 4 8 10 21 30 31 25 21
29 30 30 30 30 28 22 22 23 17 14 12 8 5 2 4 8 3 1 9 12 16 16 12 9 11 12 9 13 14 13 13 18 17 12 13 10 5 10 17 15 25 25 23 19
30 30 30 30 30 28 22 23 23 14 11 9 7 3 2 5 1 4 3 9 11 16 15 15 10 13 9 12 11 12 14 13 21 15 7 8 8 13 17 5 13 26 25 19 16
30 31 30 29 29 27 24 21 20 13 8 11 5 2 6 14 6 7 6 12 11 18 9 21 25 15 7 9 11 9 9 8 8 16 14 21 15 10 12 2 10 18 21 21 18
30 31 30 29 28 28 23 20 19 14 10 6 2 4 7 7 10 6 10 15 13 17 21 24 24 17 7 7 11 8 7 6 9 8 12 21 9 14 12 15 12 14 17 21 22
31 30 30 29 27 27 24 22 20 12 8 3 0 5 7 8 4 8 6 12 17 17 21 22 19 10 8 4 6 7 6 8 11 13 10 10 13 15 18 14 12 17 17 18 17
30 30 30 29 26 25 24 25 14 9 4 5 9 6 9 2 3 3 6 8 8 9 11 13 7 4 4 3 6 8 6 8 9 12 13 10 15 17 19 20 18 14 18 14 10
30 30 30 31 25 20 26 9 1 1 5 7 5 6 2 7 3 7 4 6 5 7 8 6 3 6 8 9 11 14 13 10 9 13 8 15 15 20 20 14 12 10 5 15 12
30 30 32 30 21 16 14 3 7 6 7 14 17 6 3 9 6 7 7 6 5 5 5 6 9 7 10 14 12 16 14 14 12 10 9 15 16 16 15 7 14 15 13 9 17
30 31 33 25 17 13 8 11 9 7 3 8 9 9 4 4 5 8 6 8 7 7 9 10 11 17 14 12 14 13 10 10 10 17 9 13 6 5 5 4 7 11 13 8 12
30 31 29 22 9 10 9 6 9 3 3 5 7 2 3 5 3 6 4 4 4 8 10 8 12 15 12 15 13 8 9 10 11 8 4 4 5 11 14 10 11 9 6 7 14
30 30 23 10 14 8 13 14 10 4 2 10 6 4 2 2 6 3 5 4 7 10 4 8 10 12 13 11 13 11 10 8 6 8 6 17 2 6 9 12 18 18 20 21 27
31 27 20 4 10 11 17 15 11 2 2 5 6 6 5 7 1 6 6 4 6 6 10 9 11 6 8 13 11 5 8 9 6 2 4 11 3 2 12 20 18 23 26 26 29
32 22 14 9 5 13 17 8 2 4 8 5 6 4 7 7 5 4 2 3 4 2 5 8 10 10 11 8 10 4 3 4 4 4 6 9 8 9 22 17 19 25 26 26 19
31 16 9 15 8 15 14 3 2 10 12 7 5 3 4 5 4 4 2 5 6 8 4 3 8 4 6 8 6 7 6 5 6 4 8 9 6 10 12 19 19 22 28 19 22
23 7 7 10 11 10 2 3 5 8 10 12 11 3 5 3 4 3 3 5 6 12 5 7 7 17 15 18 6 8 7 11 6 9 8 7 8 11 15 7 21 18 14 19 20
17 7 10 6 2 7 2 3 6 9 9 7 5 5 7 10 2 5 3 17 9 10 8 8 5 6 15 13 9 4 6 3 4 4 7 7 10 5 10 19 17 19 17 10 3
3 3 5 8 4 2 3 5 9 10 9 8 9 7 10 10 8 7 9 14 16 14 10 12 7 10 9 5 11 15 7 5 2 4 9 4 8 6 20 11 17 21 19 20 11
8 1 6 4 2 1 6 3 6 8 12 5 4 8 7 9 7 7 10 8 12 13 5 8 3 5 14 18 16 14 15 2 2 7 3 2 8 16 21 21 19 21 20 20 28
5 2 9 12 4 6 5 8 7 11 10 11 11 9 8 7 5 6 6 9 11 7 4 7 4 5 10 6 6 7 18 22 6 5 6 3 6 10 20 25 28 19 6 13 13
4 3 5 7 8 12 6 6 5 7 9 6 8 6 8 3 4 4 6 6 7 10 7 2 3 3 5 13 12 15 22 21 17 6 7 10 12 11 15 21 25 28 28 3 11
3 3 5 5 6 7 9 10 11 6 8 8 5 10 7 6 8 7 9 9 10 6 4 3 3 7 11 14 16 20 18 20 19 16 8 10 11 6 9 11 17 17 17 20 16
3 3 3 2 8 7 10 9 8 8 7 6 6 5 2 3 6 7 9 7 4 9 7 2 1 5 7 13 15 19 20 18 20 18 15 12 4 4 12 17 19 20 19 16 17
10 8 2 4 10 7 6 7 5 7 5 4 6 4 7 11 8 7 7 7 7 6 6 1 4 1 3 9 14 12 11 16 19 18 15 10 10 9 9 12 14 15 18 16 16

GFSSW_925_spd_084.txt.gz
Wind_Speed
25 27 26 27 26 26 24 19 15 15 15 15 13 12 13 15 14 8 7 8 11 12 10 9 11 9 7 3 7 1 2 3 3 2 3 2 5 8 6 10 7 10 12 27 34
26 26 27 27 27 27 24 19 17 16 16 16 14 13 13 12 11 11 13 10 11 12 9 9 6 8 3 5 3 5 4 4 1 4 4 2 6 11 1 11 2 6 22 29 32
27 27 28 27 27 27 25 19 19 18 15 16 14 11 9 6 4 6 5 17 15 8 12 10 8 4 4 2 6 4 6 6 5 6 9 6 6 2 4 5 8 19 24 25 26
28 28 28 28 27 26 25 20 20 19 14 12 12 7 3 2 1 2 3 14 14 12 12 5 2 2 5 6 7 3 8 9 11 12 11 8 4 7 5 2 4 20 24 26 20
28 28 28 28 27 27 25 21 20 18 12 9 8 3 2 0 8 5 4 11 15 17 13 6 5 5 3 6 7 9 14 10 12 11 9 14 7 4 6 3 5 20 22 22 19
29 29 29 28 28 27 26 21 18 16 11 9 7 0 1 2 2 10 10 13 11 20 13 10 8 8 4 8 6 4 7 10 17 12 13 12 7 6 4 3 15 20 21 18 19
30 29 28 29 28 28 27 20 17 15 11 10 4 2 1 10 2 8 11 10 13 21 7 24 10 3 4 6 8 9 6 4 13 16 8 16 6 2 4 6 20 18 16 16 15
29 29 29 29 28 29 27 20 17 17 8 5 1 2 6 7 6 11 16 12 13 16 20 12 14 6 5 8 6 4 3 3 5 18 11 5 4 8 4 9 18 18 16 16 13
28 28 28 29 29 28 26 19 21 8 3 0 2 2 8 5 5 8 14 10 18 15 17 4 4 6 3 3 5 7 2 4 7 20 10 9 5 11 17 14 22 17 17 15 13
28 28 29 30 28 25 23 21 6 2 3 1 6 3 7 4 5 4 5 1 7 5 1 2 2 2 3 5 3 4 3 5 4 3 7 11 6 21 16 11 16 21 18 13 16
28 28 31 32 25 21 21 3 4 3 3 7 4 4 6 1 3 1 4 1 5 5 4 4 4 3 7 5 6 4 4 8 14 10 6 16 14 23 18 10 11 12 18 19 13
28 29 32 32 22 13 10 2 4 5 7 8 14 11 24 7 2 4 6 3 3 4 2 3 2 8 7 6 7 6 7 12 11 5 2 9 13 15 16 14 13 15 13 18 21
28 30 32 28 15 5 8 10 13 12 1 7 6 5 5 4 3 6 5 4 2 5 5 6 9 8 6 6 6 6 6 11 10 6 8 12 8 12 11 10 11 14 18 17 20
28 29 30 25 4 14 6 20 13 4 4 6 4 5 3 3 2 5 5 3 1 9 7 6 14 10 9 8 6 7 7 10 6 3 1 4 3 8 14 13 13 19 18 14 14
27 29 24 13 12 6 13 20 20 4 3 4 2 1 3 4 4 1 1 3 1 2 5 7 4 6 6 10 7 11 10 7 2 3 5 3 5 4 14 12 14 23 21 19 22
29 24 19 5 11 9 19 24 6 5 2 4 4 4 3 1 3 5 2 3 1 2 2 6 4 5 5 5 5 7 4 7 5 3 4 7 4 2 13 26 20 20 18 20 19
27 15 12 8 4 11 20 5 5 2 6 9 1 3 4 4 3 4 4 4 3 2 4 6 5 6 7 5 6 3 6 3 4 4 5 2 4 8 19 18 25 24 19 23 20
18 6 4 10 7 12 11 5 8 7 6 5 6 4 3 4 4 4 5 6 8 4 4 4 6 8 6 1 3 3 7 5 5 3 4 6 4 5 11 16 22 23 22 21 14
16 4 5 4 7 6 5 6 1 5 6 7 8 7 8 5 4 6 9 11 10 8 5 4 4 4 6 7 2 8 2 7 6 1 4 3 8 9 17 15 10 23 20 24 17
9 6 6 5 3 4 5 5 3 5 6 6 7 7 7 8 6 5 6 8 5 14 5 6 3 4 8 7 8 7 6 3 3 5 3 4 5 3 16 20 21 12 22 24 16
5 4 4 3 2 5 4 2 5 11 11 7 6 5 4 3 4 5 4 4 7 5 9 4 4 8 4 6 4 7 8 6 1 4 6 2 3 6 12 16 20 20 21 20 19
5 4 22 2 4 1 3 3 5 7 9 7 5 7 4 6 7 5 5 3 5 3 4 4 4 2 5 5 3 6 8 6 4 7 3 3 1 4 12 21 24 20 4 7 13
2 2 22 17 4 4 4 4 5 5 7 5 7 6 4 5 5 6 4 2 7 5 3 5 4 4 9 7 8 5 12 7 4 2 2 2 3 7 15 21 23 27 22 17 16
2 4 4 5 1 5 5 5 4 8 9 5 5 7 7 8 7 6 6 7 4 7 9 7 4 5 4 6 5 9 14 10 3 2 7 3 12 9 13 17 19 20 21 20 19
3 2 3 3 6 8 7 5 10 5 5 8 7 7 5 7 5 6 6 7 6 11 5 5 3 2 0 6 5 10 12 10 6 6 1 9 14 6 7 12 14 15 15 17 16
2 3 5 2 3 9 7 6 7 6 5 5 6 8 10 5 3 4 5 4 1 6 3 4 1 2 4 4 8 8 8 6 6 8 8 7 2 7 3 9 16 15 15 15 15
8 6 4 6 4 5 2 2 5 4 6 5 3 4 7 5 4 3 3 4 5 1 1 3 4 3 3 4 8 5 7 10 5 10 5 6 7 13 6 11 12 12 14 14 12

GFSSW_925_spd_087.txt.gz
Wind_Speed
23 23 24 23 23 23 21 18 17 17 16 15 14 13 11 12 13 6 7 7 13 12 17 19 11 8 8 3 4 3 2 3 3 5 6 6 1 6 11 12 4 2 9 21 30
23 23 24 24 23 22 21 18 16 18 17 15 13 12 10 10 10 10 9 13 18 20 20 17 7 9 2 4 4 4 3 5 2 5 10 12 5 5 5 4 7 13 23 28 29
24 24 24 24 23 23 21 18 16 17 16 14 12 9 5 5 3 6 4 20 25 20 14 13 13 6 2 4 5 5 4 5 2 7 16 15 11 4 2 4 4 21 24 24 27
25 25 25 24 24 23 22 19 16 15 14 12 9 5 1 1 2 1 3 21 19 17 11 10 4 6 4 5 5 3 6 5 6 9 9 11 13 10 9 2 3 16 19 23 22
25 25 25 25 24 24 22 21 15 12 11 9 8 2 1 1 7 5 12 20 17 18 13 6 5 5 5 4 3 4 5 8 8 11 6 9 6 5 6 4 2 18 18 18 16
25 25 24 24 25 24 23 20 15 10 9 7 7 2 1 2 2 9 15 19 18 18 11 8 8 6 2 4 3 4 6 8 11 10 7 8 7 6 7 7 9 17 19 17 16
26 25 24 25 25 25 23 19 14 10 8 5 3 3 1 9 2 13 15 16 19 25 6 13 4 3 0 5 4 8 7 4 8 10 7 9 2 5 11 11 14 18 16 17 16
27 26 25 26 26 26 22 17 13 13 4 1 3 2 6 4 4 12 15 5 10 20 5 16 7 1 2 4 5 2 4 3 3 10 8 6 4 11 13 16 14 17 18 17 17
28 28 27 28 28 24 21 16 10 2 8 7 4 2 8 7 5 9 19 7 12 12 14 7 9 5 1 1 4 6 1 1 2 9 5 9 4 6 7 15 15 16 19 18 16
28 28 30 30 27 23 18 6 7 9 9 3 2 2 5 3 3 7 14 16 5 7 4 3 2 2 3 3 3 1 2 2 2 7 3 8 8 4 6 8 17 17 16 19 19
27 28 30 31 25 17 13 4 3 3 3 6 3 4 6 9 3 4 8 8 5 4 5 3 4 4 6 6 4 3 3 2 4 7 6 15 9 11 11 4 15 15 18 17 21
28 28 30 28 19 8 6 3 1 0 6 8 7 7 13 6 3 2 4 4 5 4 4 5 3 7 1 4 4 2 1 5 6 4 6 3 4 6 11 9 15 18 18 19 18
29 28 28 26 9 5 7 4 22 6 2 7 5 4 5 8 5 3 5 3 4 4 4 5 4 3 4 3 2 3 3 4 6 2 5 8 3 2 2 3 3 6 14 16 14
28 27 25 21 1 11 5 19 20 0 4 5 3 5 3 3 3 2 5 4 2 8 7 3 3 5 4 5 6 5 7 7 4 3 2 3 2 5 8 10 11 10 13 13 15
30 25 19 9 8 4 9 20 12 4 4 2 2 1 2 4 5 1 1 4 4 4 6 6 2 5 5 9 6 9 5 7 5 3 3 3 4 3 8 11 18 20 13 13 13
25 19 14 4 7 5 16 14 3 4 3 2 2 2 4 3 1 2 4 7 2 4 2 5 1 3 6 3 9 7 4 6 4 4 2 4 5 4 6 20 17 16 16 16 15
18 12 7 4 3 8 16 3 5 5 6 8 4 1 4 1 2 4 6 10 5 3 4 4 4 5 6 3 4 5 6 2 2 2 5 5 3 2 9 11 16 19 20 20 17
11 5 5 10 10 14 7 5 9 5 4 4 4 1 5 2 7 7 4 6 7 6 4 3 2 7 7 2 1 3 6 5 5 4 4 6 5 1 6 8 10 13 14 13 16
7 6 7 7 7 1 5 6 0 3 5 7 4 7 7 7 5 6 5 5 6 5 5 2 2 5 4 6 2 3 5 0 6 4 4 2 3 5 22 15 15 14 12 17 20
6 6 7 12 4 4 5 4 3 5 5 5 5 5 7 8 5 5 5 5 5 9 1 1 2 3 6 6 8 7 2 4 4 4 3 4 4 3 17 20 20 19 15 11 16
5 4 20 8 2 6 4 2 3 5 4 6 5 5 2 3 4 3 2 4 5 4 8 2 3 6 3 7 6 7 6 5 3 3 5 3 2 5 10 11 15 19 24 7 15
4 5 24 3 4 2 3 2 3 7 6 6 4 4 4 4 6 4 4 2 5 2 4 5 3 3 3 7 10 16 5 3 4 5 2 3 1 7 8 9 14 19 21 22 18
3 2 16 7 4 3 4 5 6 7 7 5 7 5 6 4 5 4 4 7 8 4 2 3 4 3 4 6 8 7 7 5 3 2 2 1 2 8 9 10 13 19 18 19 19
3 4 5 5 2 5 4 5 3 6 5 5 4 5 7 10 10 5 5 6 6 5 11 8 4 5 5 3 2 3 5 6 4 3 3 2 5 7 12 11 12 13 17 17 16
4 0 2 3 5 5 5 4 4 3 4 8 7 7 3 5 5 5 6 5 5 10 6 5 3 2 3 2 2 1 2 3 1 3 3 4 4 9 10 11 11 9 11 16 16
3 3 4 2 2 6 6 3 2 3 3 3 6 5 7 5 4 1 1 1 1 5 4 4 2 2 2 3 3 2 4 4 2 3 3 4 3 10 10 12 12 13 13 13 13
4 3 4 4 3 4 1 1 2 0 5 3 3 4 4 1 4 3 4 3 3 3 3 3 4 3 2 3 2 3 5 6 6 9 4 5 4 7 10 10 13 12 12 12 12

GFSSW_925_spd_093.txt.gz
Wind_Speed
18 18 18 18 18 17 16 15 15 13 13 13 10 9 9 8 6 5 7 7 12 19 20 18 11 11 5 4 3 2 1 2 1 2 6 6 5 2 4 3 2 6 9 18 28
19 19 18 18 18 17 15 15 14 13 11 13 10 8 7 4 5 10 8 11 15 25 22 20 12 13 4 3 2 2 0 1 3 4 9 7 8 4 1 7 5 12 17 28 28
18 18 19 19 17 17 16 13 13 12 10 10 8 8 4 2 3 3 2 15 21 27 17 13 16 6 5 4 4 4 1 2 3 8 12 7 9 5 5 6 7 17 24 27 27
19 18 18 18 18 18 17 14 12 11 9 7 6 7 2 1 3 2 6 20 24 22 18 14 10 7 5 7 6 3 5 2 2 8 6 7 11 8 6 3 6 21 25 28 22
19 19 18 18 18 17 19 15 12 9 8 5 4 4 2 3 4 3 18 23 22 20 19 10 15 5 5 4 6 7 2 2 8 12 9 10 5 6 6 7 15 23 23 22 21
21 20 19 19 19 20 19 17 12 8 7 4 3 1 2 3 3 10 23 23 17 13 12 14 10 4 5 4 5 3 8 6 9 13 10 10 5 7 8 14 16 21 22 20 20
22 22 21 20 20 21 21 18 11 8 6 4 2 2 1 0 1 16 19 15 16 7 8 6 8 3 4 5 1 2 4 6 6 11 5 7 4 4 11 17 18 19 19 18 18
23 23 22 21 22 21 19 15 8 8 5 5 5 2 3 2 8 16 15 10 11 10 4 6 3 2 1 2 1 3 2 3 3 12 3 9 2 9 13 16 18 19 18 18 18
22 22 22 23 22 22 11 6 7 6 10 9 5 2 3 6 4 13 9 10 10 8 5 6 3 1 2 3 5 1 4 3 4 10 3 10 2 9 15 15 18 17 19 18 18
21 21 21 22 21 17 7 14 13 11 11 5 1 2 3 3 6 14 10 15 5 10 6 5 3 5 2 5 9 7 5 4 4 10 5 10 4 7 12 14 16 18 18 18 18
23 23 20 19 18 7 14 5 1 2 3 3 1 3 1 1 7 6 12 8 10 8 6 7 7 11 11 6 3 7 6 5 2 4 6 6 6 7 11 13 15 18 18 18 18
26 22 19 15 9 5 5 2 2 3 4 5 7 6 7 3 5 9 16 6 9 11 9 7 10 10 7 5 7 4 5 4 2 3 6 3 3 4 10 11 14 17 17 18 18
24 19 14 12 2 2 3 3 12 6 1 3 3 3 1 7 5 11 17 7 12 9 9 12 9 10 7 8 8 5 5 4 3 1 1 1 0 4 1 4 9 12 15 17 17
22 15 11 6 2 2 1 8 9 11 1 2 2 1 4 2 3 4 14 7 4 12 9 9 7 12 9 9 7 9 7 4 3 2 3 3 3 7 6 4 2 8 13 15 18
17 11 6 3 1 1 4 15 4 4 3 6 2 2 2 2 10 4 6 2 9 8 5 5 11 11 9 7 7 3 5 6 3 4 2 4 2 6 5 7 7 7 8 13 15
13 9 5 3 2 3 11 7 3 3 4 2 4 2 5 5 4 2 4 6 3 6 1 4 3 2 2 3 10 10 6 5 3 2 6 3 2 5 6 9 11 9 6 11 15
9 10 8 2 3 10 12 1 2 4 4 7 4 5 8 7 7 7 5 8 2 9 9 4 4 2 5 6 5 7 8 5 6 5 5 3 5 5 7 11 10 12 11 10 10
6 7 14 5 11 8 1 2 7 3 4 3 4 5 5 4 6 7 3 5 10 4 3 4 6 5 10 3 2 11 10 5 11 9 7 0 8 5 7 9 12 12 14 13 12
3 3 10 15 5 4 1 6 3 3 5 7 3 4 3 4 3 4 7 4 7 7 0 4 4 1 7 7 3 5 6 2 5 1 9 5 6 4 11 14 16 17 16 16 17
1 2 6 14 8 2 5 5 2 4 4 2 3 4 4 4 3 4 4 5 4 9 3 2 5 6 4 1 9 3 3 5 2 9 10 4 4 5 12 16 18 19 20 19 19
2 1 10 12 5 6 4 4 3 6 3 6 4 4 6 3 6 4 5 3 6 5 6 2 1 3 1 7 8 2 2 3 1 2 6 7 5 5 8 10 14 16 17 17 19
2 2 15 7 4 2 3 3 4 9 8 6 4 7 4 5 5 5 4 5 10 4 4 4 3 5 4 2 4 7 4 1 5 5 2 0 5 4 9 11 12 15 16 17 17
2 2 10 5 3 4 3 4 5 7 8 6 4 6 5 3 5 5 4 4 11 6 3 1 3 4 2 3 1 3 4 3 1 1 4 6 6 7 10 12 14 14 15 16 17
2 2 4 5 2 3 3 4 3 6 5 5 4 2 3 5 5 5 4 6 5 7 10 4 3 2 2 4 2 1 2 3 2 3 7 2 13 7 11 11 12 13 14 15 16
4 2 2 3 5 6 2 2 3 4 4 9 4 6 3 5 7 4 4 4 7 7 4 3 4 4 6 5 1 1 2 1 1 3 3 14 10 8 9 10 9 10 13 15 16
2 2 2 3 1 2 4 3 3 2 4 4 7 9 4 4 1 6 5 1 1 4 3 2 5 4 3 3 1 1 1 5 3 4 7 14 10 8 8 7 10 11 11 13 14
3 1 1 2 2 0 1 2 3 1 5 3 4 4 9 6 5 6 6 6 3 1 3 2 6 4 4 3 2 4 4 4 6 4 3 10 7 8 8 8 8 8 10 11 12

GFSSW_925_spd_096.txt.gz
Wind_Speed
17 17 16 16 15 13 12 12 11 10 9 9 10 10 9 8 6 6 10 5 10 21 19 17 14 13 10 7 5 4 5 4 5 1 8 14 7 2 1 9 1 5 5 25 29
17 17 17 16 16 14 13 12 11 10 8 8 8 7 7 6 8 15 11 11 16 27 22 21 16 16 9 9 5 6 2 6 5 2 11 14 10 8 7 10 4 9 21 28 28
15 16 16 16 16 15 14 13 11 11 8 8 6 6 4 1 7 4 5 15 21 27 19 16 16 13 8 7 7 4 2 5 8 10 13 12 9 3 8 6 10 15 22 27 28
16 16 15 15 15 16 15 15 12 10 8 6 5 3 2 3 0 3 5 18 26 21 19 15 15 12 9 9 7 6 2 2 7 10 6 9 11 6 4 2 7 14 25 29 23
19 18 17 15 15 16 17 16 13 10 7 5 4 0 1 7 2 2 12 20 26 20 22 16 14 10 10 8 9 7 4 3 6 9 8 11 9 5 6 6 11 19 25 24 22
19 19 19 18 16 18 18 17 15 10 7 5 4 4 5 6 3 9 15 20 19 22 19 14 9 6 6 8 12 7 5 1 7 8 12 8 6 11 10 9 16 21 23 21 21
20 18 19 19 18 19 19 17 12 8 7 6 5 4 6 5 3 12 15 14 17 16 15 14 9 9 7 9 5 6 7 5 7 9 7 10 9 6 15 12 17 21 21 20 19
19 19 19 19 19 20 19 10 6 6 8 6 7 5 2 1 9 13 12 12 11 10 12 10 8 6 11 3 7 10 8 10 8 10 7 9 9 10 16 14 17 19 19 18 17
18 19 19 19 18 17 6 9 6 7 8 8 5 7 8 7 11 13 13 12 11 9 7 8 7 6 8 12 12 10 12 6 8 11 7 8 9 12 18 14 15 17 18 17 17
19 22 20 16 16 10 7 12 11 10 8 5 5 6 6 9 13 14 8 13 11 12 10 11 8 9 11 12 14 16 8 7 9 11 8 10 10 13 13 13 13 16 17 17 17
20 22 19 13 12 3 9 2 5 6 8 5 4 4 13 12 15 15 14 10 12 15 11 15 10 15 17 16 8 11 9 10 6 14 9 10 10 12 12 13 13 13 16 18 19
21 19 15 10 2 8 2 3 6 5 3 5 5 5 4 9 12 14 16 10 12 15 12 11 15 14 12 7 9 12 12 12 9 7 6 5 7 4 13 11 12 14 14 14 18
19 14 9 6 5 3 1 5 7 3 6 6 4 4 8 12 14 17 19 7 14 13 16 14 13 11 13 13 13 13 13 10 10 7 5 6 11 12 6 7 6 11 15 16 17
16 11 5 5 4 2 2 5 8 5 6 7 9 7 8 7 7 19 21 9 8 14 13 10 9 17 15 15 15 14 5 4 8 8 9 13 3 9 10 11 7 7 8 12 12
13 9 4 4 3 3 4 10 1 5 5 4 9 7 6 11 18 9 11 8 12 10 11 8 14 17 15 13 12 5 9 10 8 10 3 15 11 8 10 9 5 10 9 10 14
10 9 5 2 3 3 7 6 4 7 5 6 3 9 13 12 4 11 11 8 2 12 14 8 3 10 12 10 12 5 10 9 8 10 11 11 12 8 5 6 5 4 1 9 14
5 8 6 0 5 9 8 5 6 3 4 4 4 10 12 12 11 9 8 9 8 12 13 10 10 4 2 12 11 13 15 10 11 9 9 11 8 9 7 7 7 9 6 4 7
2 3 7 2 7 6 5 7 1 2 4 2 2 7 10 10 5 6 10 10 5 8 14 12 12 5 1 6 10 18 18 9 12 13 12 6 7 7 8 9 13 11 10 9 8
2 1 2 8 3 3 7 2 5 4 4 3 8 11 10 7 5 5 5 5 5 8 4 9 6 5 4 3 6 19 13 7 6 6 9 12 11 11 7 11 13 14 14 14 15
3 4 6 10 2 6 2 5 3 6 5 2 5 6 12 8 9 5 3 4 3 7 5 2 9 1 3 3 2 6 3 10 8 13 14 11 14 9 6 8 11 14 15 15 16
5 4 8 5 3 2 3 5 5 6 4 5 2 5 5 7 4 4 3 6 5 4 3 2 5 8 6 3 2 7 9 10 8 5 14 10 8 6 8 8 11 12 14 15 15
6 3 10 3 1 2 5 2 1 5 4 4 4 6 5 3 5 4 6 6 6 4 2 4 3 6 8 6 1 2 4 9 10 13 9 7 7 8 9 8 9 11 13 15 16
2 3 7 7 2 6 7 9 9 6 7 3 4 6 2 4 5 6 6 5 4 3 2 3 2 7 8 8 5 3 1 3 7 9 16 12 9 8 10 9 9 11 12 13 15
3 2 4 6 3 5 4 4 5 5 8 5 4 2 5 5 4 9 10 5 7 8 4 4 1 5 3 8 4 6 3 2 8 11 12 10 17 10 11 9 8 10 12 13 14
3 3 4 3 5 5 1 1 4 3 3 4 4 3 2 4 10 7 8 10 6 2 1 3 2 1 4 4 2 0 3 3 7 5 9 16 18 12 11 10 9 7 10 11 12
2 2 2 4 3 1 3 3 5 6 3 7 7 5 1 4 4 9 9 4 2 3 2 2 3 4 3 1 3 7 5 7 6 4 4 19 10 12 10 11 10 9 8 10 12
3 1 4 3 3 3 3 4 6 5 5 5 5 7 10 8 8 8 6 4 4 1 2 3 5 7 8 3 4 8 13 11 7 5 7 11 13 12 12 10 9 8 8 9 10

GFSSW_925_spd_102.txt.gz
Wind_Speed
16 15 14 14 14 13 13 14 14 13 13 13 14 13 14 13 12 9 13 12 17 11 11 12 18 21 19 15 18 14 1 3 3 8 13 6 4 4 4 9 8 5 23 27 30
17 16 16 14 13 13 13 14 14 14 14 13 12 13 11 12 12 21 16 14 9 12 15 18 17 17 13 17 15 5 4 5 6 8 16 12 10 6 3 10 9 20 26 31 29
17 17 17 16 14 14 14 14 15 15 13 12 11 10 10 8 10 7 20 24 15 14 19 19 15 15 17 16 15 11 5 2 8 12 18 17 13 4 6 4 14 23 26 25 26
17 18 17 17 17 15 15 14 16 14 12 10 9 8 9 6 2 5 13 18 13 16 19 20 16 15 16 17 15 5 8 4 16 11 15 16 14 10 7 1 15 21 24 22 20
19 17 17 17 17 17 16 16 16 15 10 8 7 6 5 8 12 5 11 14 14 17 20 17 16 15 16 15 12 6 4 15 14 18 15 11 12 11 5 6 9 20 21 21 18
19 19 17 18 18 17 18 17 16 14 9 6 5 3 5 10 6 7 11 14 16 20 19 18 12 14 16 16 14 7 15 13 17 16 17 15 9 5 5 6 13 16 21 20 18
19 18 19 20 19 18 17 17 13 9 6 6 5 3 9 15 3 6 12 16 19 21 17 16 17 14 6 16 13 8 12 13 21 14 20 18 11 7 4 9 20 22 21 20 18
20 20 20 21 20 18 15 9 8 5 5 6 6 7 7 13 8 9 12 16 19 19 17 15 12 11 16 13 11 18 13 10 25 19 13 14 11 2 6 11 19 24 21 19 18
22 21 20 19 18 14 7 4 2 4 6 7 5 10 9 7 12 12 15 18 18 17 12 11 5 12 14 15 12 13 15 14 15 19 17 1 13 7 10 14 16 22 21 19 16
20 19 16 14 13 11 3 4 5 8 5 5 14 9 13 11 16 14 11 11 13 12 10 6 7 13 15 13 14 18 21 17 16 17 17 15 12 11 11 10 14 20 19 18 14
18 15 13 9 9 7 2 3 5 6 14 11 5 13 11 15 15 13 16 15 14 12 13 15 11 15 19 20 20 21 18 11 7 23 18 13 15 15 12 14 12 17 19 18 16
18 13 8 6 6 5 7 7 8 8 6 20 10 16 11 20 13 13 14 13 15 15 16 11 16 17 20 18 23 23 13 10 13 23 20 16 11 8 8 8 13 16 17 14 9
14 9 6 3 5 6 13 15 7 8 7 13 13 11 5 9 13 16 17 18 15 17 18 17 14 19 17 19 21 21 17 12 12 17 19 16 6 10 7 17 19 12 16 17 17
12 8 4 2 5 14 17 3 8 4 6 15 12 14 14 14 16 20 20 17 11 17 18 19 16 18 17 17 18 17 17 19 22 18 8 13 5 15 19 26 15 16 16 15 17
11 7 3 7 13 12 7 8 8 5 5 12 13 9 10 17 13 14 19 20 17 15 15 18 15 16 17 18 13 18 11 14 19 13 20 19 6 5 3 13 19 20 17 15 18
10 8 6 8 11 12 9 9 7 7 1 6 9 9 14 17 10 17 14 20 14 15 19 15 16 11 11 14 12 21 12 9 6 9 11 21 14 8 3 7 9 20 18 16 15
13 11 11 12 11 9 8 8 6 6 2 6 12 13 15 16 13 14 16 15 13 11 16 17 17 12 14 17 17 15 13 8 10 9 12 20 11 6 14 10 10 12 9 5 2
16 15 15 19 11 9 8 10 6 18 10 13 15 16 14 17 13 13 13 14 19 17 11 13 14 17 13 14 10 13 18 10 14 12 12 18 11 10 19 14 13 6 5 5 10
18 16 12 16 12 4 7 6 5 10 21 5 7 9 12 13 13 14 20 11 18 9 4 14 15 15 6 16 1 16 17 18 15 20 13 9 14 13 18 17 13 7 7 8 10
12 17 25 5 6 7 4 4 14 9 6 8 10 6 6 14 19 9 8 6 11 5 2 13 11 15 10 5 9 14 9 17 14 14 14 11 13 13 16 14 12 11 10 10 11
7 6 13 5 7 6 5 7 3 3 6 7 12 7 6 10 12 5 3 7 4 9 6 16 9 9 15 11 15 11 11 12 17 15 10 11 4 6 17 13 14 12 9 8 10
15 12 9 5 8 7 10 3 2 5 1 4 7 22 7 3 7 3 8 8 4 7 9 12 4 11 13 13 19 16 13 16 12 17 10 7 3 5 11 14 14 12 9 8 8
5 7 6 8 9 6 6 6 8 6 2 3 2 4 7 6 3 6 7 3 3 3 6 10 9 3 8 7 7 8 13 15 12 15 15 5 6 7 14 13 11 13 12 10 9
5 4 5 3 5 7 4 3 5 1 3 5 6 7 5 9 8 5 5 2 1 6 6 6 12 8 5 12 9 17 15 13 13 11 13 8 19 15 15 13 11 13 12 12 11
4 6 6 4 5 7 3 5 1 2 2 4 3 9 10 3 6 5 8 5 4 3 3 4 9 11 4 7 11 14 20 17 10 15 11 17 19 15 13 13 12 12 12 12 11
6 6 1 5 1 6 5 3 2 4 6 2 8 2 8 10 5 8 11 6 6 6 5 2 8 10 10 6 5 10 6 3 5 11 14 18 18 17 15 13 14 12 12 12 12
10 3 6 5 5 6 7 6 5 2 3 6 5 6 4 12 13 14 3 8 9 2 3 4 7 10 11 13 12 10 10 9 8 10 4 14 15 16 17 14 11 9 11 11 11

GFSSW_925_spd_105.txt.gz
Wind_Speed
16 16 16 16 16 15 14 13 13 13 14 14 12 11 13 14 11 7 8 12 11 10 6 8 11 16 18 10 17 4 3 7 2 9 2 4 10 4 8 20 17 10 16 21 39
17 17 16 16 16 16 16 15 14 13 14 13 11 10 11 12 10 13 22 14 14 14 12 14 11 14 8 11 6 4 3 4 7 2 9 6 9 9 6 11 12 22 19 26 29
17 17 17 16 15 15 16 16 15 15 14 11 10 9 9 8 5 8 4 21 18 12 15 19 20 15 10 9 10 7 6 15 20 8 11 12 9 4 8 12 24 25 22 18 33
16 16 16 16 16 16 15 16 16 16 13 11 8 7 6 1 1 2 2 21 22 14 13 19 13 8 8 11 12 9 15 7 10 12 13 9 6 6 11 2 9 22 19 14 24
17 16 15 15 16 17 17 16 16 16 13 9 6 5 2 4 9 7 7 19 17 13 17 13 14 10 11 10 12 8 11 13 16 18 9 14 9 8 10 5 16 19 17 11 9
16 16 16 17 16 17 17 17 17 16 11 6 4 2 4 5 10 8 13 17 13 16 17 17 9 10 9 12 8 7 16 5 18 16 14 16 11 4 9 11 16 19 15 11 9
17 17 18 18 17 17 16 16 16 13 6 4 3 1 6 13 6 4 13 13 17 19 10 23 26 7 6 9 12 11 7 8 16 17 16 18 6 6 7 4 9 17 15 11 8
20 19 18 18 17 16 13 11 11 9 5 5 4 3 7 9 7 11 14 12 15 20 25 23 17 8 4 8 13 7 10 7 7 17 13 6 6 5 2 7 4 13 15 12 8
21 20 18 16 15 12 10 5 6 3 4 6 4 4 7 9 11 12 15 17 18 21 27 23 10 2 8 6 7 7 8 10 15 15 11 7 7 8 4 6 11 18 15 11 10
19 18 16 14 11 9 4 5 2 4 3 2 10 5 8 11 13 15 18 21 15 11 11 5 4 2 5 3 7 7 7 7 15 14 11 9 6 13 7 9 22 17 13 10 13
19 16 13 10 9 7 1 2 0 3 9 9 10 5 3 17 16 14 12 8 8 7 7 4 3 7 12 13 16 12 10 10 11 10 10 6 8 12 5 6 13 12 9 9 12
19 14 11 10 9 6 4 4 10 10 5 19 19 20 27 13 8 9 17 7 8 6 7 3 9 13 16 17 18 15 3 7 10 7 12 13 6 4 8 6 11 9 11 12 9
19 16 12 10 11 11 10 12 12 16 4 14 12 11 3 14 9 8 9 8 7 7 10 10 12 18 17 15 17 12 7 16 8 8 8 10 4 2 2 5 9 14 11 16 12
18 15 11 11 9 10 16 19 13 15 3 5 10 5 6 4 6 17 16 9 6 11 12 10 18 15 15 11 12 9 1 24 23 12 6 14 4 4 6 2 5 13 11 5 13
18 13 12 11 15 7 17 8 11 8 3 13 9 13 9 7 3 9 21 10 14 8 8 10 13 14 13 15 12 10 22 24 12 6 6 15 4 3 9 8 8 12 15 14 13
18 15 12 11 14 22 18 21 9 2 3 7 6 6 6 8 13 11 10 8 10 13 11 13 11 10 8 14 13 9 5 13 5 5 3 14 6 4 9 8 6 15 16 18 14
20 19 16 14 7 17 15 7 2 1 14 6 11 8 8 9 13 14 10 8 7 4 7 11 15 10 10 5 8 7 3 2 2 3 11 17 6 1 15 16 12 14 23 13 8
23 23 19 23 20 20 20 4 1 2 8 16 7 6 7 9 10 13 8 7 11 10 9 6 8 13 6 6 8 5 7 5 4 6 6 10 6 6 17 16 18 16 6 8 1
27 16 8 21 11 14 1 5 2 4 5 6 15 5 9 6 5 7 8 8 5 7 4 4 9 9 9 9 5 6 4 9 3 6 3 4 8 8 11 10 9 6 12 11 10
15 8 19 25 17 15 2 6 6 12 14 11 5 7 2 4 5 9 14 4 2 8 4 4 4 6 4 3 3 3 5 5 3 2 2 4 6 7 12 10 9 8 10 12 5
2 3 14 17 16 2 4 5 7 12 5 3 5 7 7 5 5 13 7 8 7 10 12 5 5 8 6 2 5 1 4 2 1 1 4 5 2 3 9 8 11 10 8 8 9
6 3 12 5 2 4 1 4 6 4 1 4 4 3 4 8 5 11 8 6 8 6 6 4 2 3 6 8 4 5 7 4 4 8 3 5 3 3 10 10 10 9 9 6 11
3 4 11 8 3 3 4 4 7 9 6 8 4 6 6 5 5 6 4 3 5 4 3 5 5 6 7 2 4 1 6 6 4 3 4 5 5 3 13 12 9 11 7 9 12
3 4 1 2 5 2 4 4 8 3 3 6 6 6 3 2 1 7 5 5 2 4 1 3 7 4 5 8 4 6 8 9 2 2 5 4 13 10 13 13 11 11 10 10 13
2 4 1 3 6 6 7 6 3 4 2 2 2 5 8 3 6 6 9 7 4 3 2 4 3 12 14 7 8 7 14 11 4 5 5 15 17 14 13 13 13 10 10 11 12
3 3 5 3 2 7 2 6 6 6 9 4 1 5 7 6 3 8 17 2 2 5 0 3 5 9 9 10 8 6 11 4 5 12 10 16 11 13 11 11 12 10 12 14 12
10 9 3 4 4 4 5 6 10 4 2 7 10 8 13 7 3 5 3 7 8 5 4 3 4 1 5 10 9 6 5 7 6 6 15 12 9 15 14 13 11 9 12 12 11

GFSSW_925_spd_108.txt.gz
Wind_Speed
14 14 14 14 14 13 13 13 12 12 13 12 11 10 11 13 12 7 7 10 13 8 10 6 10 11 8 3 6 4 3 1 5 5 4 3 19 4 3 17 13 3 20 25 37
16 15 14 14 14 13 13 13 13 12 13 12 11 9 10 11 11 13 17 12 13 13 11 10 7 9 3 5 3 4 2 5 6 3 6 10 8 11 12 17 10 18 22 33 37
16 16 15 15 14 14 13 13 14 13 13 12 9 8 7 9 4 8 4 18 18 11 15 13 7 4 3 3 5 7 6 7 7 11 9 10 11 7 16 6 21 24 26 26 31
16 16 16 16 14 14 14 14 14 14 13 11 7 5 5 2 3 2 5 17 19 11 13 5 3 4 5 7 6 3 3 5 1 5 8 5 7 6 6 13 19 22 21 27 21
16 16 16 16 16 15 15 15 14 14 12 8 4 2 1 0 8 4 0 20 17 15 14 6 5 5 6 4 5 5 8 5 5 6 10 8 8 7 7 10 14 20 24 20 16
18 17 17 17 17 16 16 15 14 14 11 6 2 1 2 2 5 7 8 21 17 17 11 9 7 5 6 6 5 8 11 10 7 5 8 11 11 4 9 7 12 18 18 18 20
19 19 18 17 17 16 16 14 14 11 8 3 4 2 1 11 2 8 13 18 20 17 5 24 13 2 6 8 3 14 6 4 8 3 4 14 3 11 7 2 20 16 11 17 22
19 18 17 16 15 14 12 11 8 7 4 4 6 2 7 7 9 8 13 8 15 15 22 10 11 6 6 3 4 6 4 5 2 3 8 1 4 8 5 8 13 16 9 9 22
21 19 17 14 12 10 9 4 5 4 2 6 4 2 9 11 9 16 20 8 15 15 15 17 8 6 4 3 4 1 6 6 5 11 4 2 3 3 5 7 9 8 6 10 17
21 18 16 12 9 9 4 3 4 5 5 3 4 3 8 4 5 6 24 13 5 3 4 4 1 2 4 4 5 4 4 3 8 16 11 4 4 10 4 9 10 7 4 14 18
22 18 13 9 9 7 2 0 2 1 4 8 7 5 5 7 13 8 21 11 0 4 3 2 4 5 10 5 6 2 8 3 7 9 9 4 6 9 5 11 15 13 8 12 18
21 17 14 9 9 9 7 2 7 3 7 15 14 10 18 12 4 6 14 7 5 5 2 6 5 10 7 7 7 5 7 4 11 8 3 5 7 5 6 11 16 14 6 12 15
25 21 16 12 10 8 7 14 14 16 3 7 6 5 6 9 8 7 7 3 4 3 4 6 11 7 5 9 8 9 6 6 7 10 12 6 3 2 1 13 11 11 7 7 21
23 20 16 14 7 5 8 11 22 9 4 6 2 6 4 8 3 11 14 5 2 8 5 6 15 10 7 10 7 9 6 12 18 6 4 6 3 5 7 9 17 16 9 5 14
21 19 18 13 13 4 12 20 33 5 3 4 4 4 5 7 2 4 14 4 8 4 6 9 3 7 8 12 9 11 7 14 15 4 7 5 3 3 13 10 13 15 11 3 6
22 18 18 10 10 20 21 28 7 5 3 3 8 6 3 3 3 2 6 1 3 3 2 8 10 6 11 12 12 11 14 10 5 4 1 9 4 4 10 13 13 12 12 5 5
23 21 18 13 9 11 23 7 5 3 4 4 4 3 8 6 3 6 7 5 4 2 5 7 7 5 6 7 3 7 6 2 4 3 6 10 5 5 8 10 12 16 17 4 4
26 20 13 21 20 19 11 5 4 2 4 3 2 6 7 5 3 7 8 4 4 4 1 3 8 3 3 7 8 4 7 6 4 4 5 5 6 1 3 4 9 6 9 8 4
24 10 8 17 10 5 4 4 6 4 4 5 7 7 5 4 5 6 6 3 4 3 7 3 5 5 3 5 8 5 2 3 5 2 4 5 3 5 5 6 5 4 5 7 7
16 8 8 11 10 8 4 4 4 5 4 4 4 5 5 8 6 5 5 2 8 5 4 0 4 3 7 3 3 8 4 4 3 4 4 2 8 7 10 9 7 7 6 8 5
5 3 7 3 11 4 2 6 5 8 3 0 3 6 6 4 4 4 3 4 5 8 6 2 2 8 0 2 4 3 3 5 3 4 5 4 0 5 13 12 10 6 6 7 9
5 2 3 3 3 1 3 4 2 6 1 4 4 3 5 2 3 3 3 3 8 6 5 2 3 1 4 9 4 4 4 5 4 4 3 4 3 7 13 11 11 6 2 5 5
3 3 7 7 2 3 3 2 2 6 6 4 2 2 4 4 3 4 3 7 9 4 1 3 4 4 10 8 9 5 3 5 3 3 1 5 4 8 10 11 14 8 6 6 6
2 3 4 4 1 4 3 3 3 5 4 4 2 2 4 1 2 2 3 6 6 1 2 5 3 5 5 6 5 8 6 3 5 4 3 2 13 11 13 10 13 10 8 6 7
1 3 3 3 4 4 5 3 4 4 7 6 7 6 3 3 3 3 5 7 1 3 5 5 4 4 4 9 10 7 5 11 5 7 5 14 15 17 15 14 13 11 11 10 8
2 3 5 4 5 5 5 5 8 3 5 4 8 11 10 5 3 3 2 4 2 6 3 3 2 3 2 13 12 5 9 10 11 10 11 14 14 16 16 15 14 12 12 11 11
6 5 3 5 7 5 3 4 5 4 8 7 8 7 9 6 3 5 4 7 3 4 4 4 3 3 3 5 8 5 6 3 5 6 20 11 10 17 18 16 16 14 13 13 12

GFSSW_925_spd_111.txt.gz
Wind_Speed
15 15 14 13 13 13 13 12 11 10 10 11 11 10 10 10 12 6 7 8 12 10 16 15 9 5 3 2 4 4 4 1 3 8 3 5 10 1 5 19 5 1 8 19 28
15 15 14 14 13 12 12 13 12 11 10 11 10 9 8 11 10 12 13 14 16 19 18 14 5 7 2 3 3 3 3 9 7 5 11 8 0 6 10 13 14 16 18 29 28
16 16 15 14 13 12 12 13 13 12 12 11 10 7 6 9 4 7 2 20 22 20 12 10 7 6 1 3 3 4 4 6 7 8 14 12 8 4 17 12 21 23 22 23 25
17 17 16 16 15 13 13 13 13 13 12 10 9 5 4 2 3 0 3 19 25 18 12 8 4 5 3 4 5 2 7 3 1 10 7 14 14 7 10 4 15 21 24 23 18
17 17 17 17 16 15 14 13 13 13 11 9 5 2 1 1 8 4 1 26 23 20 16 7 5 4 3 3 4 5 3 4 2 13 11 10 10 8 12 15 16 22 22 20 17
19 18 15 16 16 16 14 13 12 11 11 7 2 2 1 3 3 3 11 27 22 20 11 7 7 6 3 4 5 3 5 7 3 5 6 9 9 8 9 18 22 22 20 18 17
19 19 19 16 15 14 14 12 10 10 8 5 5 5 1 10 4 6 13 21 20 21 7 13 5 4 2 7 3 8 5 7 4 2 4 9 5 13 8 19 23 21 19 16 17
19 17 15 14 12 12 12 10 7 6 3 2 8 4 7 2 6 8 12 10 14 14 7 4 8 2 3 4 2 4 5 3 4 6 6 4 4 7 7 12 21 21 17 15 16
19 17 14 11 9 8 7 5 5 3 1 6 4 2 8 8 7 16 16 6 14 11 5 2 4 4 1 4 5 6 1 2 3 6 9 3 2 4 6 13 10 17 16 15 11
21 17 14 10 6 6 4 3 3 7 7 2 3 2 6 1 5 9 18 9 4 7 4 4 3 3 3 4 4 3 2 4 4 5 4 7 2 4 6 15 16 5 15 18 16
22 19 14 9 7 5 3 2 2 1 3 9 5 4 4 5 5 4 12 7 1 5 5 3 4 5 6 5 4 1 2 3 4 4 4 6 4 9 4 12 11 7 5 14 16
22 19 16 12 9 8 2 2 3 2 7 13 6 7 9 2 3 2 17 5 3 3 3 6 3 6 4 7 4 4 2 3 4 3 4 3 4 1 2 4 15 15 2 10 13
22 18 15 14 13 6 4 8 2 11 1 6 6 5 5 9 5 5 9 4 3 2 3 5 4 6 4 1 2 3 4 5 5 8 9 11 1 4 2 5 12 11 6 4 12
20 19 17 15 4 3 9 1 19 0 4 5 3 5 4 4 1 5 11 6 2 8 5 4 4 3 4 4 6 3 8 9 12 4 5 1 1 5 4 5 16 21 11 2 5
21 20 15 12 10 3 4 18 17 4 3 3 3 1 4 9 4 2 3 4 6 4 6 6 2 3 5 8 7 8 5 7 6 4 6 0 4 4 10 9 15 17 17 7 4
22 21 18 8 7 9 9 23 4 5 2 6 1 1 6 2 1 3 4 5 3 4 1 7 4 5 8 6 8 8 9 10 6 3 1 8 6 4 13 14 17 17 15 9 5
24 20 19 9 3 3 19 4 4 3 5 6 3 2 3 5 2 5 7 5 5 4 4 6 4 4 5 3 2 5 5 3 3 2 5 5 4 2 9 11 17 21 22 15 2
23 18 13 15 8 8 4 5 3 2 4 5 4 2 4 2 1 2 5 3 2 2 3 2 6 5 4 8 8 9 9 6 6 5 3 1 4 3 5 8 9 9 15 11 4
20 10 8 9 3 6 5 4 5 4 3 6 3 7 7 6 4 4 2 3 2 3 5 4 5 3 4 4 8 5 4 6 7 1 3 3 3 5 9 11 11 12 12 9 5
17 6 7 4 14 7 4 4 4 4 2 3 3 4 3 7 5 5 2 2 1 2 4 2 3 1 6 1 3 8 6 2 3 5 3 1 3 5 9 11 12 10 9 7 5
4 3 1 12 8 5 2 5 5 6 4 1 2 3 2 4 3 2 1 2 2 3 7 2 1 6 3 4 1 4 2 6 6 2 5 3 3 3 5 10 10 10 10 6 5
3 3 4 22 3 1 2 5 2 4 2 3 3 3 2 3 3 2 2 4 3 3 4 2 3 3 5 6 5 1 1 3 5 3 3 4 1 9 11 7 9 9 9 8 4
1 2 0 8 2 3 4 1 4 5 5 3 2 1 3 2 4 2 2 4 2 2 4 2 2 3 7 7 7 6 5 3 4 2 3 6 2 1 5 7 5 6 8 7 7
2 3 4 4 2 5 3 2 2 6 6 4 2 3 2 4 6 3 5 3 1 2 5 9 3 4 5 5 3 6 5 2 3 3 6 3 9 7 8 7 6 7 7 7 8
2 0 2 3 4 3 4 2 5 4 2 9 8 7 2 3 3 4 3 4 5 7 4 4 5 4 4 5 2 4 5 6 6 5 6 11 19 16 13 11 9 9 8 9 8
2 3 4 1 3 3 6 5 5 4 5 4 7 5 9 5 2 4 2 1 3 3 3 3 2 1 1 5 8 5 10 8 5 9 8 18 9 8 12 11 11 12 11 9 9
5 2 3 4 4 4 2 3 2 6 7 3 6 4 7 4 3 5 4 2 1 3 2 3 3 3 1 3 5 6 8 7 2 4 17 10 10 18 16 14 13 13 13 12 10

GFSSW_925_spd_114.txt.gz
Wind_Speed
13 12 12 12 12 12 11 10 10 10 10 10 11 10 9 9 10 6 7 9 12 15 14 16 11 6 4 2 3 5 3 1 3 2 3 3 5 6 8 7 2 3 7 15 25
13 13 12 11 11 12 11 10 10 10 10 11 10 8 8 9 9 12 13 14 14 18 24 20 6 8 2 2 2 3 3 8 6 10 8 5 10 5 6 3 7 13 19 25 24
15 14 13 12 11 10 11 12 11 10 10 10 10 7 5 8 3 7 2 18 20 24 22 15 17 6 3 3 3 4 4 6 7 11 11 6 8 5 10 2 12 20 18 19 20
15 15 14 12 11 11 10 10 12 11 10 10 9 4 3 2 4 1 5 22 26 20 17 13 5 4 4 4 4 3 6 4 5 9 11 5 10 8 2 1 12 19 21 20 15
16 15 14 13 13 11 11 10 10 10 10 9 7 1 1 2 8 2 4 21 28 18 14 6 6 5 5 4 5 3 3 6 5 12 9 9 8 7 4 6 13 18 18 15 14
17 16 14 13 12 12 11 11 9 7 7 7 2 0 3 2 7 5 11 31 22 16 12 7 7 6 2 3 5 2 4 6 6 10 5 11 8 12 12 10 17 17 16 14 15
18 17 15 13 11 9 11 10 9 8 4 4 6 2 2 9 6 3 24 24 23 13 6 6 5 2 1 2 1 3 5 6 4 5 5 17 8 14 6 13 16 14 14 14 14
19 17 15 12 9 9 8 6 6 5 1 2 7 2 7 3 3 8 15 13 16 8 6 11 5 2 1 4 4 4 3 5 2 4 8 1 5 14 8 15 17 16 12 12 12
21 18 15 11 8 5 4 4 3 2 3 8 4 1 8 3 5 11 11 9 12 8 5 5 4 1 2 4 4 6 2 2 2 3 6 3 4 5 9 18 15 15 13 12 8
22 19 14 10 6 5 3 3 7 7 7 4 1 2 5 3 7 7 14 14 5 6 2 3 4 3 3 4 4 4 2 1 3 5 2 2 3 7 12 15 13 13 11 10 10
21 18 14 11 7 3 4 4 3 1 3 7 4 3 4 4 6 7 13 5 5 4 5 2 5 6 6 5 5 3 2 1 2 6 4 3 4 9 8 12 8 8 13 10 14
21 20 17 15 12 7 2 2 3 1 6 8 4 6 11 6 3 5 19 5 4 5 6 5 4 7 7 4 4 2 1 1 2 2 4 5 5 1 8 15 15 6 2 11 9
19 20 16 15 13 1 4 6 3 8 1 6 5 4 4 8 5 6 8 5 4 3 4 6 2 9 6 4 4 2 5 4 3 6 6 4 3 4 3 3 12 8 5 6 7
19 19 17 14 3 1 6 2 10 4 4 4 3 4 4 4 3 4 11 6 2 5 6 3 2 4 4 4 5 3 6 6 10 4 3 2 4 4 8 6 12 17 11 3 8
18 21 18 13 8 3 1 13 2 4 4 2 2 4 0 6 6 1 5 5 5 4 5 5 2 2 2 6 8 5 3 8 6 5 4 2 2 2 9 10 12 18 15 9 5
21 23 17 8 5 7 6 8 4 5 3 4 1 3 4 2 2 4 4 5 4 4 3 5 1 5 7 5 9 8 9 8 5 4 1 4 3 3 6 12 13 15 17 14 2
24 20 15 6 3 2 11 3 5 3 3 5 3 3 3 1 2 3 5 4 5 5 2 4 4 3 4 4 2 5 5 3 3 1 5 2 4 5 5 5 15 19 19 18 6
23 16 11 12 2 4 2 4 3 2 3 4 3 4 5 6 4 4 4 3 2 5 2 5 4 6 4 8 9 8 8 5 5 5 3 3 5 3 2 4 7 16 20 13 8
20 9 6 3 11 5 5 4 5 4 2 4 3 6 6 4 3 3 3 5 3 5 5 3 5 4 5 4 7 6 4 5 7 3 4 3 1 2 5 5 6 12 16 15 13
16 7 4 1 14 5 4 3 3 3 2 1 4 2 3 5 3 4 2 1 3 2 2 4 1 2 5 1 3 6 5 3 2 6 4 3 3 4 7 8 8 9 13 12 11
4 3 7 13 2 5 2 4 4 4 1 4 2 4 3 2 3 1 1 0 1 3 2 5 3 6 1 4 1 3 0 5 5 3 6 4 5 1 6 8 10 9 8 9 9
2 3 7 8 4 1 0 3 3 4 2 3 4 3 2 3 3 1 4 3 3 3 1 1 5 1 4 3 3 2 2 4 5 4 2 3 3 3 6 7 11 9 8 4 5
2 1 4 2 3 2 4 2 4 6 4 2 3 3 2 3 3 1 2 2 4 2 5 4 2 3 8 6 5 5 4 3 2 3 5 6 4 1 8 9 7 10 8 6 6
2 3 4 3 1 3 3 0 4 5 4 4 4 3 3 5 2 1 2 2 1 3 9 6 2 5 5 4 3 5 6 2 4 3 5 4 8 7 10 9 7 8 9 8 6
3 0 3 2 3 3 3 0 4 3 4 8 6 6 1 3 5 3 3 3 4 2 4 4 3 2 3 3 2 1 6 8 5 3 5 7 10 17 14 13 11 9 10 8 6
2 3 3 1 1 2 3 4 4 2 3 3 6 3 6 4 1 3 3 4 2 5 3 3 0 0 1 1 5 3 6 7 5 3 3 8 1 7 8 7 10 11 11 10 8
4 3 3 5 3 4 1 2 2 2 6 3 1 3 4 2 3 3 2 3 1 2 2 3 4 3 3 4 3 4 5 5 4 1 5 5 5 13 10 11 11 10 11 11 10

GFSSW_925_spd_117.txt.gz
Wind_Speed
10 10 10 9 10 9 9 9 8 8 8 8 10 9 7 9 8 7 7 8 10 19 19 16 7 7 5 3 3 3 4 2 1 3 3 6 5 3 8 14 6 2 13 19 22
12 11 11 11 10 10 10 9 10 9 8 8 8 8 6 8 8 11 10 11 12 23 19 19 11 11 3 3 2 1 3 6 9 3 3 6 9 9 8 7 8 15 19 24 23
13 12 11 10 10 10 9 10 9 10 10 8 8 7 4 6 3 4 4 14 18 23 15 13 15 5 2 2 2 2 2 8 13 7 6 9 10 4 13 3 9 23 23 22 22
14 13 11 10 10 10 10 9 9 9 9 9 7 4 2 1 2 4 4 21 22 18 16 14 9 6 4 5 5 2 3 10 6 11 8 9 7 8 7 3 14 19 23 23 19
14 13 11 10 9 9 9 8 8 8 7 8 6 2 1 3 5 4 6 22 25 18 15 9 14 5 6 4 5 4 2 8 7 11 10 7 10 6 4 7 17 19 19 17 17
15 14 12 10 9 8 8 8 8 7 6 4 2 4 2 4 2 5 12 24 22 10 9 14 9 4 5 3 6 3 4 7 2 13 10 13 7 6 5 8 16 17 17 15 16
16 15 13 11 9 8 8 7 7 7 5 2 7 2 3 4 5 4 18 13 21 9 8 6 6 3 3 5 1 9 10 10 11 12 6 16 7 9 8 9 16 17 14 14 14
18 15 13 10 7 5 4 3 4 4 2 3 6 1 4 0 4 13 15 12 13 8 7 2 3 1 1 1 3 4 5 7 6 9 9 6 15 14 7 11 14 16 14 14 13
19 17 14 10 7 5 3 2 1 2 5 7 2 1 1 2 2 11 15 12 11 2 3 2 2 1 3 6 5 2 4 4 8 4 10 4 6 16 13 12 15 14 15 13 12
19 19 14 11 7 5 4 4 10 8 6 3 1 3 2 4 6 8 12 19 5 4 5 4 2 4 3 6 8 7 5 3 5 9 13 8 4 15 17 14 14 12 13 14 14
17 18 17 13 6 0 6 4 2 3 4 4 1 2 2 4 12 4 9 12 7 4 5 4 6 12 10 4 5 7 6 5 4 9 9 5 9 16 18 19 13 12 12 14 15
16 17 17 14 11 5 4 3 1 2 5 6 7 6 7 2 5 9 13 5 13 13 5 6 11 6 4 6 6 4 5 4 6 5 2 8 12 14 17 19 17 12 11 10 11
17 17 19 15 10 3 5 6 4 3 3 2 4 3 3 9 6 11 12 7 15 12 11 12 4 7 8 6 7 4 4 6 3 6 3 12 9 12 13 10 12 9 6 7 9
18 19 19 14 1 2 4 2 6 5 1 2 2 3 6 4 5 7 14 4 4 13 8 8 5 10 7 6 5 8 7 7 10 7 3 2 4 8 14 15 17 13 10 10 6
22 21 19 10 4 3 2 5 1 4 2 3 3 5 5 3 14 6 7 2 8 9 6 5 10 9 7 6 6 1 3 10 7 3 3 6 3 5 13 15 20 21 17 10 11
24 24 16 5 5 5 4 4 3 2 3 2 2 4 7 4 3 5 7 3 2 6 3 5 1 3 3 3 10 9 10 9 6 2 4 6 7 6 11 20 20 22 21 16 11
25 17 12 6 1 4 5 2 2 1 2 3 3 2 7 3 5 8 8 5 3 7 10 7 7 3 3 6 7 4 11 4 3 4 3 2 6 4 11 8 18 23 25 20 10
21 13 8 8 2 7 1 1 1 1 2 1 2 5 4 3 4 3 7 6 3 3 4 8 7 8 7 10 7 15 12 7 13 6 6 5 6 2 4 6 9 19 22 18 16
18 5 3 3 12 2 1 0 0 1 1 1 3 4 2 2 2 2 2 7 5 7 2 5 4 3 6 4 10 7 9 4 3 1 5 3 3 5 3 5 9 17 19 19 17
9 3 4 5 11 2 1 1 2 2 2 0 3 2 2 2 2 2 2 3 4 1 2 6 3 2 3 4 2 7 6 7 3 8 7 4 4 4 6 7 11 16 20 21 18
2 2 10 11 1 2 1 1 2 2 1 3 3 4 4 2 2 2 1 2 2 3 3 3 2 4 3 2 3 4 5 2 3 3 9 4 4 2 7 10 11 14 16 19 19
1 3 5 3 1 1 2 1 4 2 4 5 4 4 3 3 3 2 3 1 2 1 2 2 1 1 3 3 2 1 1 4 7 7 1 4 4 3 5 9 9 10 10 13 14
2 2 5 3 1 1 2 2 6 6 6 5 5 5 3 2 3 2 1 2 0 1 2 4 1 2 4 4 3 3 3 1 1 1 8 9 3 1 9 11 8 9 10 10 10
1 3 2 2 1 2 1 2 3 4 4 5 4 1 2 4 5 2 3 3 2 3 5 2 2 3 6 2 1 0 4 2 5 6 6 7 6 9 13 14 12 12 10 8 6
3 2 2 2 2 2 1 1 3 3 4 7 4 5 2 2 2 3 3 2 3 1 2 1 1 1 5 5 4 5 6 3 6 2 8 7 11 15 18 17 14 11 10 9 6
1 1 1 2 1 3 3 2 4 3 3 5 6 8 7 4 3 2 3 3 1 2 2 1 3 1 4 2 3 2 6 4 5 3 6 3 7 5 14 15 13 12 11 10 8
1 1 1 2 2 1 1 1 4 2 4 5 1 1 6 5 3 3 1 2 2 1 2 0 4 3 3 4 4 6 6 9 6 4 5 3 3 9 15 17 15 12 12 11 9

GFSSW_925_spd_120.txt.gz
Wind_Speed
11 11 10 10 9 8 7 7 7 7 7 8 9 9 6 6 6 5 11 6 9 16 16 13 11 10 10 4 4 4 2 5 5 9 8 12 7 4 6 12 7 4 14 25 22
11 11 11 11 10 9 8 8 7 7 7 7 8 8 6 6 8 13 11 12 13 22 18 18 14 14 6 4 3 4 4 5 2 3 10 8 9 11 10 12 13 16 23 25 23
11 11 11 10 10 10 9 8 8 9 8 8 7 6 5 5 7 3 5 15 17 25 17 14 12 12 6 5 4 3 5 6 5 5 5 8 5 6 10 9 14 19 23 22 22
11 11 10 10 10 10 9 8 8 8 8 9 8 3 2 3 1 3 6 20 22 21 15 14 13 11 7 6 5 8 9 13 14 6 5 9 7 15 9 3 11 20 22 23 18
12 12 11 10 9 9 9 8 8 8 7 6 6 2 0 7 0 4 14 20 21 20 19 14 13 10 9 5 8 4 9 9 7 9 5 11 7 9 9 9 18 22 20 17 16
12 11 11 10 7 7 7 7 7 7 7 6 3 4 6 6 2 2 15 18 17 21 19 15 9 6 4 5 6 8 5 5 3 16 11 12 9 6 1 11 17 18 17 16 15
14 12 11 10 7 6 5 6 6 6 7 6 6 2 8 2 5 3 18 18 16 15 15 15 7 9 4 7 4 7 9 6 7 14 7 15 4 6 4 13 17 17 15 14 14
17 14 12 9 6 4 3 3 4 3 2 2 6 4 3 2 6 9 15 16 13 7 10 7 7 6 8 4 7 9 9 8 10 13 5 4 8 11 15 16 18 18 15 13 12
16 16 13 9 5 4 2 3 2 3 7 7 2 6 5 5 9 11 13 18 16 7 6 4 7 7 7 12 9 9 8 8 10 11 10 11 7 14 14 15 16 16 16 13 12
14 16 15 11 6 2 2 5 6 8 4 3 5 6 5 9 12 13 8 18 15 11 8 10 7 10 10 12 13 12 9 13 12 13 16 17 7 23 15 11 15 13 11 14 13
14 15 15 12 8 2 6 2 6 6 7 7 3 3 8 11 16 12 13 13 14 14 10 14 10 16 16 13 7 4 5 9 9 11 14 14 10 23 15 12 8 8 14 15 14
15 16 15 12 11 5 4 5 6 5 5 6 6 5 4 9 9 13 16 11 13 16 12 10 15 16 4 5 9 9 8 10 6 10 7 8 10 20 22 22 17 13 20 14 14
15 17 15 14 8 3 7 7 3 6 6 6 4 5 9 11 11 16 16 6 15 16 17 15 15 7 10 11 11 8 7 9 7 10 4 8 7 14 15 18 18 12 4 10 11
15 16 16 11 1 1 4 2 3 4 5 7 8 6 8 9 8 18 16 9 9 15 15 10 6 11 13 12 11 11 5 4 11 13 5 14 5 13 16 17 22 21 14 16 18
16 19 15 5 6 4 1 3 3 5 2 5 7 6 11 11 18 14 14 7 12 12 11 7 10 12 12 11 8 2 3 7 7 7 5 11 8 14 17 15 19 21 19 18 16
21 19 11 4 5 5 2 3 4 6 5 5 6 9 13 9 11 14 12 8 1 10 14 12 6 7 8 7 9 1 7 6 5 5 8 8 11 12 16 21 20 21 23 20 18
23 14 8 5 1 2 2 4 6 2 3 7 6 12 9 15 13 17 14 11 9 11 12 8 13 9 4 9 8 12 12 8 9 8 9 7 7 6 13 9 21 23 23 23 17
18 10 5 7 3 5 6 7 1 2 3 4 4 11 10 7 7 9 13 8 2 7 8 12 15 14 13 11 8 14 17 11 11 11 11 8 6 2 7 5 10 18 22 22 19
8 0 2 1 8 5 7 2 4 4 2 4 9 11 11 6 4 7 10 11 8 7 4 8 7 8 13 11 13 14 16 15 14 11 8 10 8 6 8 8 11 14 20 21 19
1 4 4 3 6 8 6 6 3 3 3 3 5 5 10 7 8 8 10 6 7 3 8 5 7 9 12 9 12 12 8 15 10 13 14 7 8 4 10 10 12 14 20 22 21
3 4 4 6 3 6 2 7 5 5 3 4 3 6 3 6 3 5 4 7 2 3 8 3 8 11 10 13 15 12 12 8 15 15 12 13 8 6 5 8 12 14 18 21 21
3 4 2 3 4 0 6 3 1 6 3 5 6 7 5 2 4 4 6 4 1 1 6 3 7 9 11 6 5 9 15 16 11 14 10 14 4 5 6 6 9 12 16 18 21
1 4 3 5 3 7 7 10 10 6 8 5 5 6 3 3 3 2 5 5 3 1 2 2 6 7 7 9 6 10 6 11 10 13 11 14 12 5 7 7 9 11 11 13 16
3 5 3 3 2 2 7 5 8 6 8 5 4 3 5 6 3 6 7 4 3 5 3 3 7 10 6 7 1 9 8 7 13 12 14 12 8 8 11 11 11 10 11 10 9
2 4 4 5 4 2 1 4 6 4 4 3 5 6 5 3 5 4 2 8 5 5 2 4 9 5 7 4 2 2 6 6 12 16 14 10 12 9 11 12 12 12 11 11 12
3 1 2 3 2 7 5 4 9 8 5 7 8 8 6 6 7 4 2 1 2 4 1 2 6 8 9 4 5 8 6 7 5 6 9 10 7 5 10 10 12 12 13 12 12
3 1 5 3 6 7 3 5 9 8 6 6 4 2 5 7 7 5 3 2 4 4 2 3 2 7 11 6 7 11 6 1 2 3 4 8 8 2 10 10 12 11 10 9 8

GFSSW_925_spd_123.txt.gz
Wind_Speed
10 11 11 10 10 9 9 9 9 9 9 10 10 10 10 9 6 7 12 3 12 8 12 14 13 13 14 5 4 8 2 2 12 15 10 13 8 6 8 10 8 4 20 22 20
12 11 12 11 10 9 9 9 9 9 10 10 9 11 7 9 11 17 13 12 12 15 14 16 14 14 13 10 6 8 3 6 8 11 14 12 8 9 11 10 9 18 24 25 19
12 13 11 11 10 9 9 9 9 10 10 10 10 8 5 5 12 7 16 17 16 20 17 15 11 12 14 8 6 7 3 10 1 5 9 8 9 6 9 11 15 19 23 21 20
12 12 12 11 9 8 8 8 9 9 10 10 10 7 4 6 2 8 5 14 18 19 18 16 11 14 15 4 7 4 11 12 8 5 10 10 4 11 8 11 16 19 21 20 17
12 12 11 11 9 7 7 7 8 8 8 8 7 2 5 8 4 3 7 19 16 19 20 15 14 14 14 7 9 8 13 8 15 9 12 11 12 7 7 5 18 19 19 17 15
13 12 12 11 9 7 7 7 7 7 7 6 3 3 8 13 3 3 10 18 17 21 18 17 10 14 11 7 5 11 13 10 7 13 8 11 5 3 5 13 19 18 18 16 14
15 13 12 10 9 7 6 7 6 6 6 5 6 3 11 4 2 6 12 17 18 18 15 17 10 10 9 7 4 14 10 10 12 11 14 16 6 8 6 12 17 17 15 15 15
14 15 13 10 8 6 5 4 4 4 2 4 7 7 7 2 2 10 14 15 15 16 15 14 5 16 15 1 11 15 13 9 11 13 10 6 13 4 10 14 17 17 15 14 13
14 15 14 11 8 6 4 4 3 2 5 6 4 10 6 6 11 11 15 15 15 11 8 2 11 14 12 10 14 13 11 11 13 13 11 8 8 13 17 15 16 15 16 14 14
14 16 15 12 8 5 3 2 0 6 2 6 10 7 8 13 16 14 14 15 16 13 10 13 10 13 12 14 13 9 14 14 15 15 16 16 10 18 18 13 9 5 14 12 15
12 14 14 13 9 3 1 2 6 7 12 9 12 7 10 17 14 12 13 18 16 14 14 16 13 16 18 20 9 9 8 6 4 22 19 13 11 18 9 9 9 7 8 12 14
11 13 13 14 13 8 6 7 11 9 7 9 4 4 1 16 15 13 18 13 13 16 17 13 17 18 17 12 7 6 16 13 21 16 12 13 12 16 16 14 11 5 11 11 21
15 14 14 14 9 3 10 11 8 9 7 8 9 10 10 11 13 16 18 13 15 18 18 15 16 16 12 6 11 15 16 5 1 13 8 15 11 14 16 16 18 14 19 2 9
17 16 15 11 4 3 10 2 6 5 6 8 10 6 9 17 11 16 18 10 11 18 15 15 8 11 10 14 15 12 5 15 22 16 8 17 5 16 17 21 22 25 19 11 7
17 17 15 8 13 12 4 5 8 5 1 8 9 8 13 18 18 14 17 12 15 15 10 15 14 9 13 16 12 5 10 10 3 13 6 8 6 5 22 20 27 27 26 18 25
19 18 11 5 8 12 7 9 7 6 3 7 7 9 14 14 11 15 12 10 10 13 14 9 5 11 17 14 6 5 8 10 8 9 11 20 13 12 19 23 24 21 25 22 23
20 15 10 8 2 3 7 9 4 3 7 8 14 13 17 14 14 16 15 15 9 13 13 8 9 10 8 11 9 12 14 8 7 6 10 2 6 11 5 18 23 26 23 25 25
16 9 8 12 6 9 12 12 9 5 3 6 7 16 7 14 16 16 14 14 16 16 15 11 15 18 13 15 12 17 17 11 14 12 13 16 6 12 20 12 16 22 22 23 25
6 4 11 6 11 9 8 10 8 8 2 8 7 12 8 4 4 13 13 10 7 11 10 14 14 21 13 16 14 14 16 21 18 15 12 3 1 8 14 14 14 20 23 20 20
4 11 8 6 9 10 10 4 9 4 2 5 5 12 8 12 9 10 11 10 11 8 10 3 7 8 12 12 16 18 8 15 11 16 17 11 12 2 12 14 14 14 21 22 18
7 5 6 6 8 7 6 11 7 6 6 5 13 14 6 9 3 9 14 6 3 10 10 13 13 8 15 12 14 12 13 9 14 13 13 12 5 8 16 14 14 14 16 22 21
15 5 10 7 8 7 7 5 6 7 2 2 6 6 2 3 7 7 8 9 5 4 10 11 7 14 16 18 17 10 18 15 10 12 13 17 5 12 5 8 10 10 14 21 19
5 8 9 8 6 7 8 7 11 5 4 3 3 5 5 2 4 4 8 5 2 8 11 2 10 4 6 12 10 11 12 16 19 16 17 13 5 8 6 8 9 10 14 17 19
5 5 5 7 7 11 8 6 8 2 4 4 1 2 5 4 3 3 8 5 2 5 8 5 14 14 7 8 15 18 20 10 16 11 12 13 18 9 11 12 11 9 16 14 15
5 4 1 7 7 4 2 3 7 9 4 1 2 5 5 2 4 2 1 9 7 5 5 6 13 11 7 7 12 12 7 16 14 17 16 12 13 5 14 16 15 14 9 12 13
5 2 6 4 1 7 4 5 8 6 6 5 3 1 2 7 7 3 5 4 5 8 7 5 10 10 12 12 7 10 10 8 11 14 17 18 2 11 10 17 14 15 10 10 10
4 5 6 7 8 11 7 4 8 5 4 7 6 8 4 9 8 7 6 6 5 7 4 4 9 4 13 14 7 12 13 11 12 7 8 9 11 4 4 11 11 13 13 13 12

GFSSW_925_spd_129.txt.gz
Wind_Speed
11 12 11 10 10 10 10 10 10 10 11 11 11 11 12 13 12 9 7 11 9 10 4 6 11 18 18 5 7 6 3 7 10 12 14 11 10 6 13 20 17 11 11 36 36
12 12 12 12 11 10 9 9 10 11 11 12 11 11 11 12 12 14 19 13 6 13 8 13 12 16 9 4 5 3 3 3 5 4 5 8 14 10 12 7 19 20 22 34 31
13 12 12 11 11 10 10 10 10 11 11 11 11 10 9 8 5 8 6 22 16 12 11 18 20 11 8 4 3 4 6 5 10 12 16 5 10 7 20 18 22 19 24 24 26
15 15 13 13 12 10 9 9 10 10 11 10 9 8 6 1 1 1 3 22 20 11 11 13 11 9 12 8 11 11 15 17 5 12 10 4 2 5 10 21 20 14 22 18 16
16 17 16 13 12 11 10 9 8 9 9 9 8 6 2 4 9 5 4 17 16 11 15 12 12 10 12 2 7 8 19 20 12 21 7 10 10 4 20 21 16 13 16 15 14
16 17 17 15 13 11 10 9 9 8 8 8 6 3 2 4 8 4 9 14 12 16 17 18 9 10 8 3 12 6 20 21 17 9 4 6 3 4 10 21 18 13 9 14 16
14 15 16 15 12 11 10 10 9 8 6 4 3 2 5 13 1 5 7 11 16 17 10 22 25 8 9 2 11 7 21 12 8 4 4 3 5 5 2 14 19 12 10 19 21
15 16 16 15 13 12 11 10 10 7 4 2 2 2 7 9 17 12 10 11 12 20 23 23 19 9 4 7 3 9 7 6 6 9 4 0 4 4 6 10 14 14 12 20 18
16 16 16 16 15 13 11 10 8 4 2 1 2 4 7 4 8 18 15 16 18 18 24 24 14 7 6 4 5 4 4 4 10 9 7 5 4 7 2 5 5 11 9 18 18
15 15 16 17 16 15 12 12 9 3 3 4 10 5 9 12 10 20 17 19 13 10 11 8 3 2 4 3 5 8 6 5 9 6 8 7 6 6 2 3 4 8 11 11 18
15 15 17 17 17 17 14 6 1 2 7 9 6 6 10 16 14 10 13 16 8 4 6 5 3 7 11 13 14 6 8 7 7 10 4 7 7 13 4 3 4 6 9 10 14
17 17 18 18 19 19 8 4 9 15 7 14 17 16 24 12 4 8 14 5 6 7 8 5 9 12 14 16 11 5 3 7 8 9 5 5 6 7 5 1 5 5 9 9 4
19 19 19 18 20 16 8 15 12 21 4 8 14 7 7 8 6 8 10 9 7 8 9 9 13 16 17 13 1 9 1 9 8 4 1 8 4 6 6 4 2 5 4 9 6
20 21 20 18 11 9 12 22 15 19 3 4 8 6 11 5 8 17 17 9 7 10 12 9 18 13 13 9 7 5 17 17 18 8 4 2 1 8 8 13 8 9 7 7 7
23 23 18 16 16 6 15 21 9 9 3 6 4 7 6 7 4 11 18 10 12 8 7 12 11 10 12 14 7 10 8 15 10 5 9 5 7 5 15 18 18 13 12 14 7
28 23 16 5 10 15 23 24 20 2 4 5 7 5 6 9 13 11 6 7 9 12 8 11 10 7 9 13 11 10 14 16 9 3 2 12 9 5 13 28 24 17 15 14 10
30 22 15 8 6 14 27 9 2 3 3 4 4 9 10 5 8 10 9 8 6 3 6 10 12 8 4 4 4 9 18 4 3 2 3 9 10 12 23 19 23 21 19 18 17
29 16 9 15 16 16 19 2 1 7 11 15 17 10 5 4 11 10 8 9 12 11 5 5 7 1 4 4 8 8 7 4 4 1 5 4 6 7 3 2 9 15 16 19 21
21 6 4 11 11 11 3 2 3 4 12 13 8 4 4 9 9 7 8 10 12 13 4 4 9 6 8 5 5 4 5 11 8 5 2 3 1 4 18 13 16 8 11 18 21
11 6 15 11 11 9 2 5 7 5 10 4 3 5 2 9 7 4 7 11 14 10 6 5 5 5 9 7 8 4 4 4 2 4 4 0 5 5 3 5 3 9 11 15 19
3 2 7 19 17 3 4 9 2 8 3 4 3 2 5 2 11 11 10 16 4 5 9 6 3 8 5 6 8 3 4 3 2 3 5 2 3 7 9 10 11 11 8 11 16
7 3 18 16 3 4 5 6 5 4 3 4 5 2 1 6 5 2 4 2 23 13 5 6 3 5 4 2 7 7 7 7 5 8 2 4 3 8 14 17 15 13 17 16 14
4 3 15 13 4 6 7 3 7 10 8 10 4 4 4 4 5 6 2 8 12 7 3 5 5 4 12 4 7 3 7 5 4 2 6 1 2 5 4 7 6 8 9 6 13
3 3 2 3 8 12 9 0 5 5 5 5 7 9 7 8 4 3 2 5 4 5 7 1 3 3 7 8 4 8 15 14 5 1 4 4 5 2 7 2 7 9 12 14 13
3 4 7 5 5 12 4 5 7 4 1 4 1 7 3 5 8 4 5 4 11 3 6 4 3 5 6 4 3 9 14 18 9 8 4 7 6 6 1 10 5 8 20 19 17
3 7 7 9 4 7 4 4 5 7 10 6 6 6 8 5 1 6 4 1 2 7 4 3 2 7 7 4 2 5 13 13 16 13 15 15 7 6 5 7 8 11 22 15 18
10 10 3 7 5 2 1 6 8 4 2 7 8 7 11 10 6 5 8 7 8 3 3 4 3 4 4 9 3 2 6 10 19 12 9 7 4 8 11 11 8 8 7 11 7

GFSSW_925_spd_132.txt.gz
Wind_Speed
10 11 11 11 10 10 10 10 10 10 10 11 12 11 11 13 14 6 6 7 9 9 9 3 7 7 1 4 2 2 4 4 5 3 2 5 11 9 13 22 15 6 17 19 27
12 12 12 11 11 10 10 10 10 10 10 11 11 11 10 12 12 11 15 10 11 13 8 8 5 9 2 5 3 4 2 4 3 5 7 4 15 19 15 13 15 19 21 31 31
14 14 13 12 12 11 9 9 10 10 10 10 10 9 8 8 4 7 2 19 15 10 16 10 6 5 6 3 4 2 2 2 0 3 4 4 2 8 17 7 21 26 23 24 25
16 16 16 13 11 11 10 9 9 10 10 10 9 7 5 2 2 2 6 21 19 11 12 4 1 3 3 8 8 7 11 8 5 8 4 8 4 10 17 15 25 26 27 26 18
15 16 17 15 13 12 10 9 9 9 8 8 8 6 2 1 8 6 1 20 17 12 13 5 6 4 4 9 10 5 11 12 12 17 10 8 2 12 14 18 25 24 25 20 18
16 17 17 16 14 12 11 11 10 9 8 6 5 4 2 3 4 7 8 18 18 17 12 9 6 5 5 2 10 16 11 13 11 5 6 4 4 10 11 19 22 23 20 18 19
16 16 16 16 15 14 13 11 10 9 7 6 2 2 1 12 2 7 10 16 21 21 5 22 10 1 5 5 6 15 10 5 11 8 5 2 6 4 12 11 15 14 18 20 23
15 15 15 17 16 15 13 12 10 9 5 3 3 2 7 8 8 14 14 6 14 16 22 19 13 5 5 2 5 8 8 8 10 11 6 2 5 3 3 14 11 11 16 16 20
16 16 16 17 16 16 15 12 9 6 3 2 1 1 9 12 7 17 18 9 15 18 20 15 6 7 2 3 3 4 3 4 6 3 4 1 7 5 2 12 11 10 16 15 12
17 17 17 18 17 17 15 14 8 2 2 2 5 3 7 4 6 15 13 19 6 3 3 5 2 2 3 3 5 8 7 6 8 4 3 3 2 2 3 7 3 5 18 16 17
18 18 18 18 19 20 19 5 2 1 4 8 6 5 6 5 4 5 14 8 2 3 4 3 3 5 10 7 3 5 2 8 4 6 6 5 7 6 5 4 3 4 13 18 17
20 19 19 19 20 21 12 1 6 3 8 13 15 9 17 13 3 2 12 4 6 6 2 4 5 11 7 3 8 10 2 5 4 5 1 4 4 4 4 3 3 4 17 14 7
21 21 21 18 20 8 8 13 15 20 3 8 5 5 5 7 6 6 7 4 3 2 2 6 11 11 6 8 12 4 7 9 6 8 3 4 3 6 0 2 8 2 0 7 15
22 24 21 19 7 8 10 15 22 8 4 6 2 6 4 3 3 8 15 6 1 9 6 7 13 12 8 10 6 5 3 11 12 9 3 5 3 2 4 5 6 8 5 6 10
24 26 19 15 13 4 10 25 30 7 4 1 2 4 3 6 2 3 16 3 4 4 5 9 5 6 8 11 4 6 16 9 10 5 4 3 4 5 8 13 17 14 12 8 7
27 26 18 7 10 14 18 29 6 5 3 3 4 3 3 4 5 2 4 3 2 4 6 10 6 6 8 9 11 15 17 7 5 3 3 9 3 4 10 28 17 12 14 12 7
28 21 14 9 5 5 22 6 5 4 5 3 3 1 4 3 7 5 5 4 4 1 3 6 6 4 9 11 14 16 10 1 3 3 2 10 3 6 5 16 17 16 11 15 14
21 11 9 16 12 11 11 5 5 4 5 4 5 10 5 5 3 4 2 3 5 4 2 2 7 4 2 10 13 12 8 4 5 4 4 4 5 3 7 10 14 14 14 8 11
10 3 5 8 7 5 5 4 5 5 1 4 6 7 4 4 4 10 4 7 5 8 5 0 5 5 4 4 9 6 6 10 5 2 3 5 1 4 4 8 12 11 15 15 13
8 4 5 4 8 6 4 4 4 4 3 5 4 3 3 1 6 6 4 6 5 5 7 6 3 2 7 3 3 7 5 3 3 3 4 3 4 5 9 11 14 14 16 13 15
4 3 3 14 10 5 2 6 6 8 3 3 5 4 3 4 3 2 4 6 7 10 2 5 4 8 2 3 7 3 2 4 4 4 5 3 4 4 13 6 9 2 3 11 19
6 3 4 23 3 1 2 5 7 7 7 3 3 2 4 8 8 5 2 4 6 6 4 4 5 2 6 8 3 5 3 3 5 6 3 4 4 5 6 7 9 4 4 4 5
2 3 7 10 1 2 6 7 4 5 5 4 4 3 6 1 3 4 4 5 9 4 2 4 4 3 8 7 9 7 3 1 2 2 3 5 4 5 8 8 7 8 5 4 1
2 3 4 3 1 3 5 6 1 4 3 3 3 7 4 5 6 1 2 1 1 4 4 2 5 5 5 5 2 4 6 5 3 2 2 2 4 4 5 3 4 5 2 4 8
2 4 3 3 6 6 3 7 3 3 6 9 7 6 4 4 4 5 5 6 6 8 7 5 4 2 2 2 3 3 7 10 7 5 4 3 5 2 1 2 5 5 6 4 11
0 2 4 3 5 5 1 4 8 3 6 4 11 11 10 6 2 2 3 3 4 5 4 5 1 2 6 6 6 7 16 19 12 12 11 9 6 2 4 2 2 6 5 8 10
5 6 3 5 6 5 3 5 1 6 10 7 12 7 8 5 3 5 3 2 6 0 2 3 3 3 3 6 3 8 7 17 13 12 3 4 2 3 4 3 5 6 10 11 11

GFSSW_925_spd_135.txt.gz
Wind_Speed
11 10 11 11 11 10 9 9 9 9 10 11 12 11 11 12 11 6 6 7 6 6 9 7 4 4 3 3 1 1 3 3 3 4 4 2 7 8 5 13 5 3 8 15 26
12 11 12 11 11 11 10 8 9 9 10 11 11 11 10 12 10 10 12 10 11 11 7 8 3 5 2 1 3 3 3 2 1 3 3 3 12 9 9 12 12 14 15 25 26
14 16 14 13 12 11 10 9 8 8 9 10 10 10 9 10 3 6 2 16 16 12 9 3 8 2 2 3 2 2 1 1 2 2 5 3 12 8 17 11 19 20 18 21 21
17 17 17 15 13 11 11 10 8 8 8 8 8 7 6 4 2 1 7 12 18 8 11 4 4 2 3 3 1 4 7 5 3 2 1 2 5 10 6 6 17 21 23 21 16
15 15 16 16 14 12 12 11 10 9 8 7 6 5 2 2 7 4 3 18 17 13 8 4 5 3 2 5 4 3 7 11 6 4 5 8 4 10 5 16 18 20 22 19 15
15 15 15 16 15 13 12 11 10 9 7 7 4 3 1 2 5 4 4 21 15 15 8 7 6 4 3 6 8 6 7 8 10 8 4 2 6 10 9 18 19 20 18 17 17
16 15 15 15 15 13 12 11 9 9 7 4 2 2 1 8 4 3 7 13 17 15 5 11 7 4 4 6 1 9 6 5 4 10 5 4 5 7 19 21 18 18 17 17 18
16 15 15 15 14 14 13 11 8 7 4 2 5 1 6 1 4 12 9 4 15 13 10 1 13 3 2 2 5 5 3 2 7 10 2 0 3 3 20 21 19 18 16 16 16
16 17 16 17 16 15 15 14 9 3 2 3 2 2 8 6 7 10 15 6 8 11 2 6 4 5 2 4 4 7 2 6 7 5 3 7 4 8 3 15 16 18 17 14 12
17 17 17 18 18 19 18 11 2 2 2 1 2 3 5 1 4 6 13 15 2 4 2 3 3 2 1 4 3 4 4 2 11 3 5 9 5 8 6 8 10 18 15 16 16
19 19 19 19 18 20 19 2 4 3 3 6 4 4 6 5 6 6 10 9 2 3 3 2 4 5 7 5 6 9 4 9 0 7 8 4 6 13 5 8 7 13 16 16 17
20 21 22 19 18 20 7 3 3 2 8 10 7 7 12 7 2 2 14 4 4 4 3 5 4 8 5 5 1 2 7 7 10 8 3 5 4 6 2 2 3 8 14 14 8
21 22 23 19 18 6 7 5 2 14 1 7 5 4 4 8 3 5 7 4 3 5 3 5 6 4 4 1 2 3 2 6 3 11 1 7 2 3 4 6 3 4 6 10 14
21 23 23 19 4 7 8 3 23 2 4 6 3 5 2 4 2 4 8 4 1 7 4 3 5 5 3 4 5 1 10 4 11 4 3 3 5 6 6 10 8 9 6 7 13
24 25 20 14 11 3 5 20 7 4 4 2 3 1 3 5 1 1 6 4 2 3 5 6 3 4 4 7 5 1 6 5 7 3 2 3 2 3 5 11 10 9 10 10 14
30 24 17 8 7 8 14 20 5 5 2 5 3 2 4 5 4 2 3 5 3 4 2 8 5 5 8 8 16 14 8 7 5 3 2 3 2 4 5 15 9 9 9 9 7
29 19 11 7 3 4 17 4 5 4 3 4 1 2 2 3 4 4 3 2 3 2 3 5 4 4 6 10 5 12 6 3 4 2 4 4 2 8 7 9 16 16 13 11 7
23 12 7 12 4 4 6 5 5 3 4 2 3 3 4 5 4 6 3 2 4 3 1 1 5 3 5 14 13 8 7 5 1 3 1 5 5 4 6 7 12 17 20 16 12
18 6 5 3 7 6 5 4 5 4 3 4 2 4 4 1 2 2 2 4 5 8 6 2 4 4 4 6 9 4 4 10 2 3 2 3 6 5 6 5 9 16 18 22 21
11 5 4 4 11 5 4 4 4 6 2 3 3 3 2 3 3 4 4 4 2 6 5 4 2 2 3 5 2 9 8 8 1 3 3 2 3 4 5 4 4 6 15 18 21
4 3 1 12 6 5 2 5 6 7 6 5 3 3 3 4 3 3 4 7 3 6 5 3 3 6 3 3 8 1 1 6 6 3 4 4 6 7 3 7 6 4 4 6 9
5 2 2 14 3 1 2 5 4 7 2 4 4 2 2 3 2 2 3 6 7 3 3 1 4 2 3 5 2 5 3 5 5 4 2 3 4 6 4 8 8 4 7 8 7
2 3 7 3 1 2 5 5 5 2 3 2 3 0 1 4 2 2 2 6 6 7 6 3 3 3 7 6 6 7 5 3 5 3 4 5 4 2 2 5 2 2 3 7 7
2 2 3 3 1 1 3 8 4 3 3 5 3 4 5 4 4 2 4 3 5 6 6 6 2 5 5 4 3 2 5 1 5 4 3 4 2 2 5 4 3 6 6 5 6
1 2 2 3 4 3 4 4 4 2 4 7 8 5 4 2 4 4 3 5 5 9 6 4 3 4 1 5 1 7 6 6 5 2 3 5 4 5 6 6 7 6 8 6 4
1 2 4 3 4 4 5 7 7 3 4 3 8 2 7 4 2 2 4 5 0 5 3 4 1 1 4 9 11 11 11 10 6 7 7 5 6 2 3 6 9 8 7 11 12
4 2 3 4 4 3 3 2 6 8 7 3 8 5 3 3 4 5 4 2 3 2 2 3 2 3 1 2 7 8 6 7 4 6 3 5 3 2 6 9 8 7 7 7 8

GFSSW_925_spd_138.txt.gz
Wind_Speed
12 11 11 11 10 10 10 9 9 9 10 11 11 11 11 11 11 7 6 4 3 6 9 9 5 4 2 2 1 2 3 3 2 4 3 6 5 4 6 10 1 3 6 13 25
11 13 12 12 11 10 9 9 8 9 9 10 10 10 10 12 10 9 8 8 7 15 10 8 4 4 2 1 2 2 3 2 0 1 2 5 5 5 6 6 4 10 14 23 22
13 13 12 12 11 11 10 9 8 8 8 9 9 8 8 9 3 5 4 12 14 14 9 3 9 1 2 1 3 1 3 4 2 4 4 3 6 3 13 2 7 15 13 18 19
13 14 14 13 12 11 10 10 10 9 8 8 8 7 6 3 3 2 4 10 18 11 8 4 4 2 2 2 2 4 6 3 2 3 4 3 6 8 2 3 11 15 19 18 14
15 14 14 14 12 11 10 10 10 10 8 7 7 6 2 1 6 8 8 16 15 11 12 4 2 2 2 3 2 3 7 5 7 4 0 5 2 2 5 10 12 16 15 14 14
14 13 13 14 13 12 11 10 9 10 7 6 4 3 2 2 7 4 5 20 14 11 6 4 2 1 2 1 3 6 4 6 3 4 2 4 2 4 7 10 13 17 14 11 14
14 14 13 14 13 13 12 12 10 9 6 4 2 3 2 7 3 4 9 9 8 6 4 4 1 5 2 3 3 5 4 4 3 4 3 2 2 9 13 15 16 15 12 11 11
16 16 15 14 14 14 14 14 11 7 6 3 4 2 5 2 3 4 8 4 6 6 2 2 6 2 3 2 3 4 3 2 2 4 2 3 2 3 17 18 17 15 12 11 9
17 17 16 16 16 16 16 15 8 3 2 2 2 2 5 3 5 7 12 3 7 6 2 4 4 2 2 4 4 6 3 5 6 5 8 3 2 2 15 17 16 14 12 11 7
18 17 18 18 18 18 17 6 4 3 2 2 2 2 2 2 2 3 10 8 4 4 3 3 4 3 4 4 3 4 4 3 5 6 7 16 10 9 10 13 14 13 12 10 11
19 19 19 19 18 18 11 1 4 2 2 5 4 4 5 5 5 2 7 6 2 3 4 1 5 6 5 5 4 6 5 7 7 3 3 9 6 12 6 8 6 13 13 13 14
20 21 22 19 17 13 5 2 3 4 6 4 4 6 9 4 2 3 13 4 3 2 2 5 5 5 5 5 5 5 5 4 3 8 5 1 7 9 10 10 11 12 14 16 9
21 24 25 19 14 3 4 1 4 9 2 6 5 4 3 7 3 5 7 4 3 3 3 6 3 8 6 4 4 1 4 4 5 9 6 5 5 3 5 6 2 4 9 12 16
22 27 26 17 2 6 4 2 16 5 4 5 3 3 3 1 2 4 8 5 1 7 6 3 2 5 5 3 5 3 8 9 11 14 3 5 3 4 7 12 6 5 11 10 12
25 28 22 12 6 2 0 15 2 2 4 2 2 2 1 3 0 1 2 4 3 3 5 5 3 1 3 6 4 2 11 3 4 3 2 4 1 3 12 10 16 11 14 14 16
31 22 16 6 4 4 8 9 3 5 2 5 1 1 2 5 3 1 3 4 2 4 1 7 3 6 6 6 7 15 8 3 4 2 1 1 4 4 9 16 17 12 13 14 15
26 17 9 5 2 2 12 3 5 5 3 2 0 4 4 5 5 4 4 2 3 2 2 5 5 3 5 8 5 6 6 1 4 3 4 4 3 7 11 15 24 21 15 14 13
21 11 5 8 3 1 3 5 4 1 3 2 1 3 3 3 3 6 3 2 2 3 0 2 1 8 6 8 10 7 8 4 4 3 3 2 4 5 7 7 11 18 14 14 15
15 4 4 2 10 4 5 4 4 3 3 1 2 3 3 2 1 1 1 2 5 7 6 1 4 2 5 5 9 5 4 3 6 1 1 3 6 5 3 1 6 14 19 20 17
6 4 3 2 9 4 5 3 4 4 2 1 3 2 3 3 2 2 1 2 3 7 3 3 2 3 3 7 6 8 8 4 4 3 4 4 4 2 5 3 4 14 15 12 12
3 3 8 9 3 5 2 5 5 7 5 4 5 3 2 1 1 4 1 4 2 3 6 3 3 5 4 1 8 4 1 5 5 5 4 0 4 4 6 1 7 7 6 8 11
4 3 5 6 4 1 0 3 5 4 3 3 4 4 4 5 2 2 2 5 5 3 1 1 4 3 2 6 2 4 6 6 5 6 2 1 3 5 5 6 3 4 4 2 6
2 2 4 3 2 2 5 5 4 3 2 0 2 1 2 4 2 2 3 5 5 2 1 3 3 3 5 7 4 5 2 4 3 3 6 5 3 4 6 9 9 8 6 1 5
2 2 3 3 0 4 3 4 4 3 2 4 3 3 4 3 3 1 4 3 5 4 6 6 3 5 6 6 1 4 5 3 2 4 5 4 3 6 8 8 8 9 7 4 4
2 1 2 2 1 2 2 3 2 2 3 5 6 4 3 3 3 4 3 6 5 5 4 5 4 2 4 2 3 3 4 8 1 2 3 5 5 2 4 4 5 5 7 9 6
2 2 4 1 2 1 3 4 5 2 1 1 6 1 3 4 3 1 2 1 2 6 3 3 2 3 6 7 9 5 9 5 4 3 6 10 4 2 1 7 11 10 10 11 9
4 2 3 2 2 1 3 4 4 6 2 2 7 4 2 4 5 2 2 2 2 1 2 3 4 1 3 2 6 5 7 6 2 3 2 2 3 2 8 10 8 8 8 9 9

GFSSW_925_spd_141.txt.gz
Wind_Speed
11 11 11 10 10 9 8 9 8 8 8 9 9 9 8 10 11 6 6 4 6 8 12 11 5 3 1 1 1 1 2 5 6 9 6 10 6 4 4 12 6 3 11 13 20
12 12 11 11 10 10 9 8 8 8 8 8 9 8 8 11 9 7 5 6 9 14 12 10 7 5 1 1 1 1 3 3 2 4 7 7 12 6 7 8 6 14 15 22 20
14 13 13 12 10 10 9 9 8 8 8 8 8 8 8 8 3 1 6 10 14 12 9 6 7 1 2 1 3 2 3 5 5 6 4 12 8 3 12 3 7 19 19 20 19
13 14 13 13 12 11 10 9 9 8 7 6 6 7 6 3 4 1 6 10 16 11 10 10 4 2 2 2 2 5 6 4 2 5 5 6 1 10 2 2 10 16 20 20 16
12 12 12 12 12 11 11 10 9 9 7 5 4 5 2 2 2 9 4 16 15 8 6 6 4 1 3 3 2 6 5 4 8 6 5 0 4 8 4 8 15 17 17 16 15
12 13 12 13 12 11 11 11 11 9 8 5 3 2 1 1 5 6 9 17 13 7 4 5 3 1 4 3 4 4 7 7 6 6 1 1 3 6 5 12 15 15 15 14 15
13 13 13 13 13 13 12 12 11 8 7 4 2 3 0 1 5 8 10 9 12 5 4 1 2 2 1 5 5 9 7 6 5 4 4 3 0 4 7 12 15 15 13 12 13
15 14 14 14 15 14 14 15 10 4 3 3 3 2 2 1 2 7 9 6 7 4 3 2 1 3 1 6 4 5 5 4 7 6 4 5 2 6 5 12 15 15 13 12 12
16 16 16 17 16 14 16 10 5 1 3 3 2 2 4 1 2 7 6 4 6 4 3 3 4 2 3 3 4 2 5 8 4 5 4 9 3 8 9 13 15 15 13 13 12
16 17 18 19 17 15 11 5 6 4 2 1 1 2 0 2 3 6 11 9 4 5 3 2 2 3 3 4 1 3 5 3 4 3 6 5 5 6 7 15 13 15 13 14 13
16 18 20 20 16 14 6 1 1 1 1 2 4 3 3 3 1 3 7 7 4 2 3 2 6 10 8 5 4 7 7 6 3 2 2 4 2 7 11 10 11 13 15 16 14
18 19 20 18 15 8 4 2 5 3 5 0 3 5 7 3 3 3 11 4 2 5 4 5 11 4 4 7 7 6 7 4 2 1 3 1 2 6 8 8 7 10 16 16 13
20 21 21 16 10 2 2 4 7 6 2 3 3 3 0 5 3 8 9 5 3 4 4 6 1 9 7 7 6 5 3 5 2 5 2 2 3 5 7 9 16 13 15 16 17
22 24 20 10 2 4 1 2 11 5 1 4 0 2 4 2 3 3 9 2 2 5 6 2 4 7 6 6 7 5 2 4 10 9 3 8 1 5 11 14 15 12 15 19 17
24 24 15 4 3 1 2 11 5 2 2 3 1 0 1 1 2 3 4 1 4 5 4 4 6 8 8 7 10 4 7 10 5 6 4 6 3 3 9 10 19 15 15 18 18
27 17 10 0 3 3 5 2 2 2 3 1 1 1 1 4 2 1 3 3 2 3 1 4 0 3 2 4 9 18 10 8 5 2 4 2 6 4 10 18 23 17 12 13 18
23 12 4 6 2 3 7 2 1 2 1 2 1 2 3 3 2 2 5 6 4 3 3 1 8 3 6 11 12 8 6 2 1 3 2 1 4 8 13 14 24 26 24 15 18
19 4 0 4 3 2 0 1 2 0 1 1 2 2 1 2 2 2 5 5 5 3 2 3 5 11 10 12 9 15 9 4 4 3 2 4 5 1 8 9 16 20 20 9 12
10 2 2 3 6 2 1 1 1 2 0 1 2 1 1 1 1 1 1 2 3 10 5 3 1 5 14 5 9 7 9 3 4 1 3 2 3 0 1 5 7 15 19 14 18
3 2 5 3 10 4 1 1 2 3 2 2 2 0 1 1 1 2 0 2 1 7 4 1 2 3 6 8 6 8 12 5 1 4 2 1 2 3 9 7 5 13 20 13 12
2 2 7 7 2 2 1 2 4 5 6 3 2 3 2 0 1 1 2 1 1 1 6 5 3 3 6 6 9 9 5 2 2 2 2 2 1 6 10 9 6 12 16 15 14
3 2 5 3 1 1 1 2 3 3 2 2 2 1 2 3 1 1 2 3 3 2 2 3 2 2 3 2 2 1 7 6 4 6 2 3 2 5 6 6 7 4 7 10 14
2 1 1 4 2 1 2 3 3 2 2 1 1 0 1 2 0 1 2 2 5 2 2 5 0 5 7 5 3 2 1 3 1 0 7 5 3 3 4 5 7 6 3 2 5
1 2 1 2 1 1 1 2 2 2 1 2 2 2 2 2 1 1 2 2 5 3 5 4 3 4 5 5 3 1 3 2 5 4 5 4 7 1 4 7 9 8 5 1 3
2 1 2 3 3 2 1 2 2 1 1 2 3 2 3 2 1 2 2 4 2 6 2 2 6 7 9 13 13 2 5 5 6 2 4 8 7 3 4 5 6 7 7 7 5
2 1 1 1 2 2 2 3 4 3 2 1 3 3 2 4 3 1 2 2 1 4 2 3 3 2 4 6 11 6 10 6 6 6 8 11 7 3 2 2 7 8 8 10 9
4 1 2 1 3 3 4 3 4 6 1 1 7 3 3 2 2 2 2 2 2 2 3 3 3 1 2 2 2 4 5 9 6 3 6 5 5 5 4 6 7 7 8 9 10